     2              OBSERVATION DATA    GPS                 RINEX VERSION / TYPE
teqc 2000Jul20 Karen Wendt 20040401 22:40:16UTC             PGM / RUN BY / DATE
                                                            COMMENT
L2: 1 -> 1; 150 -> 5; 250 -> 9                              COMMENT
L2: 1 -> 1; 150 -> 5; 250 -> 9                              COMMENT
L2: 1 -> 1; 150 -> 5; 250 -> 9                              COMMENT
L2: 1 -> 1; 150 -> 5; 250 -> 9                              COMMENT
L2: 1 -> 1; 150 -> 5; 250 -> 9                              COMMENT
L2: 1 -> 1; 150 -> 5; 250 -> 9                              COMMENT
L2: 1 -> 1; 150 -> 5; 250 -> 9                              COMMENT
L2: 1 -> 1; 150 -> 5; 250 -> 9                              COMMENT
L2: 1 -> 1; 150 -> 5; 250 -> 9                              COMMENT
L2: 1 -> 1; 150 -> 5; 250 -> 9                              COMMENT
L2: 1 -> 1; 150 -> 5; 250 -> 9                              COMMENT
L2: 1 -> 1; 150 -> 5; 250 -> 9                              COMMENT
L2: 1 -> 1; 150 -> 5; 250 -> 9                              COMMENT
L2: 1 -> 1; 150 -> 5; 250 -> 9                              COMMENT
Original Marker Name: 2069 2069_smtpd_SLO_101_PM_5229_05LL_1COMMENT
Campaign Name: USGS San Simeon 2003-2004                    COMMENT
4-Character Station Name: 2069                              COMMENT
6-Character Antenna Code: DMRCHT                            COMMENT
Vertical Measurement Point: BCR                             COMMENT
Vertical Offset to Rinex Ref. Point: 0.0348                 COMMENT
Radial Measurement Point: ECF                               COMMENT
Radial Offset to Rinex Ref. Point: 0.1897                   COMMENT
Antenna Height from Field Measurement: 1.5530 m             COMMENT
Additional Antenna Identification Info.:                    COMMENT
Turborogue and Ashtech Choke Ring                           COMMENT
Original XYZ: -2652419.2269 -4466137.9211 3689208.9640      COMMENT
New XYZ position is based on association with SCEC monument COMMENT
E1F1B1O7+0011. Position of that monument is believed to be  COMMENT
valid to within 1 m horizontally; vertical accuracy         COMMENT
should be no worse than 3-times this value.                 COMMENT
                                                            COMMENT
Revised Rinex header created by UCSD GPS archive for        COMMENT
GSAC on 20-Apr-2005 (2005:110) 16:31:03 GMT                 COMMENT
For assistance contact dagnew@ucsd.edu                      COMMENT
or anderson@python.ucsd.edu                                 COMMENT
                                                            COMMENT
SLO 101 PM52.29 05LL 1993                                   MARKER NAME
CHS US GEOLOGICAL SURVEY                                    OBSERVER / AGENCY
ZE1200331006 ASHTECH UZ-12 ZE00                             REC # / TYPE / VERS
CR620022601 DORNE-MARGOL. TYPE T                            ANT # / TYPE
 -2652433.0000 -4466104.0000  3689192.0000                  APPROX POSITION XYZ
        1.5066        0.0000        0.0000                  ANTENNA: DELTA H/E/N
     1     1     0                                          WAVELENGTH FACT L1/2
     5    C1    L1    L2    P1    P2                        # / TYPES OF OBSERV
    30                                                      INTERVAL
  2004     3    26     0     0    0.000000                  TIME OF FIRST OBS
  2004     3    26    20     0    0.000000                  TIME OF LAST OBS
                                                            END OF HEADER
 04  3 26  0  0  0.0000000  0  8G22G14G 9G31G15G 3G18G21
  20632792.884   -23267408.32544 -18069260.01342  20632793.493    20632788.820
  21680536.964   -10197302.40243  -7857527.59542                  21680539.458
  21680538.805                                                    23655573.607
  23543885.792    -2644661.62543  -2043947.99442  23543887.128    23543889.204
  20138908.489   -19297620.47944 -14875589.35842  20138909.816    20138908.401
  21623345.738   -13563588.18643 -10545290.84442  21623347.412    21623346.870
  21460395.953   -15846783.77243 -12327437.06842  21460397.632    21460396.031
  21730304.300   -13494102.39243 -10460747.06142  21730305.827    21730303.976
 04  3 26  0  0 30.0000000  0  8G22G14G 9G31G15G 3G18G21
  20633806.369   -23262082.48144 -18065109.98442  20633806.971    20633802.289
  21664426.139   -10281965.23443  -7923498.49942                  21664428.587
  21664427.912                                                    23650199.430
  23530345.259    -2715818.57143  -2099394.87442  23530346.748    23530348.257
  20135216.834   -19317020.19744 -14890706.00142  20135218.173    20135216.770
  21621923.080   -13571064.45543 -10551116.46842  21621924.775    21621924.141
  21470584.320   -15793243.41343 -12285717.31942  21470586.043    21470584.454
  21742051.012   -13432373.08243 -10412646.33142  21742052.536    21742050.678
 04  3 26  0  1  0.0000000  0  8G22G14G 9G31G15G 3G18G21
  20634867.548   -23256505.82944 -18060764.52342  20634868.145    20634863.470
  21648386.935   -10366251.64343  -7989176.08642  21648389.361    21648388.632
  23644921.797     -990553.07053   -742649.32352  23644922.994    23644921.118
  23516886.321    -2786546.63343  -2154507.55142  23516887.876    23516888.941
  20131591.515   -19336071.16844 -14905550.89242  20131592.877    20131591.492
  21620606.859   -13577981.11343 -10556506.03242  21620608.571    21620607.894
  21480801.022   -15739554.30343 -12243881.65742  21480802.726    21480801.151
  21753857.078   -13370331.96543 -10364302.64842  21753858.627    21753856.696
 04  3 26  0  1 30.0000000  0  8G22G14G 9G31G15G 3G18G21
  20635980.223   -23250658.62344 -18056208.24042  20635980.826    20635976.162
  21632423.676   -10450138.68943  -8054542.48342  21632426.131    21632425.338
  23639744.320    -1017758.06043   -763847.95142  23639746.058    23639743.490
  23503513.006    -2856823.05843  -2209268.29542  23503514.709    23503515.618
  20128036.850   -19354750.99744 -14920106.58342  20128038.213    20128036.821
  21619401.151   -13584317.10043 -10561443.13242  21619402.851    21619402.137
  21491049.783   -15685696.90843 -12201914.86742  21491051.471    21491049.861
  21765726.372   -13307958.24343 -10315699.78142  21765727.950    21765726.005
 04  3 26  0  2  0.0000000  0  8G22G14G 9G31G15G 3G18G21
  20637140.069   -23244563.43244 -18051458.72942  20637140.665    20637136.079
  21616532.742   -10533645.84043  -8119612.85542  21616535.173    21616534.323
  23634664.249    -1044453.83043   -784649.76542  23634666.368    23634663.464
  23490222.158    -2926666.96443  -2263692.01542  23490223.950    23490224.484
  20124548.999   -19373079.81744 -14934388.75642  20124550.332    20124548.989
  21618301.794   -13590094.38343 -10565944.87842  21618303.509    21618302.715
  21501326.307   -15631693.72443 -12159834.48042  21501327.994    21501326.315
  21777654.863   -13245273.86743 -10266854.85242  21777656.432    21777654.456
 04  3 26  0  2 30.0000000  0  8G22G14G 9G31G15G 3G18G21
  20638348.879   -23238211.30844 -18046509.00242  20638349.457    20638344.849
  21600716.460   -10616760.69843  -8184377.54842  21600718.893    21600717.952
  23629683.183    -1070628.30843   -805045.43242  23629685.477    23629683.331
  23477015.479    -2996066.11543  -2317769.16642  23477017.286    23477018.294
  20121130.120   -19391045.90344 -14948388.27642  20121131.503    20121130.147
  21617310.744   -13595302.72043 -10570003.29142  21617312.465    21617311.596
  21511632.170   -15577535.87543 -12117633.57142  21511633.900    21511632.205
  21789644.264   -13182269.23343 -10217760.36342  21789645.828    21789643.860
 04  3 26  0  3  0.0000000  0  8G22G14G 9G31G15G 3G18G21
  20639605.904   -23231605.37844 -18041361.50942  20639606.500    20639601.928
  21584974.687   -10699483.83843  -8248837.01142  21584977.139    21584976.122
  23624801.278    -1096282.31643   -825035.49642  23624803.507    23624801.457
  23463893.703    -3065020.81243  -2371500.02242  23463895.380    23463896.454
  20117780.110   -19408650.41844 -14962106.05542  20117781.496    20117780.093
  21616427.433   -13599944.60943 -10573620.31842  21616429.202    21616428.264
  21521966.886   -15523226.72443 -12075314.76242  21521968.597    21521966.904
  21801694.269   -13118946.21043 -10168417.78342  21801695.833    21801693.848
 04  3 26  0  3 30.0000000  0  8G22G14G 9G31G15G 3G18G21
  20640911.086   -23224746.61344 -18036017.00142  20640911.655    20640907.128
  21569307.942   -10781812.98843  -8312989.47042  21569310.377    21569309.292
  23620019.040    -1121413.93343   -844618.51242  23620021.187    23620019.301
  23450856.934    -3133529.04043  -2424882.91942  23450858.490    23450859.845
  20114499.163   -19425891.98944 -14975541.01942  20114500.553    20114499.113
  21615651.835   -13604020.13643 -10576796.02342  21615653.676    21615652.692
  21532330.174   -15468767.28843 -12032878.85442  21532331.892    21532330.200
  21813804.753   -13055305.29143 -10118827.49042  21813806.318    21813804.361
 04  3 26  0  4  0.0000000  0  8G22G14G 9G31G15G 3G18G21
  20642264.396   -23217634.82344 -18030475.32342  20642264.985    20642260.450
  21553716.772   -10863744.66243  -8376832.21542  21553719.216    21553718.121
  23615336.636    -1146019.55443   -863791.67842  23615338.813    23615336.956
  23437905.757    -3201587.08243  -2477915.04142  23437907.361    23437908.702
  20111287.777   -19442767.86044 -14988691.02542  20111289.197    20111287.712
  21614984.363   -13607528.02743 -10579529.41842  21614986.193    21614985.154
  21542722.184   -15414157.19643 -11990325.55442  21542723.885    21542722.143
  21825975.898   -12991345.61543 -10068988.82042  21825977.489    21825975.514
 04  3 26  0  4 30.0000000  0  8G22G14G 9G31G15G 3G18G21
  20643664.524   -23210277.10844 -18024742.01642  20643665.079    20643660.583
  21538200.586   -10945282.67543  -8440368.20542  21538202.989    21538201.872
  23610753.869    -1170103.27743   -882558.16742  23610755.967    23610753.656
  23425039.866    -3269198.80643  -2530599.39842  23425041.347    23425042.454
  20108145.141   -19459282.43044 -15001559.49642  20108146.560    20108145.073
  21614423.816   -13610473.99243 -10581824.95642  21614425.642    21614424.524
  21553141.482   -15359403.70843 -11947660.50942  21553143.203    21553141.348
  21838206.531   -12927073.45843 -10018906.66242  21838208.087    21838206.138
 04  3 26  0  5  0.0000000  0  8G22G14G 9G31G15G 3G18G21
  20645112.515   -23202667.62444 -18018812.52642  20645113.081    20645108.625
  21522760.839   -11026418.68943  -8503590.95942  21522763.248    21522762.092
  23606271.804    -1193656.61343   -900911.35942  23606274.007    23606271.389
  23412260.533    -3336355.41043  -2582929.12142  23412262.052    23412262.781
  20105072.807   -19475427.57444 -15014140.10242  20105074.233    20105072.720
  21613971.264   -13612851.65243 -10583677.64942  21613973.172    21613972.035
  21563589.123   -15304501.24043 -11904879.36942  21563590.886    21563588.888
  21850497.898   -12862482.25443  -9968575.89942  21850499.425    21850497.498
 04  3 26  0  5 30.0000000  0  8G22G14G 9G31G15G 3G18G21
  20646607.888   -23194809.21544 -18012689.06742  20646608.475    20646604.029
  21507397.689   -11107152.15743  -8566500.04342  21507400.123    21507398.879
  23601890.725    -1216679.56143   -918851.24942  23601892.943    23601890.016
  23399567.939    -3403056.49143  -2634903.89442  23399569.525    23399569.730
  20102070.643   -19491203.89244 -15026433.31542  20102072.085    20102070.549
  21613626.558   -13614663.13943 -10585089.17442  21613628.437    21613627.278
  21574064.629   -15249452.19743 -11861984.02242  21574066.446    21574064.338
  21862849.577   -12797574.03843  -9917998.11042  21862851.076    21862849.212
 04  3 26  0  6  0.0000000  0  8G22G14G 9G31G15G 3G18G21
  20648150.438   -23186703.16644 -18006372.64142  20648151.014    20648146.560
  21492111.513   -11187481.36743  -8629094.12142  21492113.915    21492112.590
  23597610.741    -1239170.43343   -936376.55942  23597613.230    23597609.579
  23386961.933    -3469300.46643  -2686522.46242  23386963.700    23386964.040
  20099138.975   -19506609.81544 -15038437.90842  20099140.400    20099138.862
  21613389.521   -13615908.92943 -10586059.89342  21613391.393    21613390.186
  21584567.770   -15194258.14143 -11818975.67542  21584569.598    21584567.371
  21875261.368   -12732349.43043  -9867173.78642  21875262.915    21875261.141
 04  3 26  0  6 30.0000000  0  8G22G14G 9G31G15G 3G18G21
  20649739.728   -23178351.39044 -17999864.73442  20649740.325    20649735.832
  21476902.500   -11267404.97743  -8691372.14642  21476904.900    21476903.478
  23593432.289    -1261128.37243   -953486.58042  23593434.692    23593430.487
  23374443.264    -3535085.76843  -2737783.61042  23374445.102    23374445.521
  20096277.896   -19521644.83044 -15050153.47942  20096279.331    20096277.774
  21613259.938   -13616589.81943 -10586590.43742  21613261.827    21613260.591
  21595098.145   -15138920.84743 -11775855.71342  21595099.990    21595097.683
  21887733.257   -12666809.67143  -9816103.89142  21887734.752    21887733.041
 04  3 26  0  7  0.0000000  0  8G22G14G 9G31G15G 3G18G21
  20651376.193   -23169751.47944 -17993163.48042  20651376.790    20651372.324
  21461771.613   -11346917.82443  -8753330.10242  21461774.022    21461772.539
  23589356.107    -1282548.66043   -970177.63342  23589358.599    23589353.905
  23362012.783    -3600407.36643  -2788683.44242  23362014.609    23362015.179
  20093488.293   -19536304.49344 -15061576.57042  20093489.714    20093488.123
  21613238.375   -13616702.83643 -10586678.48042  21613240.275    21613239.080
  21605656.225   -15083438.23043 -11732622.50942  21605658.060    21605655.658
  21900265.573   -12600951.69343  -9764786.02942  21900267.095    21900265.524
 04  3 26  0  7 30.0000000  0  8G22G14G 9G31G15G 3G18G21
  20653058.928   -23160908.60644 -17986272.90342  20653059.506    20653055.037
  21446718.522   -11426021.89143  -8814969.52542  21446720.917    21446719.402
  23585381.769    -1303433.45543   -986451.42542  23585384.343    23585379.235
  23349670.239    -3665267.18343  -2839223.44342  23349672.061    23349672.502
  20090769.531   -19550591.51144 -15072709.29042  20090770.981    20090769.359
  21613324.066   -13616252.52843 -10586327.57542  21613325.954    21613324.756
  21616240.911   -15027815.45943 -11689280.10642  21616242.774    21616240.332
  21912857.707   -12534779.81443  -9713223.57342  21912859.227    21912857.711
 04  3 26  0  8  0.0000000  0  8G22G14G 9G31G15G 3G18G21
  20654787.463   -23151824.58744 -17979194.42042  20654788.089    20654783.634
  21431743.370   -11504716.18343  -8876289.64542  21431745.756    21431744.253
  23581509.614    -1323781.85843  -1002307.26242  23581512.072    23581506.602
  23337415.865    -3729664.07943  -2889402.70942  23337417.821    23337418.242
  20088121.785   -19564505.52344 -15083551.36242  20088123.241    20088121.623
  21613516.644   -13615240.10543 -10585538.65242  21613518.575    21613517.416
  21626851.953   -14972054.32743 -11645829.89142  21626853.786    21626851.352
  21925509.357   -12468295.47343  -9661417.64642  21925510.847    21925509.373
 04  3 26  0  8 30.0000000  0  8G22G14G 9G31G15G 3G18G21
  20656563.211   -23142492.91844 -17971922.96542  20656563.804    20656559.413
  21416848.014   -11582991.22243  -8937283.07142  21416850.370    21416848.846
  23577741.240    -1343584.77843  -1017738.06042  23577743.482    23577738.072
  23325250.809    -3793588.54443  -2939213.85042  23325253.021    23325253.735
  20085546.706   -19578037.52444 -15094095.76142  20085548.152    20085546.570
  21613817.574   -13613658.48643 -10584306.20142  21613819.491    21613818.356
  21637490.603   -14916148.21643 -11602266.69442  21637492.423    21637489.948
  21938221.808   -12401491.44543  -9609362.60242  21938223.335    21938221.799
 04  3 26  0  9  0.0000000  0  8G22G14G 9G31G15G 3G18G21
  20658384.082   -23132924.21344 -17964466.80842  20658384.660    20658380.247
  21402030.950   -11660854.63343  -8997955.75242  21402033.316    21402031.777
  23574075.232    -1362849.80943  -1032749.74542  23574076.229    23574069.127
  23313174.680    -3857047.86143  -2988662.54342  23313176.832    23313177.740
  20083042.869   -19591195.21744 -15104348.49542  20083044.300    20083042.725
  21614225.046   -13611517.22343 -10582637.66842  21614226.908    21614225.767
  21648154.793   -14860107.76443 -11558598.82242  21648156.627    21648154.124
  21950993.251   -12334377.28943  -9557065.91042  21950994.816    21950993.270
 04  3 26  0  9 30.0000000  0  8G22G14G 9G31G15G 3G18G21
  20660250.941   -23123113.50144 -17956822.07642  20660251.538    20660247.138
  21387293.817   -11738298.54943  -9058301.55442  21387296.093    21387294.531
  23570512.937    -1381569.79543  -1047336.70742  23570514.897    23570509.605
  23301188.849    -3920034.30543  -3037742.77942  23301190.840    23301191.892
  20080611.552   -19603971.79944 -15114304.26242  20080612.991    20080611.410
  21614740.016   -13608810.89643 -10580528.82042  21614741.867    21614740.723
  21658845.443   -14803928.19843 -11514822.55142  21658847.275    21658844.748
  21963824.708   -12266947.76043  -9504523.47042  21963826.295    21963824.745
 04  3 26  0 10  0.0000000  0  8G22G14G 9G31G15G 3G18G21
  20662163.462   -23113063.09344 -17948990.57042  20662164.027    20662159.628
  21372636.638   -11815322.12843  -9118319.82542  21372638.906    21372637.351
  23567054.563    -1399744.11143  -1061498.51242  23567056.829    23567052.794
  23289293.098    -3982547.56543  -3086454.26742  23289295.090    23289295.685
  20078252.817   -19616367.00444 -15123962.85042  20078254.241    20078252.669
  21615362.279   -13605540.86043 -10577980.71742  21615364.125    21615362.909
  21669562.172   -14747611.45243 -11470939.39242  21669563.992    21669561.505
  21976715.945   -12199204.29243  -9451736.39842  21976717.497    21976715.943
 04  3 26  0 10 30.0000000  0  8G22G14G 9G31G15G 3G18G21
  20664120.939   -23102776.38144 -17940974.92742  20664121.507    20664117.105
  21358059.340   -11891926.02843  -9178011.08042  21358061.564    21358060.074
  23563699.778    -1417373.56543  -1075235.65342  23563702.021    23563698.327
  23277487.355    -4044587.31243  -3134796.81442  23277489.372    23277489.465
  20075966.428   -19628382.18744 -15133325.31742  20075967.844    20075966.244
  21616091.126   -13601710.36343 -10574995.89442  21616093.013    21616091.769
  21680304.343   -14691161.06443 -11426952.10742  21680306.171    21680303.692
  21989666.213   -12131150.12743  -9398707.22742  21989667.799    21989666.275
 04  3 26  0 11  0.0000000  0  8G22G14G 9G31G15G 3G18G21
  20666124.386   -23092247.91444 -17932770.91242  20666124.953    20666120.605
  21343563.444   -11968102.06243  -9237368.92842  21343565.689    21343564.210
  23560450.214    -1434450.23543  -1088542.09942  23560452.299    23560449.675
  23265773.027    -4106146.04843  -3182764.55942  23265775.084    23265775.025
  20073753.849   -19640009.31944 -15142385.40742  20073755.254    20073753.678
  21616927.782   -13597313.24943 -10571569.54642  21616929.668    21616928.507
  21691072.965   -14634571.76243 -11382856.57942  21691074.787    21691072.265
  22002676.929   -12062778.80543  -9345430.92142  22002678.452    22002676.930
 04  3 26  0 11 30.0000000  0  8G22G14G 9G31G15G 3G18G21
  20668172.411   -23081485.28844 -17924384.43442  20668172.951    20668168.643
  21329148.100   -12043854.65143  -9296396.82842  21329150.341    21329148.876
  23557304.815    -1450979.02643  -1101421.59842  23557307.111    23557305.059
  23254149.317    -4167227.77543  -3230360.56042  23254151.323    23254151.432
  20071614.090   -19651253.72444 -15151147.27142  20071615.509    20071613.937
  21617870.980   -13592356.50543 -10567707.12342  21617872.847    21617871.724
  21701866.628   -14577850.88143 -11338658.51842  21701868.417    21701865.895
  22015746.472   -11994097.76243  -9291913.27742  22015747.992    22015746.565
 04  3 26  0 12  0.0000000  0  8G22G14G 9G31G15G 3G18G21
  20670265.470   -23070486.26444 -17915813.75142  20670265.989    20670261.671
  21314814.258   -12119178.83243  -9355090.90442  21314816.525    21314815.038
  23554264.530    -1466955.42443  -1113870.65942  23554266.936    23554265.462
  23242617.593    -4227827.71043  -3277581.16242  23242619.429    23242619.754
  20069548.066   -19662110.75044 -15159607.27942  20069549.496    20069547.888
  21618921.191   -13586837.53943 -10563406.60642  21618923.045    21618922.009
  21712685.756   -14520995.90943 -11294355.96042  21712687.589    21712685.053
  22028875.572   -11925103.92443  -9238151.88942  22028877.102    22028875.685
 04  3 26  0 12 30.0000000  0  8G22G14G 9G31G15G 3G18G21
  20672402.988   -23059253.37844 -17907060.84642  20672403.488    20672399.167
  21300562.020   -12194074.42243  -9413451.01642  21300564.275    21300562.748
  23551329.232    -1482379.45043  -1125889.32942  23551331.692    23551330.836
  23231177.539    -4287945.37843  -3324425.96342  23231179.359    23231180.019
  20067555.658   -19672580.85744 -15167765.79442  20067557.078    20067555.453
  21620078.040   -13580758.35143 -10558669.55342  21620079.858    21620078.787
  21723529.934   -14464009.58743 -11249951.05242  21723531.751    21723529.236
  22042063.911   -11855799.19843  -9184148.25942  22042065.378    22042063.953
 04  3 26  0 13  0.0000000  0  8G22G14G 9G31G15G 3G18G21
  20674585.303   -23047785.21844 -17898124.60942  20674585.817    20674581.448
  21286392.164   -12268536.88843  -9471473.62642  21286394.431    21286392.895
  23548499.792    -1497247.30443  -1137474.58242  23548502.276    23548502.036
  23219830.211    -4347576.34343  -3370891.52942  23219832.027    23219832.691
  20065637.652   -19682660.05044 -15175619.69842  20065639.057    20065637.436
  21621341.832   -13574116.99443 -10553494.44642  21621343.626    21621342.538
  21734399.298   -14406890.53643 -11205442.71242  21734401.162    21734398.665
  22055311.751   -11786181.67943  -9129900.89242  22055313.246    22055311.766
 04  3 26  0 13 30.0000000  0  8G22G14G 9G31G15G 3G18G21
  20676811.556   -23036086.12044 -17889008.41742  20676812.076    20676807.654
  21272304.435   -12342567.96543  -9529160.08942  21272306.663    21272305.140
  23545775.930    -1511560.77443  -1148627.86642  23545778.410    23545778.702
  23208575.176    -4406722.22543  -3416979.11842  23208577.060    23208577.507
  20063793.623   -19692350.26644 -15183170.50542  20063795.020    20063793.437
  21622711.798   -13566917.57543 -10547884.48842  21622713.585    21622712.470
  21745293.126   -14349643.14043 -11160834.36942  21745295.018    21745292.496
  22068618.370   -11716255.18143  -9075412.76042  22068619.927    22068618.381
 04  3 26  0 14  0.0000000  0  8G22G14G 9G31G15G 3G18G21
  20679082.128   -23024154.21144 -17879710.81542  20679082.634    20679078.152
  21258299.655   -12416163.09043  -9586506.85742  21258301.843    21258300.365
  23543158.209    -1525315.56443  -1159345.80542  23543160.812    23543161.297
  23197413.063    -4465378.24743  -3462685.01542  23197415.124    23197415.319
  20062024.451   -19701647.42744 -15190415.04242  20062025.817    20062024.213
  21624188.431   -13559157.68843 -10541837.81042  21624190.196    21624189.011
  21756211.736   -14292265.22343 -11116124.32842  21756213.661    21756211.141
  22081984.213   -11646017.25143  -9020681.95442  22081985.779    22081984.203
 04  3 26  0 14 30.0000000  0  8G22G14G 9G31G15G 3G18G21
  20681396.703   -23011990.78544 -17870232.80942  20681397.236    20681392.727
  21244378.140   -12489320.70143  -9643512.69942  21244380.317    21244378.859
  23540647.175    -1538510.82243  -1169627.75942  23540649.660    23540650.264
  23186344.539    -4523543.20343  -3508008.25142  23186346.575    23186346.626
  20060330.180   -19710550.71244 -15197352.65742  20060331.556    20060329.995
  21625771.587   -13550838.27143 -10535355.13242  21625773.326    21625772.096
  21767154.956   -14234758.29043 -11071313.74642  21767156.855    21767154.364
  22095409.183   -11575468.90543  -8965709.26842  22095410.746    22095409.075
 04  3 26  0 15  0.0000000  0  8G22G14G 9G31G15G 3G18G21
  20683754.777   -22999599.02444 -17860576.88242  20683755.293    20683750.770
  21230539.839   -12562041.13643  -9700177.88442  21230542.049    21230540.544
  23538242.554    -1551147.22543  -1179474.26042  23538244.991    23538245.599
  23175369.435    -4581217.07343  -3552948.85342  23175371.342    23175371.253
  20058710.811   -19719060.62244 -15203983.74442  20058712.186    20058710.640
  21627460.727   -13541961.74943 -10528438.35842  21627462.480    21627461.201
  21778122.219   -14177124.89943 -11026404.62542  21778124.117    21778121.637
  22108892.759   -11504612.39143  -8910496.46442  22108894.327    22108892.598
 04  3 26  0 15 30.0000000  0  8G22G14G 9G31G15G 3G18G21
  20686156.849   -22986975.99444 -17850740.74942  20686157.340    20686152.823
  21216785.820   -12634318.71643  -9756497.99142  21216788.072    21216786.493
  23535945.176    -1563219.63243  -1188881.25742  23535947.586    23535948.290
  23164488.846    -4638394.39743  -3597502.54642  23164490.755    23164490.540
  20057167.194   -19727172.32044 -15210304.53742  20057168.574    20057166.987
  21629256.358   -13532525.62343 -10521085.53142  21629258.106    21629256.844
  21789114.067   -14119362.47243 -10981394.93842  21789115.938    21789113.448
  22122435.616   -11433444.48643  -8855041.02142  22122437.101    22122435.371
 04  3 26  0 16  0.0000000  0  8G22G14G 9G31G15G 3G18G21
  20688601.955   -22974126.89944 -17840728.45942  20688602.450    20688597.917
  21203115.587   -12706155.99743  -9812475.01142  21203117.863    21203116.257
  23533754.569    -1574730.72843  -1197850.88042  23533756.933    23533757.848
  23153702.326    -4695077.76343  -3641671.32842  23153704.188    23153704.170
  20055698.727   -19734888.92644 -15216317.47042  20055700.130    20055698.531
  21631157.566   -13522534.42243 -10513300.17442  21631159.308    21631158.096
  21800129.456   -14061476.25443 -10936288.78742  21800131.377    21800128.809
  22136036.749   -11361970.06043  -8799346.71342  22136038.196    22136036.509
 04  3 26  0 16 30.0000000  0  8G22G14G 9G31G15G 3G18G21
  20691089.997   -22961051.96844 -17830540.19342  20691090.504    20691085.923
  21189529.584   -12777550.83343  -9868107.26542  21189531.825    21189530.224
  23531671.363    -1585678.75143  -1206381.75242  23531673.645    23531674.485
  23143010.228    -4751264.66743  -3685453.27542  23143012.176    23143012.264
  20054305.828   -19742208.55444 -15222021.06642  20054307.203    20054305.669
  21633164.417   -13511988.08243 -10505082.24842  21633166.157    21633164.965
  21811168.406   -14003466.42543 -10891086.32142  21811170.328    21811167.688
  22149696.218   -11290188.85243  -8743413.35542  22149697.636    22149696.001
 04  3 26  0 17  0.0000000  0  8G22G14G 9G31G15G 3G18G21
  20693621.468   -22947748.85644 -17820174.11842  20693621.973    20693617.376
  21176028.782   -12848497.60843  -9923390.38242  21176031.044    21176029.448
  23529695.999    -1596058.94943  -1214470.18142  23529698.298    23529699.264
  23132413.581    -4806949.60543  -3728844.09042  23132415.450    23132415.871
  20052989.463   -19749126.14344 -15227411.38842  20052990.829    20052989.266
  21635277.429   -13500883.91443 -10496429.65342  21635279.167    21635277.978
  21822231.344   -13945330.26443 -10845785.42442  21822233.280    21822230.629
  22163414.697   -11218097.82643  -8687238.58642  22163416.050    22163414.446
 04  3 26  0 17 30.0000000  0  8G22G14G 9G31G15G 3G18G21
  20696195.836   -22934220.30644 -17809632.37742  20696196.372    20696191.763
  21162613.186   -12918996.72843  -9978324.67342  21162615.484    21162613.840
  23527828.294    -1605871.77943  -1222116.50142  23527830.642    23527832.063
  23121912.554    -4862132.90143  -3771844.00642  23121914.433    23121914.800
  20051749.420   -19755642.21344 -15232488.83742  20051750.807    20051749.287
  21637496.149   -13489224.52643 -10487344.42242  21637497.815    21637496.621
  21833317.823   -13887070.67343 -10800388.35242  21833319.766    21833317.085
  22177191.631   -11145699.34443  -8630824.24242  22177192.950    22177191.427
 04  3 26  0 18  0.0000000  0  8G22G14G 9G31G15G 3G18G21
  20698812.660   -22920468.71344 -17798916.83842  20698813.201    20698808.595
  21149282.863   -12989047.87843 -10032909.89442  21149285.176    21149283.456
  23526068.791    -1615117.52743  -1229320.89942  23526071.028    23526072.773
  23111506.879    -4916814.34643  -3814452.87842  23111508.842    23111509.094
  20050585.851   -19761756.99844 -15237253.59942  20050587.174    20050585.681
  21639820.053   -13477012.23543 -10477828.35442  21639821.702    21639820.501
  21844427.324   -13828689.77343 -10754896.75542  21844429.295    21844426.643
  22191026.789   -11072995.34543  -8574171.82642  22191028.038    22191026.568
 04  3 26  0 18 30.0000000  0  8G22G14G 9G31G15G 3G18G21
  20701471.727   -22906495.21244 -17788028.38042  20701472.269    20701467.640
  21136038.063   -13058649.32743 -10087144.70542  21136040.406    21136038.647
  23524417.222    -1623795.24843  -1236082.71542  23524419.397    23524421.367
  23101197.223    -4970992.10743  -3856669.27042  23101199.110    23101199.327
  20049498.775   -19767469.29444 -15241704.72142  20049500.114    20049498.648
  21642249.051   -13464247.72643 -10467881.98942  21642250.672    21642249.513
  21855559.702   -13770188.69143 -10709311.50642  21855561.682    21855559.097
  22204919.930   -10999986.64143  -8517281.99042  22204921.137    22204919.765
 04  3 26  0 19  0.0000000  0  8G22G14G 9G31G15G 3G18G21
  20704173.243   -22892298.46344 -17776965.96842  20704173.795    20704169.187
  21122879.548   -13127797.59043 -10141026.38642  21122881.876    21122880.058
  23522874.383    -1631901.53643  -1242399.23942  23522876.455    23522878.772
  23090984.135    -5024662.66543  -3898490.45542  23090985.936    23090985.974
  20048488.932   -19772775.83044 -15245839.67242  20048490.240    20048488.810
  21644783.305   -13450929.95043 -10457504.50042  21644784.953    21644783.818
  21866715.216   -13711565.92043 -10663631.44442  21866717.138    21866714.675
  22218871.365   -10926671.75143  -8460153.56242  22218872.558    22218871.264
 04  3 26  0 19 30.0000000  0  8G22G14G 9G31G15G 3G18G21
  20706917.123   -22877879.40644 -17765730.32742  20706917.650    20706913.057
  21109807.626   -13196490.88344 -10194553.54942  21109809.939    21109808.076
  23521440.703    -1639434.99843  -1248269.42142  23521442.631    23521445.401
  23080867.765    -5077824.09343  -3939914.90042  23080869.565    23080869.646
  20047556.570   -19777675.28044 -15249657.41242  20047557.877    20047556.456
  21647422.755   -13437059.51343 -10446696.37242  21647424.401    21647423.276
  21877893.738   -13652822.31643 -10617857.21542  21877895.612    21877893.254
  22232880.917   -10853051.12143  -8402786.89742  22232882.156    22232880.965
 04  3 26  0 20  0.0000000  0  8G22G14G 9G31G15G 3G18G21
  20709702.827   -22863240.19644 -17754323.14542  20709703.358    20709698.807
  21096822.305   -13264728.83144 -10247725.89242  21096824.655    21096822.773
  23520115.942    -1646395.95243  -1253693.49642  23520117.863    23520120.826
  23070848.416    -5130476.07643  -3980942.37342  23070850.175    23070850.385
  20046701.642   -19782167.86344 -15253158.11942  20046702.947    20046701.484
  21650166.941   -13422638.74343 -10435459.40542  21650168.554    21650167.444
  21889094.844   -13593960.07743 -10571990.55342  21889096.691    21889094.405
  22246948.448   -10779126.21643  -8345183.13642  22246949.695    22246948.488
 04  3 26  0 20 30.0000000  0  8G22G14G 9G31G15G 3G18G21
  20712529.964   -22848383.38644 -17742746.40342  20712530.480    20712525.908
  21083923.692   -13332511.34544 -10300543.35042  21083926.049    21083924.108
  23518900.459    -1652784.79243  -1258671.75542  23518902.267    23518904.955
  23060926.098    -5182618.45543  -4021572.73442  23060927.850    23060928.129
  20045924.152   -19786253.73444 -15256341.90942  20045925.466    20045923.903
  21653015.434   -13407669.58443 -10423795.12842  21653017.097    21653015.943
  21900318.074   -13534981.41943 -10526033.17542  21900319.950    21900317.650
  22261073.377   -10704899.49643  -8287344.19942  22261074.649    22261073.393
 04  3 26  0 21  0.0000000  0  8G22G14G 9G31G15G 3G18G21
  20715399.148   -22833305.80844 -17730997.63042  20715399.667    20715395.077
  21071112.746   -13399832.77344 -10353001.53242  21071115.139    21071113.188
  23517794.488    -1658596.72243  -1263200.50342  23517796.414    23517799.029
  23051101.769    -5234245.70043  -4061801.70242  23051103.593    23051103.864
  20045225.025   -19789927.57944 -15259204.63542  20045226.350    20045224.780
  21655968.934   -13392149.16043 -10411701.29142  21655970.561    21655969.329
  21911564.037   -13475883.48743 -10479982.85542  21911565.938    21911563.540
  22275256.408   -10630367.36043  -8229267.26342  22275257.705    22275256.435
 04  3 26  0 21 30.0000000  0  8G22G14G 9G31G15G 3G18G21
  20718309.088   -22818013.83444 -17719081.80342  20718309.597    20718305.081
  21058388.890   -13466696.85044 -10405103.33342  21058391.228    21058389.302
  23516797.497    -1663835.84843  -1267282.89942  23516799.582    23516801.952
  23041374.749    -5285361.51443  -4101632.15342  23041376.675    23041376.923
  20044603.551   -19793193.49644 -15261749.50242  20044604.889    20044603.268
  21659026.078   -13376083.76843 -10399182.80442  21659027.739    21659026.450
  21922831.685   -13416672.16643 -10433844.17942  21922833.535    21922831.002
  22289496.380   -10555535.75343  -8170956.98242  22289497.713    22289496.438
 04  3 26  0 22  0.0000000  0  8G22G14G 9G31G15G 3G18G21
  20721261.284   -22802500.13644 -17706993.19942  20721261.801    20721257.222
  21045753.918   -13533093.79144 -10456841.13342  21045756.235    21045754.300
  23515911.287    -1668492.93443  -1270911.76442  23515913.365    23515915.659
  23031746.794    -5335956.04343  -4141056.40042  23031748.707    23031749.049
  20044061.446   -19796042.26944 -15263969.31442  20044062.805    20044061.134
  21662188.258   -13359466.22743 -10386234.06742  21662189.962    21662188.708
  21934122.240   -13357340.17443 -10387611.47442  21934124.069    21934121.437
  22303794.858   -10480397.12243  -8112407.47142  22303796.194    22303794.845
 04  3 26  0 22 30.0000000  0  8G22G14G 9G31G15G 3G18G21
  20724253.882   -22786774.19544 -17694739.21842  20724254.356    20724249.754
  21033206.497   -13599030.73044 -10508220.49342  21033208.799    21033206.845
  23515134.339    -1672575.62643  -1274093.05142  23515136.339    23515138.560
  23022216.762    -5386036.45743  -4180080.03842  23022218.730    23022218.914
  20043597.316   -19798481.30844 -15265869.85642  20043598.673    20043596.997
  21665453.716   -13342306.15743 -10372862.58142  21665455.404    21665454.167
  21945433.951   -13297896.63343 -10341291.85242  21945435.817    21945433.113
  22318149.900   -10404960.86243  -8053626.03442  22318151.299    22318149.885
 04  3 26  0 23  0.0000000  0  8G22G14G 9G31G15G 3G18G21
  20727287.703   -22770831.44044 -17682316.29042  20727288.192    20727283.577
  21020747.981   -13664500.62244 -10559235.91942  21020750.257    21020748.269
  23514468.221    -1676077.31443  -1276821.58242  23514469.978    23514472.063
  23012785.959    -5435595.62443  -4218697.51842  23012787.843    23012787.990
  20043212.451   -19800503.77844 -15267445.80342  20043213.849    20043212.112
  21668823.259   -13324599.03643 -10359064.82442  21668824.939    21668823.776
  21956767.773   -13238336.87843 -10294881.67542  21956769.648    21956766.942
  22332562.603   -10329221.97843  -7994608.78442  22332563.961    22332562.548
 04  3 26  0 23 30.0000000  0  8G22G14G 9G31G15G 3G18G21
  20730362.062   -22754675.77744 -17669727.45742  20730362.546    20730357.912
  21008377.972   -13729505.02944 -10609888.63342  21008380.277    21008378.265
  23513911.776    -1679000.23543  -1279099.15542  23513913.451    23513915.654
  23003453.937    -5484635.00043  -4256909.95042  23003455.827    23003455.997
  20042906.549   -19802111.63944 -15268698.68442  20042907.952    20042906.129
  21672296.143   -13306348.82143 -10344843.87942  21672297.793    21672296.683
  21968123.013   -13178664.77643 -10248383.94142  21968124.898    21968122.126
  22347032.176   -10253183.87143  -7935358.36542  22347033.553    22347032.175
 04  3 26  0 24  0.0000000  0  8G22G14G 9G31G15G 3G18G21
  20733477.709   -22738302.81144 -17656969.29842  20733478.229    20733473.599
  20996097.893   -13794037.08044 -10660173.27742  20996100.178    20996098.136
  23513466.699    -1681338.27043  -1280920.95942  23513468.195    23513470.420
  22994222.029    -5533147.95643  -4294712.20042  22994223.981    22994224.191
  20042680.731   -19803298.42544 -15269623.45342  20042682.192    20042680.248
  21675873.246   -13287551.20643 -10330196.39942  21675874.851    21675873.692
  21979500.414   -13118876.10943 -10201795.38842  21979502.316    21979499.467
  22361559.690   -10176842.09343  -7875871.32742  22361560.998    22361559.557
 04  3 26  0 24 30.0000000  0  8G22G14G 9G31G15G 3G18G21
  20736632.657   -22721723.51344 -17644050.35642  20736633.190    20736628.538
  20983906.078   -13858105.28844 -10710096.48942  20983908.328    20983906.275
  23513131.396    -1683100.40143  -1282294.02142  23513132.809    23513134.879
  22985088.903    -5581142.91943  -4332110.80642  22985090.763    22985091.000
  20042533.362   -19804073.00444 -15270227.02142  20042534.855    20042532.836
  21679552.373   -13268217.32843 -10315131.03942  21679553.970    21679552.764
  21990898.041   -13058981.09243 -10155123.97642  21990899.888    21990897.054
  22376142.856   -10100207.15543  -7816155.86142  22376144.226    22376142.758
 04  3 26  0 25  0.0000000  0  8G22G14G 9G31G15G 3G18G21
  20739828.204   -22704930.95444 -17630965.23442  20739828.739    20739824.070
  20971804.286   -13921700.48344 -10759651.12042  20971806.498    20971804.420
  23512907.246    -1684277.83743  -1283211.47342  23512908.625    23512910.595
  22976056.020    -5628610.51343  -4369098.47442  22976057.927    22976058.229
  20042466.125   -19804426.33744 -15270502.34742  20042467.647    20042465.595
  21683334.857   -13248340.48343 -10299642.60042  21683336.435    21683335.170
  22002317.169   -12998972.79443 -10108364.28442  22002319.038    22002316.192
  22390783.155   -10023272.04243  -7756206.48742  22390784.564    22390783.079
 04  3 26  0 25 30.0000000  0  8G22G14G 9G31G15G 3G18G21
  20743064.103   -22687926.35644 -17617714.88742  20743064.647    20743059.964
  20959792.732   -13984821.43744 -10808836.21442  20959794.933    20959792.867
  23512794.394    -1684870.16543  -1283673.00942  23512795.756    23512797.875
  22967123.742    -5675549.73543  -4405674.42142  22967125.701    22967125.914
  20042479.139   -19804357.91444 -15270449.03142  20042480.667    20042478.618
  21687220.322   -13227922.11143 -10283732.18442  21687221.936    21687220.640
  22013757.593   -12938853.00743 -10061517.71142  22013759.453    22013756.614
  22405480.507    -9946037.68843  -7696023.94642  22405481.888    22405480.360
 04  3 26  0 26  0.0000000  0  8G22G14G 9G31G15G 3G18G21
  20746339.435   -22670714.38744 -17604302.95042  20746340.015    20746335.345
  20947870.926   -14047470.55344 -10857653.64742  20947873.145    20947871.091
  23512792.349    -1684880.29643  -1283680.88542  23512793.695    23512795.660
  22958291.547    -5721962.87943  -4441840.44842  22958293.524    22958293.653
  20042572.027   -19803870.08844 -15270068.90942  20042573.508    20042571.451
  21691207.957   -13206966.95343 -10267403.50142  21691209.567    21691208.270
  22025218.442   -12878625.49943 -10014587.20742  22025220.366    22025217.571
  22420233.733    -9868508.54643  -7635611.68942  22420235.187    22420233.765
 04  3 26  0 26 30.0000000  0  8G22G14G 9G31G15G 3G18G21
  20749654.557   -22653293.47544 -17590728.20542  20749655.102    20749650.476
  20936039.677   -14109643.92544 -10906100.37242  20936041.866    20936039.866
  23512901.781    -1684305.08743  -1283232.64042  23512903.250    23512904.596
  22949560.350    -5767846.01543  -4477593.48442  22949562.218    22949562.286
  20042745.414   -19802959.14444 -15269359.08142  20042746.906    20042744.811
  21695297.946   -13185473.89243 -10250655.66742  21695299.559    21695298.318
  22036700.031   -12818288.92143  -9967571.71342  22036701.915    22036699.304
  22435043.527    -9790682.99343  -7574968.47742  22435044.949    22435043.582
 04  3 26  0 27  0.0000000  0  8G22G14G 9G31G15G 3G18G21
  20753009.312   -22635664.19044 -17576991.09042  20753009.881    20753005.255
  20924299.216   -14171339.98544 -10954175.16742  20924301.414    20924299.453
  23513122.937    -1683143.59443  -1282327.56942  23513124.505    23513125.442
  22940930.219    -5813197.70943  -4512932.41742  22940932.098    22940931.929
  20042999.538   -19801623.76244 -15268318.52042  20043001.040    20042998.939
  21699490.167   -13163443.87343 -10233489.42442  21699491.752    21699490.548
  22048202.321   -12757843.66843  -9920471.53142  22048204.197    22048201.788
  22449909.591    -9712561.29543  -7514094.48742  22449911.051    22449909.770
 04  3 26  0 27 30.0000000  0  8G22G14G 9G31G15G 3G18G21
  20756403.306   -22617828.82744 -17563093.39342  20756403.866    20756399.231
  20912649.619   -14232558.92744 -11001878.17942  20912651.778    20912649.807
  23513455.350    -1681396.51543  -1280966.14842  23513456.943    23513457.655
  22932401.166    -5858018.03143  -4547857.27742  22932403.062    22932402.954
  20043334.345   -19799864.43144 -15266947.61042  20043335.862    20043333.731
  21703784.111   -13140879.39943 -10215906.72542  21703785.656    21703784.425
  22059724.910   -12697292.27143  -9873288.65042  22059726.726    22059724.390
  22464831.854    -9634145.40843  -7452991.27242  22464833.225    22464831.884
 04  3 26  0 28  0.0000000  0  8G22G14G 9G31G15G 3G18G21
  20759836.388   -22599787.73344 -17549035.38642  20759836.968    20759832.288
  20901091.145   -14293298.63344 -11049207.76542  20901093.333    20901091.341
  23513899.741    -1679062.50443  -1279147.41342  23513901.425    23513901.411
  22923973.555    -5902305.04143  -4582366.56842  22923975.517    22923975.354
  20043750.124   -19797679.48044 -15265245.04442  20043751.665    20043749.503
  21708179.670   -13117780.98543 -10197907.97542  21708181.177    21708179.925
  22071267.839   -12636634.41543  -9826022.80742  22071269.632    22071267.201
  22479809.841    -9555435.69143  -7391659.09542  22479811.325    22479809.992
 04  3 26  0 28 30.0000000  0  8G22G14G 9G31G15G 3G18G21
  20763308.907   -22581539.48344 -17534815.95942  20763309.461    20763304.771
  20889624.581   -14353555.23343 -11096160.90642  20889626.808    20889624.793
  23514456.331    -1676138.54943  -1276869.00042  23514458.067    23514457.230
  22915648.244    -5946054.79943  -4616457.23642  22915650.193    22915650.036
  20044247.557   -19795065.32144 -15263208.03142  20044249.086    20044246.980
  21712676.940   -13094147.54543 -10179492.31342  21712678.470    21712677.233
  22082831.236   -12575868.38543  -9778672.67942  22082833.091    22082830.611
  22494844.029    -9476430.65643  -7330096.79142  22494845.550    22494844.273
 04  3 26  0 29  0.0000000  0  8G22G14G 9G31G15G 3G18G21
  20766819.618   -22563090.70744 -17520440.27442  20766820.189    20766815.431
  20878249.132   -14413333.36143 -11142741.21342  20878251.317    20878249.308
  23515124.062    -1672629.96143  -1274134.99742  23515126.098    23515124.497
  22907424.362    -5989272.01043  -4650132.95642  22907426.281    22907425.933
  20044825.763   -19792026.77944 -15260840.32842  20044827.285    20044825.203
  21717274.708   -13069986.06343 -10160665.19042  21717276.272    21717275.029
  22094414.100   -12515000.51043  -9731243.19142  22094415.936    22094413.369
  22509933.252    -9397136.69043  -7268309.35642  22509934.725    22509933.549
 04  3 26  0 29 30.0000000  0  8G22G14G 9G31G15G 3G18G21
  20770369.585   -22544435.41344 -17505903.67642  20770370.143    20770365.421
  20866966.223   -14472624.94043 -11188942.39442  20866968.369    20866966.424
  23515904.478    -1668529.18243  -1270939.56142  23515906.572    23515904.379
  22899303.301    -6031948.50443  -4683387.30042  22899305.261    22899304.886
  20045486.257   -19788555.91644 -15258135.75342  20045487.719    20045485.709
  21721973.973   -13045291.08143 -10141422.35342  21721975.551    21721974.392
  22106017.515   -12454024.72843  -9683729.62942  22106019.370    22106016.627
  22525078.510    -9317547.71143  -7206292.03642  22525080.040    22525078.913
 04  3 26  0 30  0.0000000  0  8G22G14G 9G31G15G 3G18G21
  20773958.311   -22525576.46544 -17491208.37942  20773958.885    20773954.173
  20855775.775   -14531430.72143 -11234765.02742  20855777.901    20855775.992
  23516797.367    -1663837.67843  -1267283.82542  23516799.521    23516796.895
  22891284.968    -6074084.97443  -4716220.86142  22891286.965    22891286.564
  20046228.836   -19784653.74244 -15255095.09442  20046230.263    20046228.296
  21726774.093   -13020066.09943 -10121766.52542  21726775.698    21726774.594
  22117640.885   -12392943.74843  -9636134.08342  22117642.798    22117639.915
  22540279.452    -9237666.43343  -7144046.96242  22540280.959    22540279.864
 04  3 26  0 30 30.0000000  0  8G22G14G 9G31G15G 3G18G21
  20777584.872   -22506518.62344 -17476358.10142  20777585.436    20777580.792
  20844677.286   -14589753.32343 -11280211.15842  20844679.389    20844677.524
  23517801.868    -1658558.79443  -1263170.36942  23517804.057    23517801.222
  22883368.790    -6115684.30443  -4748635.87142  22883370.813    22883370.486
  20047052.841   -19780323.20444 -15251720.64142  20047054.270    20047052.386
  21731674.139   -12994316.25543 -10101701.71742  21731675.768    21731674.660
  22129283.406   -12331762.44143  -9588460.36142  22129285.323    22129282.364
  22555535.180    -9157497.68743  -7081577.88442  22555536.638    22555535.466
 04  3 26  0 31  0.0000000  0  8G22G14G 9G31G15G 3G18G21
  20781249.706   -22487259.89744 -17461351.28442  20781250.246    20781245.631
  20833671.584   -14647588.60743 -11325277.56242  20833673.637    20833671.772
  23518918.846    -1652689.20343  -1258596.63142  23518921.116    23518917.919
  22875555.765    -6156742.38643  -4780629.15142  22875557.773    22875557.209
  20047959.177   -19775560.33644 -15248009.30942  20047960.570    20047958.750
  21736674.401   -12968040.11243 -10081226.80942  21736676.014    21736674.880
  22140945.379   -12270478.87943  -9540706.96842  22140947.274    22140944.328
  22570845.899    -9077039.27843  -7018883.10842  22570847.404    22570846.230
 04  3 26  0 31 30.0000000  0  8G22G14G 9G31G15G 3G18G21
  20784952.686   -22467800.41644 -17446188.03942  20784953.241    20784948.635
  20822758.952   -14704934.56243 -11369962.67042  20822761.038    20822759.144
  23520148.416    -1646227.64843  -1253561.63942  23520150.598    23520147.057
  22867845.999    -6197257.09443  -4812198.99442  22867848.016    22867847.397
  20048948.065   -19770363.49744 -15243959.81342  20048949.434    20048947.664
  21741774.641   -12941238.23643 -10060342.23642  21741776.258    21741775.160
  22152626.885   -12209092.44043  -9492873.40942  22152628.809    22152625.892
  22586211.827    -8996291.34843  -6955962.72742  22586213.314    22586212.053
 04  3 26  0 32  0.0000000  0  8G22G14G 9G31G15G 3G18G21
  20788693.909   -22448139.80344 -17430868.06242  20788694.506    20788689.880
  20811939.868   -14761788.93043 -11414264.72342  20811941.974    20811940.053
  23521490.996    -1639172.51343  -1248064.11042  23521493.126    23521489.235
  22860240.051    -6237226.26543  -4843343.77842  22860242.048    22860241.449
  20050019.984   -19764730.51644 -15239570.47342  20050021.349    20050019.602
  21746974.928   -12913910.89943 -10039048.20942  21746976.526    21746975.419
  22164327.973   -12147603.02243  -9444959.60342  22164329.922    22164326.999
  22601632.746    -8915253.57643  -6892816.49342  22601634.315    22601633.162
 04  3 26  0 32 30.0000000  0  8G22G14G 9G31G15G 3G18G21
  20792472.573   -22428282.91244 -17415395.14642  20792473.109    20792468.494
  20801213.762   -14818154.64543 -11458186.01042  20801215.901    20801213.922
  23522945.930    -1631527.32943  -1242106.79742  23522948.057    23522944.429
  22852737.287    -6276652.78143  -4874065.68442  22852739.292    22852738.786
  20051174.277   -19758664.49344 -15234843.69042  20051175.641    20051173.981
  21752274.122   -12886063.57743 -10017349.00142  21752275.733    21752274.658
  22176047.758   -12086015.43443  -9396969.30842  22176049.703    22176046.794
  22617108.124    -8833930.57343  -6829448.00642  22617109.666    22617108.565
 04  3 26  0 33  0.0000000  0  8G22G14G 9G31G15G 3G18G21
  20796289.037   -22408227.07244 -17399767.20342  20796289.602    20796284.980
  20790581.617   -14874026.70743 -11501722.63442  20790583.734    20790581.741
  23524513.944    -1623287.89843  -1235686.44642  23524515.966    23524511.951
  22845338.892    -6315531.75143  -4904360.96042  22845340.804    22845340.397
  20052411.889   -19752160.74844 -15229775.82942  20052413.246    20052411.627
  21757672.708   -12857693.92243  -9995242.78142  21757674.319    21757673.258
  22187786.939   -12024325.98343  -9348899.63742  22187788.876    22187786.067
  22632638.279    -8752319.62243  -6765855.14842  22632639.823    22632638.790
 04  3 26  0 33 30.0000000  0  8G22G14G 9G31G15G 3G18G21
  20800142.523   -22387976.87544 -17383987.81842  20800143.057    20800138.448
  20780042.948   -14929407.78243 -11544876.66842  20780045.014    20780043.000
  23526194.203    -1614457.67943  -1228805.72942  23526196.271    23526192.242
  22838043.994    -6353865.93443  -4934231.70742  22838045.925    22838045.548
  20053732.207   -19745222.16744 -15224369.13542  20053733.560    20053732.024
  21763169.728   -12828807.48443  -9972733.87742  21763171.276    21763170.201
  22199544.572   -11962539.46843  -9300754.32442  22199546.550    22199543.764
  22648222.317    -8670425.10843  -6702041.31542  22648223.949    22648222.848
 04  3 26  0 34  0.0000000  0  8G22G14G 9G31G15G 3G18G21
  20804033.286   -22367530.38244 -17368055.47842  20804033.831    20804029.273
  20769598.461   -14984294.11843 -11587645.19042  20769600.504    20769598.417
  23527987.534    -1605033.69543  -1221462.34242  23527989.596    23527985.941
  22830853.459    -6391651.47943  -4963674.94542  22830855.369    22830855.081
  20055136.034   -19737844.79044 -15218620.52142  20055137.349    20055135.896
  21768765.257   -12799402.84743  -9949821.17842  21768766.830    21768765.719
  22211321.096   -11900653.66843  -9252531.65342  22211323.078    22211320.338
  22663860.658    -8588245.35343  -6638005.23542  22663862.294    22663861.138
 04  3 26  0 34 30.0000000  0  8G22G14G 9G31G15G 3G18G21
  20807961.908   -22346885.22144 -17351968.33242  20807962.438    20807957.891
  20759248.840   -15038681.54043 -11630024.94942  20759250.932    20759248.799
  23529894.448    -1595012.60743  -1213653.68042  23529896.563    23529892.885
  22823768.318    -6428884.21343  -4992687.42642  22823770.151    22823769.861
  20056624.118   -19730024.80644 -15212527.01542  20056625.423    20056623.983
  21774459.778   -12769478.32143  -9926503.37842  21774461.352    21774460.127
  22223116.900   -11838666.41443  -9204229.92242  22223118.891    22223116.202
  22679553.654    -8505778.03143  -6573745.06342  22679555.266    22679554.179
 04  3 26  0 35  0.0000000  0  8G22G14G 9G31G15G 3G18G21
  20811926.974   -22326048.47244 -17335731.89242  20811927.495    20811922.964
  20748993.160   -15092575.25843 -11672020.00342  20748995.287    20748993.124
  23531913.894    -1584400.31943  -1205384.32742  23531915.979    23531912.617
  22816787.445    -6465569.49543  -5021273.31942  22816789.279    22816788.715
  20058195.405   -19721767.61644 -15206092.83242  20058196.704    20058195.283
  21780251.654   -12739041.68343  -9902786.52342  21780253.271    21780252.036
  22234930.701   -11776584.53643  -9155854.46242  22234932.689    22234930.087
  22695299.877    -8423030.59143  -6509266.62442  22695301.453    22695300.549
 04  3 26  0 35 30.0000000  0  8G22G14G 9G31G15G 3G18G21
  20815928.945   -22305017.56844 -17319344.16642  20815929.478    20815924.977
  20738832.371   -15145970.44643 -11713626.59642  20738834.505    20738832.314
  23534046.398    -1573192.91943  -1196651.25342  23534048.508    23534045.745
  22809911.484    -6501702.60243  -5049428.95442  22809913.325    22809912.616
  20059850.762   -19713068.60144 -15199314.37142  20059852.079    20059850.686
  21786141.335   -12708090.97843  -9878669.10242  21786142.982    21786141.828
  22246763.117   -11714404.67643  -9107402.64542  22246765.086    22246762.578
  22711100.110    -8340000.10443  -6444567.62542  22711101.647    22711100.815
 04  3 26  0 36  0.0000000  0  8G22G14G 9G31G15G 3G18G21
  20819967.979   -22283792.16444 -17302804.88442  20819968.477    20819964.025
  20728766.794   -15198865.27043 -11754843.29542  20728768.935    20728766.715
  23536292.443    -1561389.44243  -1187453.69342  23536294.507    23536292.306
  22803140.958    -6537281.73743  -5077152.91442  22803142.822    22803141.982
  20061590.570   -19703925.79444 -15192190.10042  20061591.923    20061590.509
  21792128.798   -12676626.77243  -9854151.54942  21792130.454    21792129.328
  22258614.215   -11652126.97543  -9058874.59642  22258616.126    22258613.658
  22726954.217    -8256686.67443  -6379648.16242  22726955.685    22726954.998
 04  3 26  0 36 30.0000000  0  8G22G14G 9G31G15G 3G18G21
  20824043.043   -22262377.57944 -17286118.19242  20824043.519    20824039.054
  20718795.839   -15251263.08043 -11795672.71142  20718797.965    20718795.688
  23538651.126    -1548993.94543  -1177794.81242  23538653.164    23538651.619
  22796475.291    -6572310.17943  -5104447.75942  22796477.094    22796476.151
  20063414.173   -19694342.76444 -15184722.80442  20063415.526    20063414.092
  21798212.781   -12644655.26243  -9829238.70142  21798214.457    21798213.401
  22270483.039   -11589756.22143  -9010274.04542  22270484.944    22270482.433
  22742861.329    -8173095.41843  -6314512.20842  22742862.698    22742862.073
 04  3 26  0 37  0.0000000  0  8G22G14G 9G31G15G 3G18G21
  20828154.271   -22240772.51844 -17269283.08042  20828154.770    20828150.333
  20708920.057   -15303160.50643 -11836112.21542  20708922.203    20708919.866
  23541122.929    -1536003.97643  -1167672.71242  23541124.947    23541123.897
  22789915.006    -6606784.94843  -5131311.17542  22789916.775    22789915.701
  20065322.132   -19684316.47344 -15176910.11142  20065323.483    20065322.027
  21804393.400   -12612175.81543  -9803930.05642  21804395.095    21804394.022
  22282369.850   -11527291.05043  -8961599.91442  22282371.765    22282369.238
  22758821.450    -8089224.99643  -6249158.71942  22758822.852    22758822.249
 04  3 26  0 37 30.0000000  0  8G22G14G 9G31G15G 3G18G21
  20832302.755   -22218972.30544 -17252295.90342  20832303.193    20832298.768
  20699140.663   -15354551.51443 -11876157.11242  20699142.804    20699140.419
  23543708.901    -1522413.89643  -1157082.98142  23543710.883    23543710.343
  22783461.162    -6640699.74443  -5157738.23842  22783463.007    22783461.821
  20067315.610   -19673840.76044 -15168747.22242  20067316.952    20067315.471
  21810671.405   -12579184.78343  -9778222.78242  21810673.102    21810672.018
  22294275.562   -11464726.44543  -8912848.30742  22294277.501    22294275.010
  22774835.461    -8005071.05143  -6183584.29742  22774836.957    22774836.278
 04  3 26  0 38  0.0000000  0  8G22G14G 9G31G15G 3G18G21
  20836486.284   -22196987.60544 -17235164.96642  20836486.723    20836482.352
  20689455.915   -15405444.83543 -11915814.19642  20689458.092    20689455.685
  23546407.294    -1508233.43943  -1146033.23142  23546409.246    23546409.070
  22777112.253    -6674063.32443  -5183735.79842  22777114.105    22777112.857
  20069392.883   -19662924.70444 -15160241.20942  20069394.215    20069392.717
  21817044.603   -12545693.38143  -9752125.60542  21817046.334    21817045.196
  22306198.025   -11402073.07143  -8864027.52442  22306200.010    22306197.617
  22790901.494    -7920644.10543  -6117797.16042  22790902.975    22790902.196
 04  3 26  0 38 30.0000000  0  8G22G14G 9G31G15G 3G18G21
  20840705.862   -22174813.30944 -17217886.28742  20840706.339    20840701.966
  20679867.235   -15455833.64943 -11955078.16442  20679869.368    20679867.001
  23549219.201    -1493456.78143  -1134518.91042  23549221.086    23549221.407
  22770869.533    -6706869.06943  -5209298.67042  22770871.416    22770870.015
  20071555.208   -19651561.57044 -15151386.82242  20071556.560    20071555.056
  21823513.869   -12511697.28543  -9725635.17042  21823515.632    21823514.482
  22318138.446   -11339325.72343  -8815133.50542  22318140.410    22318138.081
  22807020.415    -7835939.18443  -6051793.41942  22807021.902    22807020.983
 04  3 26  0 39  0.0000000  0  8G22G14G 9G31G15G 3G18G21
  20844962.112   -22152446.61444 -17200457.69542  20844962.579    20844958.174
  20670375.401   -15505713.41843 -11993945.47442  20670377.539    20670375.168
  23552145.264    -1478080.22943  -1122537.15742  23552147.153    23552147.827
  22764733.718    -6739112.59043  -5234423.45142  22764735.662    22764734.193
  20073803.488   -19639746.85244 -15142180.55542  20073804.842    20073803.339
  21830079.481   -12477194.86143  -9698750.19142  21830081.236    21830080.143
  22330097.290   -11276481.30943  -8766163.86142  22330099.286    22330097.034
  22823192.608    -7750954.07143  -5985571.34942  22823194.146    22823193.136
 04  3 26  0 39 30.0000000  0  8G22G14G 9G31G15G 3G18G21
  20849253.189   -22129896.93344 -17182886.51642  20849253.606    20849249.226
  20660978.952   -15555091.91343 -12032422.17842  20660981.084    20660978.686
  23555183.609    -1462112.45543  -1110094.70342  23555185.496    23555186.436
  22758703.259    -6770801.87443  -5259116.36442  22758705.218    22758703.871
  20076136.161   -19627488.45044 -15132628.55742  20076137.524    20076136.036
  21836739.441   -12442196.69243  -9671478.92142  21836741.193    21836740.143
  22342073.026   -11213548.78143  -8717125.55342  22342074.998    22342072.786
  22839416.253    -7665698.42943  -5919138.47442  22839417.784    22839416.787
 04  3 26  0 40  0.0000000  0  8G22G14G 9G31G15G 3G18G21
  20853579.895   -22107159.96544 -17165169.39742  20853580.320    20853575.969
  20651679.017   -15603963.06643 -12070503.55342  20651681.156    20651678.697
  23558335.606    -1445548.29243  -1097187.54242  23558337.474    23558338.441
  22752779.713    -6801930.79743  -5283372.63442  22752781.633    22752780.271
  20078554.477   -19614780.22944 -15122726.05242  20078555.838    20078554.319
  21843494.371   -12406699.23443  -9643818.59142  21843496.151    21843495.133
  22354066.319   -11150523.63043  -8668015.08142  22354068.332    22354066.127
  22855692.179    -7580167.69843  -5852491.24642  22855693.725    22855692.823
 04  3 26  0 40 30.0000000  0  8G22G14G 9G31G15G 3G18G21
  20857942.389   -22084234.69444 -17147305.55142  20857942.818    20857938.491
  20642476.197   -15652324.23043 -12108187.53342  20642478.295    20642475.777
  23561601.199    -1428385.99343  -1083814.32342  23561603.012    23561604.423
  22746963.064    -6832496.65543  -5307190.14942  22746965.019    22746963.761
  20081058.881   -19601619.56944 -15112470.99642  20081060.248    20081058.726
  21850344.378   -12370702.25243  -9615769.03042  21850346.183    21850345.183
  22366077.469   -11087404.78843  -8618831.60142  22366079.470    22366077.288
  22872020.763    -7494360.95243  -5785628.93242  22872022.218    22872021.379
 04  3 26  0 41  0.0000000  0  8G22G14G 9G31G15G 3G18G21
  20862339.643   -22061127.21044 -17129299.71642  20862340.055    20862335.691
  20633369.490   -15700180.14543 -12145477.80942  20633371.604    20633369.041
  23564979.890    -1410630.96743  -1069979.22742  23564981.702    23564982.916
  22741252.885    -6862504.28143  -5330572.67642  22741254.773    22741253.542
  20083648.484   -19588011.39244 -15101867.23242  20083649.834    20083648.266
  21857288.057   -12334213.05543  -9587335.91842  21857289.868    21857288.852
  22378105.275   -11024198.29843  -8569579.83142  22378107.251    22378105.119
  22888400.507    -7408285.03043  -5718556.87942  22888401.948    22888401.161
 04  3 26  0 41 30.0000000  0  8G22G14G 9G31G15G 3G18G21
  20866772.038   -22037835.10644 -17111150.02142  20866772.487    20866768.039
  20624359.692   -15747526.78443 -12182371.25542  20624361.809    20624359.241
  23568471.729    -1392280.14343  -1055679.88042  23568473.571    23568474.716
  22735649.634    -6891949.79343  -5353517.21242  22735651.453    22735650.225
  20086323.878   -19573951.76344 -15090911.68342  20086325.247    20086323.728
  21864325.714   -12297230.17243  -9558518.12142  21864327.514    21864326.488
  22390150.263   -10960901.37043  -8520257.57642  22390152.226    22390150.187
  22904831.987    -7321937.37443  -5651273.08342  22904833.335    22904832.655
 04  3 26  0 42  0.0000000  0  8G22G14G 9G31G15G 3G18G21
  20871239.488   -22014358.70844 -17092856.72242  20871239.970    20871235.475
  20615447.124   -15794362.48643 -12218866.56342  20615449.250    20615446.687
  23572077.136    -1373332.83243  -1040915.72642  23572078.754    23572080.544
  22730153.632    -6920831.77643  -5376022.61642  22730155.456    22730154.132
  20089085.480   -19559439.36444 -15079603.32642  20089086.849    20089085.323
  21871457.044   -12259754.70743  -9529316.48942  21871458.834    21871457.876
  22402212.486   -10897513.83943  -8470864.72942  22402214.439    22402212.477
  22921315.076    -7235318.63543  -5583778.05042  22921316.372    22921315.809
 04  3 26  0 42 30.0000000  0  8G22G14G 9G31G15G 3G18G21
  20875741.618   -21990699.82044 -17074421.22442  20875742.125    20875737.621
  20606631.691   -15840687.90543 -12254964.25042  20606633.787    20606631.225
  23575795.885    -1353790.66643  -1025688.04842  23575797.552    23575799.027
  22724764.695    -6949150.75743  -5398089.33542  22724766.536    22724765.158
  20091933.170   -19544474.60544 -15067942.47942  20091934.518    20091933.015
  21878681.452   -12221789.90643  -9499733.55642  21878683.236    21878682.391
  22414291.618   -10834037.67443  -8421402.81542  22414293.517    22414291.615
  22937849.365    -7148430.54543  -5516073.13542  22937850.669    22937850.265
 04  3 26  0 43  0.0000000  0  8G22G14G 9G31G15G 3G18G21
  20880278.058   -21966860.49144 -17055845.11742  20880278.603    20880274.080
  20597913.192   -15886503.50343 -12290664.67742  20597915.317    20597912.749
  23579627.660    -1333654.83343  -1009997.82342  23579629.485    23579630.475
  22719482.846    -6976907.35743  -5419717.82042  22719484.675    22719483.224
  20094866.905   -19529057.81544 -15055929.40242  20094868.222    20094866.725
  21885998.319   -12183338.82843  -9469771.69842  21886000.115    21885999.440
  22426387.334   -10770474.41643  -8371873.03242  22426389.238    22426387.315
  22954434.543    -7061275.86443  -5448160.47142  22954435.767    22954435.466
 04  3 26  0 43 30.0000000  0  8G22G14G 9G31G15G 3G18G21
  20884849.557   -21942837.27944 -17037125.72042  20884850.087    20884845.568
  20589292.637   -15931804.34843 -12325963.99842  20589294.764    20589292.228
  23583572.932    -1312921.65243   -993842.09642  23583574.795    23583575.731
  22714308.941    -7004096.58543  -5440904.21242  22714310.781    22714309.239
  20097887.514   -19513184.45644 -15043560.54942  20097888.828    20097887.340
  21893408.299   -12144399.16643  -9439429.12942  21893410.019    21893409.478
  22438500.292   -10706820.63643  -8322272.71242  22438502.198    22438500.228
  22971070.897    -6973851.54443  -5380037.71242  22971072.137    22971071.986
 04  3 26  0 44  0.0000000  0  8G22G14G 9G31G15G 3G18G21
  20889455.247   -21918634.50644 -17018266.40642  20889455.780    20889451.221
  20580769.553   -15976593.31943 -12360864.45742  20580771.644    20580769.106
  23587631.221    -1291594.69743   -977223.68342  23587632.985    23587633.924
  22709242.216    -7030722.75943  -5461651.85242  22709244.052    22709242.466
  20100994.515   -19496857.18944 -15030838.00942  20100995.836    20100994.309
  21900910.190   -12104976.47243  -9408710.16842  21900911.902    21900911.399
  22450629.655   -10643080.19843  -8272604.87942  22450631.584    22450629.613
  22987757.874    -6886161.90043  -5311708.20642  22987759.122    22987758.894
 04  3 26  0 44 30.0000000  0  8G22G14G 9G31G15G 3G18G21
  20894094.993   -21894252.66644 -16999267.56042  20894095.558    20894090.895
  20572344.105   -16020869.42143 -12395365.27242  20572346.141    20572343.562
  23591802.683    -1269673.94343   -960142.57942  23591804.516    23591805.202
  22704283.162    -7056782.68843  -5481958.26842  22704285.074    22704283.381
  20104187.999   -19480075.32844 -15017761.23642  20104189.330    20104187.788
  21908503.744   -12065072.32543  -9377616.05142  21908505.413    21908504.895
  22462775.523   -10579253.39343  -8222869.74442  22462777.433    22462775.423
  23004495.159    -6798207.86143  -5243172.69842  23004496.385    23004496.063
 04  3 26  0 45  0.0000000  0  8G22G14G 9G31G15G 3G18G21
  20898768.866   -21869691.48244 -16980128.96442  20898769.420    20898764.676
  20564016.444   -16064631.14643 -12429465.27842  20564018.544    20564015.877
  23596087.426    -1247158.69243   -942598.24742  23596089.360    23596089.757
  22699431.964    -7082276.47943  -5501823.54442  22699433.817    22699431.984
  20107468.314   -19462837.09944 -15004328.85542  20107469.637    20107468.109
  21916188.672   -12024687.86843  -9346147.66242  21916190.335    21916189.765
  22474937.640   -10515340.28043  -8173067.35842  22474939.612    22474937.606
  23021282.578    -6709989.36743  -5174431.10442  23021283.863    23021283.486
 04  3 26  0 45 30.0000000  0  8G22G14G 9G31G15G 3G18G21
  20903476.928   -21844950.43944 -16960850.22442  20903477.509    20903472.749
  20555787.048   -16107876.62843 -12463163.01842  20555789.131    20555786.486
  23600485.375    -1224048.00843   -924589.91742  23600487.371    23600487.495
  22694688.841    -7107201.97043  -5521245.97742  22694690.710    22694688.814
  20110835.875   -19445140.42244 -14990539.24242  20110837.224    20110835.716
  21923964.895   -11983823.59743  -9314305.39142  21923966.570    21923965.986
  22487116.530   -10451339.81843  -8123196.90542  22487118.447    22487116.426
  23038120.300    -6621506.17443  -5105483.25242  23038121.558    23038121.381
 04  3 26  0 46  0.0000000  0  8G22G14G 9G31G15G 3G18G21
  20908218.826   -21820031.73644 -16941433.05242  20908219.401    20908214.618
  20547655.809   -16150606.29443 -12496458.81942  20547657.854    20547655.267
  23604996.276    -1200343.82943   -906119.13342  23604998.311    23604998.324
  22690053.623    -7131560.09643  -5540226.30842  22690055.499    22690053.655
  20114290.490   -19426986.34344 -14976393.21342  20114291.823    20114290.351
  21931831.749   -11942482.97143  -9282091.93342  21931833.446    21931832.874
  22499311.800   -10387253.75043  -8073259.74542  22499313.652    22499311.579
  23055007.994    -6532761.17043  -5036331.39142  23055009.160    23055009.075
 04  3 26  0 46 30.0000000  0  8G22G14G 9G31G15G 3G18G21
  20912994.080   -21794937.81544 -16921879.34542  20912994.648    20912989.816
  20539622.515   -16192821.33743 -12529353.61642  20539624.528    20539622.007
  23609619.740    -1176048.05643   -887187.39342  23609621.773    23609621.865
  22685526.244    -7155352.00643  -5558765.43342  22685528.086    22685526.204
  20117832.012   -19408375.69744 -14961891.41842  20117833.334    20117831.883
  21939788.616   -11900669.56743  -9249510.08542  21939790.301    21939789.735
  22511522.903   -10323084.18043  -8023257.52542  22511524.732    22511522.667
  23071945.108    -6443756.73343  -4966977.38942  23071946.277    23071946.287
 04  3 26  0 47  0.0000000  0  8G22G14G 9G31G15G 3G18G21
  20917803.212   -21769665.80944 -16902186.86742  20917803.792    20917798.904
  20531687.858   -16234517.96643 -12561844.45642  20531689.883    20531687.362
  23614356.376    -1151157.53243   -867792.16642  23614358.501    23614358.569
  22681107.282    -7178573.82043  -5576860.32942  22681109.110    22681107.237
  20121461.087   -19389304.59644 -14947030.82842  20121462.418    20121460.994
  21947835.626   -11858382.11843  -9216558.84242  21947837.338    21947836.798
  22523750.441   -10258828.12643  -7973187.91542  22523752.230    22523750.205
  23088932.148    -6354490.68543  -4897419.55142  23088933.261    23088933.315
 04  3 26  0 47 30.0000000  0  8G22G14G 9G31G15G 3G18G21
  20922645.824   -21744217.93344 -16882357.35442  20922646.404    20922641.506
  20523851.676   -16275697.15443 -12593932.09142  20523853.700    20523851.180
  23619205.541    -1125674.07943   -847934.94542  23619207.825    23619208.046
  22676796.637    -7201226.40743  -5594511.66642  22676798.487    22676796.623
  20125177.637   -19369774.01644 -14931812.20342  20125178.943    20125177.521
  21955972.293   -11815623.94243  -9183240.80542  21955973.989    21955973.419
  22535993.939   -10194487.63143  -7923052.49742  22535995.766    22535993.848
  23105968.162    -6264965.79043  -4827659.98242  23105969.531    23105969.669
 04  3 26  0 48  0.0000000  0  8G22G14G 9G31G15G 3G18G21
  20927521.785   -21718594.86244 -16862391.32842  20927522.340    20927517.449
  20516114.111   -16316358.10043 -12625615.90342  20516116.132    20516113.626
  23624167.566    -1099598.40043   -827616.17942  23624169.856    23624170.105
  22672594.222    -7223309.55543  -5611719.29642  22672596.139    22672594.254
  20128981.794   -19349783.17044 -14916234.92642  20128983.120    20128981.651
  21964198.085   -11772397.15443  -9149557.60642  21964199.809    21964199.192
  22548253.639   -10130063.06043  -7872851.56442  22548255.461    22548253.468
  23123053.227    -6175182.59143  -4757699.14342  23123054.546    23123055.135
 04  3 26  0 48 30.0000000  0  8G22G14G 9G31G15G 3G18G21
  20932431.508   -21692793.84944 -16842286.65242  20932432.090    20932427.248
  20508475.945   -16356496.95543 -12656892.89242  20508477.939    20508475.444
  23629242.646    -1072927.33243   -806833.53642  23629244.893    23629245.592
  22668501.073    -7244819.41243  -5628480.21042  22668502.963    22668500.960
  20132874.222   -19329328.13144 -14900295.94342  20132875.627    20132874.100
  21972513.340   -11728700.45943  -9115508.25542  21972515.049    21972514.404
  22560529.776   -10065551.77443  -7822583.07842  22560531.623    22560529.639
  23140187.878    -6085139.20743  -4687535.56642  23140189.072    23140190.061
 04  3 26  0 49  0.0000000  0  8G22G14G 9G31G15G 3G18G21
  20937373.093   -21666825.50044 -16822051.58542  20937373.685    20937368.888
  20500935.287   -16396122.99343 -12687770.28242  20500937.352    20500934.817
  23634429.507    -1045671.27543   -785594.97842  23634431.707    23634432.300
  22664515.187    -7265765.49343  -5644801.81242  22664517.025    22664514.979
  20136853.293   -19308418.22944 -14884002.52342  20136854.692    20136853.106
  21980915.771   -11684545.66243  -9081101.93942  21980917.494    21980916.787
  22572820.466   -10000964.04943  -7772255.02442  22572822.337    22572820.337
  23157370.039    -5994846.60143  -4617177.77742  23157371.168    23157372.348
 04  3 26  0 49 30.0000000  0  8G22G14G 9G31G15G 3G18G21
  20942348.114   -21640681.75344 -16801679.84142  20942348.696    20942343.925
  20493493.984   -16435227.11443 -12718240.98242  20493496.056    20493493.494
  23639729.045    -1017822.11243   -763894.31642  23639731.057    23639731.951
  22660638.271    -7286138.80543  -5660677.10242  22660640.152    22660638.093
  20140920.556   -19287044.51144 -14867347.69142  20140921.962    20140920.377
  21989406.612   -11639926.41643  -9046333.72042  21989408.315    21989407.549
  22585127.310    -9936291.28743  -7721860.70742  22585129.156    22585127.194
  23174601.298    -5904297.37043  -4546620.05642  23174602.377    23174603.330
 04  3 26  0 50  0.0000000  0  8G22G14G 9G31G15G 3G18G21
  20947355.897   -21614365.41044 -16781173.60242  20947356.524    20947351.789
  20486151.756   -16473810.69843 -12748306.07042  20486153.812    20486151.213
  23645140.673     -989382.32643   -741733.41642  23645142.596    23645143.744
  22656869.888    -7305940.97043  -5676107.33442  22656871.815    22656869.895
  20145075.927   -19265208.25644 -14850332.43842  20145077.288    20145075.653
  21997985.107   -11594846.39643  -9011206.45342  21997986.835    21997985.987
  22597449.789    -9871536.17543  -7671402.22142  22597451.661    22597449.689
  23191880.803    -5813494.18243  -4475864.42042  23191881.987    23191882.625
 04  3 26  0 50 30.0000000  0  8G22G14G 9G31G15G 3G18G21
  20952396.625   -21587876.31544 -16760532.75342  20952397.236    20952392.488
  20478908.761   -16511872.78243 -12777964.79242  20478910.848    20478908.177
  23650665.016     -960351.70543   -719112.09242  23650666.792    23650668.302
  22653210.526    -7325171.06743  -5691091.81542  22653212.433    22653210.577
  20149319.506   -19242908.12344 -14832955.71642  20149320.880    20149319.204
  22006650.982   -11549307.23243  -8975721.41042  22006652.725    22006651.814
  22609788.127    -9806698.59043  -7620879.46942  22609789.936    22609787.814
  23209208.355    -5722437.77243  -4404911.47242  23209209.642    23209210.069
 04  3 26  0 51  0.0000000  0  8G22G14G 9G31G15G 3G18G21
  20957469.949   -21561215.71944 -16739758.26442  20957470.541    20957465.823
  20471765.032   -16549413.46144 -12807217.22842  20471767.106    20471764.385
  23656301.891     -930731.42843   -696031.36742  23656303.498    23656304.880
  22649659.924    -7343829.34043  -5705630.71442  22649661.819    22649659.939
  20153651.289   -19220144.41744 -14815217.76642  20153652.675    20153650.985
  22015403.660   -11503311.57443  -8939880.65342  22015405.426    22015404.479
  22622141.950    -9741779.27043  -7570293.03342  22622143.751    22622141.590
  23226583.554    -5631130.02843  -4333762.67742  23226585.039    23226585.367
 04  3 26  0 51 30.0000000  0  8G22G14G 9G31G15G 3G18G21
  20962575.366   -21534386.41744 -16718852.32342  20962575.946    20962571.279
  20464720.156   -16586434.29343 -12836064.58442  20464722.276    20464719.511
  23662050.231     -900524.36643   -672493.38642  23662052.136    23662053.245
  22646217.772    -7361917.60643  -5719725.45642  22646219.657    22646217.783
  20158071.038   -19196918.67744 -14797119.79242  20158072.392    20158070.681
  22024242.419   -11456863.53043  -8903687.39042  22024244.228    22024243.224
  22634510.777    -9676780.86743  -7519644.97542  22634512.601    22634510.299
  23244006.350    -5539574.04143  -4262420.45842  23244007.736    23244007.980
 04  3 26  0 52  0.0000000  0  8G22G14G 9G31G15G 3G18G21
  20967713.570   -21507384.89744 -16697812.18442  20967714.141    20967709.510
  20457775.114   -16622930.71443 -12864503.31042  20457777.231    20457774.419
  23667910.654     -869726.76343   -648495.23142  23667912.453    23667913.484
  22642884.848    -7379431.58343  -5733372.69642  22642886.689    22642885.000
  20162579.565   -19173226.27444 -14778658.19142  20162580.910    20162579.204
  22033167.620   -11409961.42343  -8867140.31442  22033169.439    22033168.370
  22646895.272    -9611699.71243  -7468932.42642  22646897.121    22646894.641
  23261476.852    -5447766.75243  -4190882.40442  23261478.314    23261478.214
 04  3 26  0 52 30.0000000  0  8G22G14G 9G31G15G 3G18G21
  20972883.615   -21480215.97944 -16676641.60442  20972884.187    20972879.587
  20450929.044   -16658906.96743 -12892536.71142  20450931.168    20450928.310
  23673882.503     -838343.84143   -624041.02242  23673884.246    23673885.412
  22639660.531    -7396375.37743  -5746575.64042  22639662.360    22639660.641
  20167176.156   -19149071.02844 -14759835.93642  20167177.490    20167175.778
  22042178.011   -11362611.57543  -8830244.34842  22042179.848    22042178.764
  22659294.647    -9546540.37543  -7418158.96742  22659296.450    22659293.991
  23278994.050    -5355713.67243  -4119152.81942  23278995.692    23278995.331
 04  3 26  0 53  0.0000000  0  8G22G14G 9G31G15G 3G18G21
  20978085.844   -21452877.89144 -16655339.19742  20978086.421    20978081.839
  20444182.517   -16694360.18344 -12920162.54642  20444184.651    20444181.714
  23679966.395     -806373.93843   -599129.41142  23679968.324    23679969.104
  22636545.305    -7412746.19543  -5759332.10342  22636547.096    22636545.459
  20171861.375   -19124450.14644 -14740650.84042  20171862.674    20171860.995
  22051273.660   -11314813.93943  -8792999.45642  22051275.488    22051274.357
  22671709.467    -9481300.69843  -7367322.90542  22671711.208    22671708.694
  23296558.382    -5263413.68643  -4047230.87042  23296560.006    23296559.564
 04  3 26  0 53 30.0000000  0  8G22G14G 9G31G15G 3G18G21
  20983320.448   -21425369.80044 -16633904.32342  20983321.013    20983316.443
  20437535.888   -16729288.39044 -12947379.29442  20437538.014    20437535.046
  23686161.578     -773816.16543   -573759.72042  23686163.968    23686165.063
  22633539.248    -7428542.61043  -5771640.98142  22633541.074    22633539.429
  20176635.470   -19099361.82244 -14721101.50642  20176636.796    20176635.142
  22060454.341   -11266569.02843  -8755406.04342  22060456.197    22060455.096
  22684139.709    -9415979.65143  -7316423.45442  22684141.449    22684138.902
  23314169.424    -5170866.42643  -3975116.21142  23314171.199    23314170.850
 04  3 26  0 54  0.0000000  0  8G22G14G 9G31G15G 3G18G21
  20988586.579   -21397695.93844 -16612340.28242  20988587.136    20988582.616
  20430988.524   -16763694.80843 -12974189.44642  20430990.678    20430987.651
  23692468.221     -740674.60543   -547935.11642  23692470.362    23692471.415
  22630641.848    -7443768.03743  -5783504.92642  22630643.693    22630642.046
  20181498.073   -19073808.77444 -14701190.05142  20181499.362    20181497.713
  22069719.118   -11217882.54043  -8717468.54342  22069720.965    22069719.884
  22696584.480    -9350581.24743  -7265463.70442  22696586.333    22696583.811
  23331826.734    -5078076.45743  -3902812.42642  23331828.514    23331828.246
 04  3 26  0 54 30.0000000  0  8G22G14G 9G31G15G 3G18G21
  20993884.394   -21369855.67344 -16590646.57842  20993884.940    20993880.474
  20424540.704   -16797578.08944 -13000591.96142  20424542.891    20424539.818
  23698885.872     -706949.23543   -521655.63142  23698887.923    23698889.231
  22627853.423    -7458420.95043  -5794922.75042  22627855.256    22627853.569
  20186449.296   -19047789.76244 -14680915.50242  20186450.564    20186448.959
  22079067.688   -11168755.86843  -8679188.04342  22079069.482    22079068.404
  22709044.224    -9285104.93543  -7214443.25142  22709046.060    22709043.493
  23349530.278    -4985044.06543  -3830319.74742  23349531.985    23349531.766
 04  3 26  0 55  0.0000000  0  8G22G14G 9G31G15G 3G18G21
  20999214.284   -21341846.86744 -16568821.54042  20999214.794    20999210.457
  20418193.062   -16830935.15143 -13026584.43842  20418195.230    20418192.116
  23705414.602     -672637.73843   -494919.34742  23705416.559    23705418.799
  22625174.512    -7472498.84043  -5805892.50942  22625176.364    22625174.644
  20191489.789   -19021301.64744 -14660275.42542  20191491.021    20191489.474
  22088500.151   -11119188.28843  -8640563.98142  22088501.929    22088500.803
  22721519.357    -9219548.08243  -7163360.03742  22721521.194    22721518.610
  23367280.353    -4891767.59143  -3757636.87142  23367282.036    23367281.792
 04  3 26  0 55 30.0000000  0  8G22G14G 9G31G15G 3G18G21
  21004576.804   -21313666.57544 -16546862.87242  21004577.276    21004573.048
  20411946.210   -16863762.29343 -13052163.98942  20411948.370    20411945.267
  23712055.389    -3788577.78353  -2922924.54952  23712057.616    23712059.710
  22622605.677    -7485998.06443  -5816411.36242  22622607.581    22622605.862
  20196620.312   -18994340.35844 -14639266.64142  20196621.519    20196620.055
  22098016.738   -11069178.76343  -8601595.54542  22098018.487    22098017.286
  22734010.437    -9153907.53343  -7112211.60842  22734012.274    22734009.662
  23385077.302    -4798244.80843  -3684762.08742  23385078.997    23385078.707
 04  3 26  0 56  0.0000000  0  8G22G14G 9G31G15G 3G18G21
  21009968.895   -21285330.77444 -16524783.02642  21009969.396    21009965.233
  20405797.345   -16896074.53543 -13077342.31942  20405799.511    20405796.397
  23718805.840    -3753105.24553  -2895283.60352  23718807.684    23718809.216
  22620143.845    -7498933.83843  -5826491.14442  22620145.851    22620144.314
  20201838.106   -18966920.82744 -14617900.78442  20201839.262    20201837.826
  22107614.102   -11018744.49843  -8562296.14542  22107615.865    22107614.593
  22746514.405    -9088198.73643  -7061009.99942  22746516.244    22746513.681
  23402917.951    -4704492.17143  -3611708.18542  23402919.668    23402919.315
 04  3 26  0 56 30.0000000  0  8G22G14G 9G31G15G 3G18G21
  21015392.345   -21256830.41944 -16502574.96742  21015392.822    21015388.699
  20399748.389   -16927861.97644 -13102111.71042  20399750.541    20399747.411
  23725667.156    -3717051.24643  -2867189.56942  23725669.489    23725670.270
  22617791.355    -7511296.44343  -5836124.32042  22617793.270    22617791.801
  20207144.982   -18939033.14444 -14596170.13242  20207146.112    20207144.699
  22117293.693   -10967878.36643  -8522660.22842  22117295.428    22117294.148
  22759033.164    -9022412.63543  -7009748.14442  22759034.930    22759032.513
  23420803.750    -4610501.47643  -3538468.77242  23420805.583    23420805.194
 04  3 26  0 57  0.0000000  0  8G22G14G 9G31G15G 3G18G21
  21020847.382   -21228164.04344 -16480237.54042  21020847.881    21020843.760
  20393799.615   -16959122.65143 -13126470.63742  20393801.766    20393798.687
  23732638.972    -3680414.79153  -2838641.65052  23732640.972    23732641.958
  22615548.097    -7523084.11243  -5845309.48142  22615549.989    22615548.675
  20212541.332   -18910675.22944 -14574073.07142  20212542.455    20212541.029
  22127055.292   -10916580.76443  -8482688.10442  22127057.065    22127055.803
  22771566.892    -8956547.72343  -6958424.88242  22771568.638    22771566.360
  23438735.135    -4516272.16243  -3465043.43342  23438736.934    23438736.418
 04  3 26  0 57 30.0000000  0  8G22G14G 9G31G15G 3G18G21
  21026333.523   -21199334.24144 -16457772.77142  21026334.025    21026329.894
  20387950.749   -16989858.27243 -13150420.43342  20387952.918    20387949.884
  23739721.020    -3643198.94043  -2809642.31942  23739723.026    23739724.102
  22613413.902    -7534298.76043  -5854048.12942  22613415.823    22613414.611
  20218026.861   -18881848.53544 -14551610.72542  20218027.973    20218026.584
  22136898.208   -10864855.76243  -8442382.94842  22136899.994    22136898.844
  22784115.190    -8890606.17243  -6907041.91342  22784116.942    22784114.735
  23456711.333    -4421806.96143  -3391434.30242  23456713.101    23456712.473
 04  3 26  0 58  0.0000000  0  8G22G14G 9G31G15G 3G18G21
  21031851.221   -21170338.60344 -16435178.77842  21031851.730    21031847.572
  20382202.415   -17020065.76143 -13173958.69342  20382204.552    20382201.570
  23746913.726                    -2780189.85552                  23746917.252
  22611389.396    -7544937.73243  -5862338.21542  22611391.246    22611390.037
  20223602.208   -18852549.94544 -14528780.66742  20223603.338    20223601.924
  22146822.537   -10812702.89643  -8401744.38242  22146824.298    22146823.301
  22796678.474    -8824585.53343  -6855597.30742  22796680.303    22796678.153
  23474732.742    -4327104.47643  -3317640.26442  23474734.417    23474733.917
 04  3 26  0 58 30.0000000  0  8G22G14G 9G31G15G 3G18G21
  21037399.258   -21141183.47444 -16412460.50042  21037399.764    21037395.614
  20376553.516   -17049750.60243 -13197089.70042  20376555.636    20376552.707
  23754215.842    -3567029.66853  -2750289.64552  23754217.679    23754219.131
  22609473.271    -7555006.60243  -5870184.05742  22609475.121    22609474.012
  20229266.236   -18822784.96344 -14505587.18642  20229267.419    20229265.993
  22156826.679   -10760130.29643  -8360778.75942  22156828.456    22156827.607
  22809255.726    -8758491.71843  -6804095.67342  22809257.589    22809255.644
  23492797.869    -4232171.73143  -3243666.80642  23492799.427    23492799.263
 04  3 26  0 59  0.0000000  0  8G22G14G 9G31G15G 3G18G21
  21042979.138   -21111860.76044 -16389611.63742  21042979.645    21042975.538
  20371005.713   -17078904.26443 -13219806.79742  20371007.813    20371004.917
  23761628.475                    -2719935.77652                  23761631.558
  22607667.252    -7564497.17543  -5877579.29342  22607669.047    22607668.066
  20235020.761   -18792544.80044 -14482023.43842  20235021.947    20235020.513
  22166911.902   -10707131.79643  -8319481.25842  22166913.672    22166912.930
  22821848.405    -8692316.41443  -6752530.55842  22821850.298    22821848.549
  23510908.232    -4137001.59343  -3169508.35042  23510909.662    23510909.870
 04  3 26  0 59 30.0000000  0  7G22G14G31G15G 3G18G21
  21048590.334   -21082373.50944 -16366634.56842  21048590.807    21048586.779
  20365558.583   -17107529.04143 -13242111.77542  20365560.699    20365557.773
  22605970.695    -7573411.85843  -5884525.77242  22605972.506    22605971.703
  20240865.303   -18761831.60344 -14458091.09142  20240866.500    20240865.058
  22177077.411   -10653712.13343  -8277855.58142  22177079.099    22177078.385
  22834456.039    -8626062.62543  -6700904.27242  22834457.986    22834456.309
  23529063.431    -4041597.35443  -3095167.48142  23529064.627    23529065.018
 04  3 26  1  0  0.0000000  0  7G22G14G31G15G 3G18G21
  21054230.323   -21052735.12244 -16343539.73542  21054230.751    21054226.771
  20360209.691   -17135637.74943 -13264014.61742  20360211.796    20360208.831
  22604381.391    -7581763.72343  -5891033.68642  22604383.111    22604382.421
  20246797.459   -18730657.93344 -14433799.93042  20246798.654    20246797.211
  22187320.133   -10599886.47743  -8235913.55042  22187321.814    22187321.084
  22847076.303    -8559743.19443  -6649226.84642  22847078.251    22847076.512
  23547260.293    -3945973.29843  -3020655.31042  23547261.576    23547262.052
 04  3 26  1  0 30.0000000  0  7G22G14G31G15G 3G18G21
  21059901.301   -21022933.83644 -16320317.96242  21059901.721    21059897.752
  20354961.252   -17163218.13743 -13285505.78542  20354963.383    20354960.434
  22602901.567    -7589540.58643  -5897093.56642  22602903.253    22602902.561
  20252819.620   -18699011.25444 -14409140.19342  20252820.833    20252819.386
  22197641.969   -10545645.03743  -8193647.53342  22197643.655    22197642.929
  22859711.308    -8493345.98043  -6597488.80942  22859713.290    22859711.516
  23565501.033    -3850118.64143  -2945963.48442  23565502.179    23565502.927
 04  3 26  1  1  0.0000000  0  7G22G14G31G15G 3G18G21
  21065602.322   -20992974.70444 -16296973.18642  21065602.772    21065598.766
  20349812.575   -17190274.58443 -13306588.68942  20349814.690    20349811.742
  22601530.134    -7596747.15843  -5902709.04242  22601531.824    22601531.155
  20258930.958   -18666895.96244 -14384115.30442  20258932.175    20258930.743
  22208041.628   -10490994.47543  -8151062.72042  22208043.334    22208042.609
  22872360.147    -8426876.38343  -6545694.35442  22872362.138    22872360.374
  23583784.231    -3754038.92743  -2871096.26042  23583785.560    23583786.466
 04  3 26  1  1 30.0000000  0  7G22G14G31G15G 3G18G21
  21071334.190   -20962853.65744 -16273502.24942  21071334.630    21071330.571
  20344764.449   -17216802.44843 -13327259.71042  20344766.580    20344763.647
  22600268.052    -7603379.23943  -5907876.87242  22600269.757    22600269.134
  20265132.401   -18634307.04144 -14358721.35842  20265133.650    20265132.211
  22218519.545   -10435932.75443  -8108157.53242  22218521.260    22218520.554
  22885023.664    -8360329.89243  -6493839.98942  22885025.664    22885023.788
  23602110.970    -3657731.02943  -2796051.27042  23602112.054    23602112.930
 04  3 26  1  2  0.0000000  0  7G22G14G31G15G 3G18G21
  21077095.993   -20932575.31644 -16249908.74442  21077096.431    21077092.339
  20339816.116   -17242806.00543 -13347522.18242  20339818.233    20339815.305
  22599114.559    -7609441.35343  -5912600.58442  22599116.176    22599115.559
  20271423.114   -18601249.03244 -14332961.88542  20271424.358    20271422.979
  22229074.272   -10380466.78843  -8064937.34342  22229076.049    22229075.405
  22897700.920    -8293710.86343  -6441929.12042  22897702.929    22897700.907
  23620480.300    -3561200.63543  -2720832.88342  23620481.312    23620481.745
 04  3 26  1  2 30.0000000  0  7G22G14G31G15G 3G18G21
  21082887.779   -20902139.54444 -16226192.56442  21082888.208    21082884.040
  20334967.664   -17268284.50543 -13367375.51842  20334969.818    20334966.884
  22598069.587    -7614932.82443  -5916879.62242  22598071.167    22598070.665
  20277803.318   -18567720.81044 -14306836.00942  20277804.568    20277803.204
  22239705.701   -10324598.08243  -8021403.33042  22239707.483    22239706.913
  22910392.014    -8227018.62943  -6389961.18842  22910394.064    22910391.994
  23638891.793    -3464447.91043  -2645441.27942  23638893.075    23638893.074
 04  3 26  1  3  0.0000000  0  7G22G14G31G15G 3G18G21
  21088709.901   -20871544.29244 -16202352.11842  21088710.340    21088706.112
  20330219.625   -17293235.55143 -13386817.85042  20330221.788    20330218.851
  22597133.638    -7619851.59043  -5920712.40942  22597135.301    22597134.709
  20284273.546   -18533719.53144 -14280341.52042  20284274.800    20284273.464
  22250413.768   -10268326.88543  -7977555.68742  22250415.554    22250414.987
  22923097.474    -8160251.16243  -6337934.62442  22923099.487    22923097.441
  23657345.819    -3367472.05143  -2569875.78842  23657347.099    23657347.242
 04  3 26  1  3 30.0000000  0  7G22G14G31G15G 3G18G21
  21094561.683   -20840793.59544 -16178390.54842  21094562.085    21094557.762
  20325571.250   -17317662.84343 -13405852.06642  20325573.399    20325570.453
  22596305.876    -7624201.59043  -5924102.00142  22596307.557    22596306.982
  20290833.086   -18499248.87744 -14253481.28842  20290834.335    20290833.015
  22261197.411   -10211658.91943  -7933398.88442  22261199.147    22261198.585
  22935816.543    -8093412.24043  -6285852.39342  22935818.512    22935816.485
  23675841.433    -3270277.73343  -2494140.04542  23675842.657    23675843.127
 04  3 26  1  4  0.0000000  0  7G22G14G31G15G 3G18G21
  21100443.550   -20809884.57544 -16154305.61042  21100443.973    21100439.575
  20321023.194   -17341562.99643 -13424475.52942  20321025.326    20321022.358
  22595586.925    -7627979.79143  -5927046.04542  22595588.567    22595588.002
  20297482.603   -18464305.35244 -14226252.58542  20297483.861    20297482.553
  22272056.707   -10154593.21143  -7888932.15142  22272058.448    22272057.853
  22948549.668    -8026499.03243  -6233712.27542  22948551.621    22948549.613
  23694378.863    -3172863.12643  -2418232.64842  23694380.144    23694380.854
 04  3 26  1  4 30.0000000  0  7G22G14G31G15G 3G18G21
  21106354.787   -20778820.88344 -16130100.14642  21106355.235    21106350.794
  20316574.817   -17364939.23143 -13442690.74442  20316576.983    20316573.940
  22594976.026    -7631189.60243  -5929547.18942  22594977.716    22594977.239
  20304221.600   -18428891.81444 -14198657.63742  20304222.877    20304221.496
  22282990.604   -10097135.38343  -7844159.87242  22282992.359    22282991.721
  22961296.479    -7959514.51643  -6181516.59742  22961298.338    22961296.289
  23712957.576    -3075232.71343  -2342157.11042  23712958.802    23712959.525
 04  3 26  1  5  0.0000000  0  7G22G14G31G15G 3G18G21
  21112295.884   -20747600.34044 -16105772.46442  21112296.329    21112291.836
  20312226.629   -17387789.23043 -13460495.90142  20312228.782    20312225.688
  22594473.613    -7633829.37643  -5931604.13642  22594475.301    22594474.943
  20311050.496   -18393006.02044 -14170694.70542  20311051.749    20311050.343
  22293999.021   -10039285.87143  -7799082.38342  22294000.753    22294000.147
  22974057.242    -7892456.53443  -6129263.65342  22974059.167    22974057.012
  23731577.690    -2977385.31743  -2265912.51942  23731578.893    23731579.039
 04  3 26  1  5 30.0000000  0  7G22G14G31G15G 3G18G21
  21118266.785   -20716222.94344 -16081322.55642  21118267.252    21118262.731
  20307978.619   -17410112.53343 -13477890.65342  20307980.762    20307977.671
  22594079.866    -7635898.55343  -5933216.47442  22594081.525    22594081.185
  20317969.415   -18356647.01444 -14142363.02942  20317970.702    20317969.234
  22305081.589    -9981046.17743  -7753700.85242  22305083.387    22305082.842
  22986831.958    -7825324.79343  -6076953.26142  22986833.870    22986831.735
  23750238.468    -2879321.63143  -2189499.40042  23750240.009    23750239.560
 04  3 26  1  6  0.0000000  0  7G22G14G31G15G 3G18G21
  21124266.916   -20684692.22244 -16056753.16842  21124267.406    21124262.801
  20303830.212   -17431912.37043 -13494877.50942  20303832.383    20303829.261
  22593794.038    -7637400.68943  -5934386.95942  22593795.664    22593795.386
  20324977.798   -18319817.80744 -14113664.96042  20324979.110    20324977.579
  22316237.423    -9922422.03643  -7708019.76242  22316239.239    22316238.704
  22999620.068    -7758122.92043  -6024588.20342  22999621.894    22999619.925
  23768939.563    -2781046.14543  -2112921.21542  23768940.996    23768940.309
 04  3 26  1  6 30.0000000  0  7G22G14G31G15G 3G18G21
  21130297.062   -20653003.87944 -16032060.96442  21130297.558    21130292.885
  20299782.309   -17453184.24743 -13511452.96842  20299784.476    20299781.327
  22593616.826    -7638331.55743  -5935112.31242  22593618.516    22593618.226
  20332076.561   -18282513.64744 -14084596.80042  20332077.894    20332076.331
  22327466.858    -9863411.18343  -7662037.33242  22327468.677    22327468.131
  23012422.464    -7690845.86743  -5972164.58442  23012424.181    23012422.260
  23787681.551    -2682555.47043  -2036175.36142  23787682.959    23787682.602
 04  3 26  1  7  0.0000000  0  7G22G14G31G15G 3G18G21
  21136355.767   -20621165.10844 -16007251.54242  21136356.293    21136351.598
  20295833.598   -17473934.89743 -13527622.27342  20295835.767    20295832.567
  22593546.864    -7638698.49943  -5935398.23342  22593548.614    22593548.463
  20339264.409   -18244741.31144 -14055163.82942  20339265.760    20339264.173
  22338768.155    -9804023.02343  -7615760.90642  22338769.934    22338769.311
  23025237.772    -7623500.53943  -5919687.72642  23025239.533    23025237.555
  23806463.507    -2583857.73243  -1959268.14042  23806464.505    23806464.613
 04  3 26  1  7 30.0000000  0  7G22G14G31G15G 3G18G21
  21142443.950   -20589171.57244 -15982321.52042  21142444.489    21142439.742
  20291984.878   -17494160.15343 -13543382.18742  20291987.020    20291983.767
  22593585.062    -7638497.24143  -5935241.40742  22593586.741    22593586.719
  20346542.249   -18206496.37844 -14025362.60642  20346543.560    20346541.932
  22350141.669    -9744255.29743  -7569188.69542  22350143.427    22350142.685
  23038067.040    -7556082.76143  -5867154.43742  23038068.781    23038066.603
  23825285.169    -2484949.70443  -1882197.04242  23825286.315    23825286.815
 04  3 26  1  8  0.0000000  0  7G22G14G31G15G 3G18G21
  21148560.729   -20557027.47944 -15957274.18642  21148561.298    21148556.520
  20288235.379   -17513863.92443 -13558735.75242  20288237.525    20288234.217
  22593730.738    -7637732.07043  -5934645.17342  22593732.294    22593732.326
  20353909.292   -18167782.42044 -13995195.90042  20353910.620    20353908.936
  22361586.094    -9684114.37343  -7522325.69842  22361587.909    22361587.078
  23050909.216    -7488596.73143  -5814567.97042  23050911.015    23050908.884
  23844146.126    -2385836.40243  -1804965.99842  23844147.211    23844148.365
 04  3 26  1  8 30.0000000  0  7G22G14G31G15G 3G18G21
  21154707.651   -20524725.45044 -15932103.78642  21154708.210    21154703.342
  20284586.546   -17533038.66843 -13573677.08642  20284588.683    20284585.343
  22593984.721    -7636396.02243  -5933604.09342  22593986.316    22593986.535
  20361367.111   -18128591.55744 -13964657.58742  20361368.450    20361366.701
  22373102.560    -9623595.03943  -7475167.83442  22373104.357    22373103.510
  23063765.900    -7421034.57043  -5761922.18142  23063767.729    23063765.578
  23863047.308    -2286511.56443  -1727570.11842  23863048.284    23863049.281
 04  3 26  1  9  0.0000000  0  7G22G14G31G15G 3G18G21
  21160883.108   -20492273.24944 -15906816.36842  21160883.685    21160878.732
  20281036.980   -17551691.80443 -13588211.97342  20281039.108    20281035.711
  22594346.003    -7634496.64943  -5932124.06342  22594347.591    22594347.974
  20368914.315   -18088930.96644 -13933753.25442  20368915.654    20368913.857
  22384689.049    -9562707.27343  -7427722.87842  22384690.885    22384690.073
  23076635.680    -7353403.63343  -5709222.76942  23076637.584    23076635.320
  23881986.775    -2186983.46443  -1650015.84042  23881987.884    23881988.044
 04  3 26  1  9 30.0000000  0  8G22G14G31G15G 3G25G18G21
  21167086.890   -20459672.19044 -15881412.94842  21167087.460    21167082.441
  20277586.448   -17569824.75543 -13602341.52042  20277588.529    20277585.067
  22594814.191    -7632035.86143  -5930206.54842  22594815.733    22594816.161
  20376550.630   -18048802.01144 -13902483.95642  20376551.991    20376550.153
  22396345.080    -9501454.61743  -7379993.58242  22396346.868    22396346.112
  24384539.758
  23089518.401    -7285705.20643  -5656470.78942  23089520.320    23089517.900
  23900965.090    -2087255.00043  -1572305.49442  23900966.088    23900963.860
 04  3 26  1 10  0.0000000  0  8G22G14G31G15G 3G25G18G21
  21173318.782   -20426923.45744 -15855894.46142  21173319.364    21173314.269
  20274234.590   -17587438.75143 -13616066.69242  20274236.696    20274233.188
  22595389.018    -7629014.88843  -5927852.54742  22595390.484    22595391.031
  20384275.985   -18008205.48744 -13870850.32842  20384277.312    20384275.402
  22408069.903    -9439840.40043  -7331982.55842  22408071.681    22408070.985
  24365738.225     -171432.96453   -116309.64052  24365738.229    24365738.546
  23102413.604    -7217940.38143  -5603667.05842  23102415.615    23102413.154
  23919980.946    -1987328.48543  -1494440.88442  23919982.009    23919977.542
 04  3 26  1 10 30.0000000  0  8G22G14G31G15G 3G25G18G21
  21179581.145   -20394014.74244 -15830251.31542  21179581.705    21179576.565
  20270983.861   -17604521.24743 -13629377.70642  20270985.993    20270982.493
  22596072.788    -7625421.96943  -5925052.86042  22596074.254    22596074.638
  20392092.619   -17967128.95944 -13838842.66642  20392093.964    20392091.986
  22419865.490    -9377854.64343  -7283682.02442  22419867.172    22419866.579
  24346934.436     -270237.45453   -193299.71152  24346936.035    24346936.837
  23115324.018    -7150096.40043  -5550801.66042  23115325.986    23115323.551
  23939036.314    -1887192.35443  -1416412.85142  23939037.528    23939032.308
 04  3 26  1 11  0.0000000  0  7G22G14G31G15G 3G18G21
  21185872.350   -20360954.40444 -15804490.02442  21185872.929    21185867.776
  20267832.731   -17621080.45743 -13642280.96142  20267834.883    20267831.380
  22596863.809    -7621265.14343  -5921813.77742  22596865.175    22596865.613
  20399999.089   -17925580.27444 -13806467.08942  20400000.436    20399998.425
  22431729.812    -9315507.63643  -7235099.99242  22431731.465    22431730.893
  23128247.806    -7082181.62643  -5497881.09842  23128249.810    23128247.306
  23958129.857    -1786856.06043  -1338228.85442  23958131.193    23958126.359
 04  3 26  1 11 30.0000000  0  7G22G14G31G15G 3G18G21
  21192191.414   -20327747.44144 -15778614.47942  21192192.026    21192186.869
  20264780.146   -17637121.63843 -13654780.56042  20264782.303    20264778.831
  22597761.030    -7616550.92643  -5918140.34342  22597762.336    22597762.640
  20407994.586   -17883563.99044 -13773727.15442  20407995.899    20407993.851
  22443661.398    -9252806.65243  -7186242.14042  22443663.120    22443662.585
  23141184.066    -7014200.95643  -5444909.17642  23141186.118    23141183.444
  23977260.406    -1686325.54243  -1259893.50342  23977261.731    23977257.899
 04  3 26  1 12  0.0000000  0  7G22G14G31G15G 3G18G21
  21198539.180   -20294389.62644 -15752621.38942  21198539.794    21198534.641
  20261826.935   -17652640.58643 -13666873.22242  20261829.103    20261825.643
  22598765.248    -7611274.03943  -5914028.47842  22598766.602    22598766.725
  20416079.855   -17841075.85944 -13740619.54842  20416081.160    20416079.068
  22455660.686    -9189749.90343  -7137107.06342  22455662.426    22455661.967
  23154133.827    -6946149.82843  -5391882.36242  23154135.804    23154133.227
  23996428.052    -1585597.69343  -1181404.33142  23996429.664    23996426.922
 04  3 26  1 12 30.0000000  0  8G22G14G31G15G 3G25G18G21
  21204914.096   -20260889.25944 -15726517.21342  21204914.724    21204909.514
  20258971.606   -17667645.36243 -13678565.22842  20258973.758    20258970.298
  22599874.652    -7605443.76043  -5909485.39742  22599876.086    22599876.128
  20424253.369   -17798123.81144 -13707150.44542  20424254.673    20424252.596
  22467725.761    -9126347.81543  -7087702.89942  22467727.452    22467727.064
  24271664.186    -1571291.08753  -1218090.91852  24271664.877    24271666.679
  23167095.515    -6878035.91543  -5338806.62642  23167097.465    23167095.077
  24015631.982    -1484681.90643  -1102768.77842  24015633.566    24015631.799
 04  3 26  1 13  0.0000000  0  8G22G14G31G15G 3G25G18G21
  21211318.183   -20227235.47744 -15700293.49842  21211318.783    21211313.595
  20256216.109   -17682125.56643 -13689848.47442  20256218.270    20256214.768
  22601091.404    -7599050.28743  -5904503.45242  22601092.827    22601092.692
  20432517.175   -17754697.34044 -13673311.66142  20432518.429    20432516.443
  22479858.043    -9062592.06043  -7038023.12842  22479859.808    22479859.405
  24252826.781    -1670256.96143  -1295206.67742  24252831.107    24252829.715
  23180071.233    -6809848.71843  -5285673.78442  23180073.133    23180070.764
  24034873.388    -1383568.54443  -1023979.30342  24034875.056    24034874.345
 04  3 26  1 13 30.0000000  0  8G22G14G31G15G 3G25G18G21
  21217752.766   -20193421.16044 -15673944.68842  21217753.363    21217748.265
  20253561.752   -17696074.04743 -13700717.39642  20253563.918    20253560.440
  22602416.819    -7592086.32243  -5899076.98242  22602418.163    22602417.785
  20440872.765   -17710788.53644 -13639097.03342  20440873.978    20440872.073
  22492058.588    -8998477.69143  -6988063.93542  22492060.381    22492059.991
  24233986.818    -1769234.55743  -1372331.83742  24233994.057    24233992.910
  23193062.159    -6741580.59643  -5232477.88842  23193064.094    23193061.868
  24054149.997   -20586631.21952                                  24054157.572
 04  3 26  1 14  0.0000000  0  7G22G14G31G15G 3G25G18
  21224215.220   -20159460.89544 -15647482.16142  21224215.768    21224210.718
  20251005.727   -17709505.57543 -13711183.49442  20251007.910    20251004.478
  22603847.778    -7584567.10943  -5893217.84942  22603849.167    22603848.626
  20449317.368   -17666412.13444 -13604518.05042  20449318.531    20449316.658
  22504324.177    -8934021.74143  -6937838.56942  22504325.995    22504325.541
  24215146.616    -1868235.47453  -1449475.14752  24215152.872    24215153.598
  23206065.755    -6673245.59343  -5179229.88042  23206067.650    23206065.727
 04  3 26  1 14 30.0000000  0  6G22G14G31G15G 3G18
  21230707.063   -20125346.25644 -15620899.34142  21230707.568    21230702.506
  20248549.718   -17722411.81343 -13721240.27742  20248551.866    20248548.487
  22605385.900    -7576484.82343  -5886919.95442  22605387.340    22605386.602
  20457852.524   -17621559.72544 -13569568.15142  20457853.691    20457851.842
  22516655.980    -8869218.13243  -6887342.29842  22516657.777    22516657.293
  23219083.937    -6604835.70443  -5125923.51342  23219085.703    23219083.875
 04  3 26  1 15  0.0000000  0  7G22G14G31G15G 3G18G21
  21237223.790   -20091100.39744 -15594214.27042  21237224.343    21237219.307
  20246189.253   -17734815.97443 -13730905.83342  20246191.397    20246188.027
  22607026.629    -7567863.13743  -5880201.75242  22607028.127    22607027.289
  20466473.942   -17576254.11544 -13534265.10542  20466475.101    20466473.275
  22529049.156    -8804092.08843  -6836594.78842  22529050.947    22529050.385
  23232111.680    -6536373.64543  -5072576.49442  23232113.580    23232111.938
  24112216.913
 04  3 26  1 15 30.0000000  0  7G22G14G31G15G 3G18G21
  21243766.017   -20056720.79744 -15567424.98842  21243766.548    21243761.547
  20243924.751   -17746715.80243 -13740178.40142  20243926.882    20243923.549
  22608770.409    -7558700.09143  -5873061.70642  22608771.936    22608770.958
  20475182.066   -17530492.67444 -13498606.86942  20475183.233    20475181.426
  22541503.514    -8738643.77943  -6785596.14442  22541505.347    22541504.886
  23245149.908    -6467856.72143  -5019186.74242  23245151.792    23245150.345
  24131632.364    -1189685.56753   -930877.31852  24131631.694    24131625.904
 04  3 26  1 16  0.0000000  0  7G22G14G31G15G 3G18G21
  21250338.435   -20022182.56444 -15540512.09342  21250338.926    21250333.985
  20241760.890   -17758086.79043 -13749038.88942  20241763.001    20241759.698
  22610621.891    -7548971.42143  -5865480.92742  22610623.405    22610622.258
  20483981.607   -17484250.71444 -13462574.20442  20483982.787    20483981.039
  22554023.624    -8672850.71043  -6734328.86442  22554025.375    22554024.973
  23258203.636    -6399259.69143  -4965734.56942  23258205.386    23258204.025
  24151086.560    -1087446.23543   -851210.50142  24151086.601    24151080.470
 04  3 26  1 16 30.0000000  0  8G22G14G31G15G 3G25G18G21
  21256939.556   -19987493.10144 -15513481.36242  21256940.079    21256935.190
  20239696.255   -17768936.42343 -13757493.13042  20239698.346    20239695.068
  22612579.284    -7538685.15543  -5857465.64242  22612580.935    22612579.599
  20492871.248   -17437535.51844 -13426172.78742  20492872.417    20492870.698
  22566607.363    -8606722.57443  -6682800.49442  22566609.113    22566608.811
  24120901.434    -1495647.40653  -1145996.01352  24120901.708    24120901.285
  23271271.164    -6330590.17143  -4912225.89542  23271272.929    23271271.489
  24170575.915                     -771397.45242                  24170571.208
 04  3 26  1 17  0.0000000  0  7G22G14G31G15G 3G25G18
  21263572.009   -19952639.32344 -15486322.59242  21263572.483    21263567.650
  20237733.250   -17779251.89043 -13765531.14042  20237735.346    20237732.097
  22614645.305    -7527828.90543  -5849006.23842  22614646.928    22614645.473
  20501853.388   -17390333.95544 -13389392.37642  20501854.609    20501852.931
  22579256.980    -8540248.67143  -6631002.69042  22579258.665    22579258.461
  24102048.121    -1594707.65153  -1223185.67452  24102048.895    24102051.210
  23284354.961    -6261834.55943  -4858650.15642  23284356.700    23284355.334
 04  3 26  1 17 30.0000000  0  7G22G14G31G15G 3G18G21
  21270230.285   -19917649.92144 -15459058.13742  21270230.738    21270225.955
  20235866.378   -17789062.42043 -13773175.69342  20235868.467    20235865.189
  22616814.035    -7516432.25643  -5840125.72742  22616815.710    22616814.168
  20510922.640   -17342674.81444 -13352255.41142  20510923.847    20510922.229
  22591966.535    -8473459.94343  -6578959.57042  22591968.136    22591967.994
  23297449.661    -6193021.32143  -4805029.51242  23297451.433    23297450.231
  24209671.527
 04  3 26  1 18  0.0000000  0  7G22G14G31G15G 3G18G21
  21276912.871   -19882532.74644 -15431694.12042  21276913.347    21276908.562
  20234094.064   -17798375.96043 -13780432.98542  20234096.171    20234092.840
  22619084.238    -7504503.27343  -5830830.42042  22619085.920    22619084.231
  20520077.446   -17294565.93844 -13314768.00742  20520078.655    20520077.093
  22604734.005    -8406366.84843  -6526679.28542  22604735.531    22604735.409
  23310554.018    -6124158.37443  -4751370.13942  23310555.706    23310554.571
  24229260.129
 04  3 26  1 18 30.0000000  0  7G22G14G31G15G 3G18G21
  21283623.774   -19847266.67844 -15404214.07742  21283624.295    21283619.507
  20232420.255   -17807171.80743 -13787286.87542  20232422.361    20232419.009
  22621459.272    -7492022.46343  -5821105.12542  22621461.044    22621459.189
  20529321.843   -17245986.41444 -13276913.86242  20529323.001    20529321.533
  22617562.841    -8338950.81643  -6474147.34942  22617564.375    22617564.300
  23323671.752    -6055224.32843  -4697655.35242  23323673.589    23323672.479
  24248885.500     -744383.61052                                  24248883.016
 04  3 26  1 19  0.0000000  0  7G22G14G31G15G 3G18G21
  21290364.450   -19811844.22544 -15376612.18442  21290364.934    21290360.224
  20230846.303   -17815442.91743 -13793731.89042  20230848.396    20230845.046
  22623940.721    -7478982.23043  -5810943.91042  22623942.537    22623940.599
  20538657.205   -17196928.59644 -13238687.02842  20538658.365    20538657.003
  22630454.092    -8271206.83343  -6421359.87342  22630455.636    22630455.588
  23336804.579    -5986211.08743  -4643878.85842  23336806.441    23336805.431
  24268547.215     -663872.52442                                  24268543.449
 04  3 26  1 19 30.0000000  0  7G22G14G31G15G 3G18G21
  21297129.862   -19776291.75244 -15348908.97442  21297130.331    21297125.675
  20229367.122   -17823216.10143 -13799788.91042  20229369.217    20229365.845
  22626523.460    -7465410.39143  -5800368.46342  22626525.218    22626523.166
  20548078.545   -17147419.16344 -13200108.27942  20548079.658    20548078.424
  22643402.285    -8203163.80643  -6368339.37942  22643403.778    22643403.791
  23349947.434    -5917145.26143  -4590061.39342  23349949.332    23349948.355
  24288244.577
 04  3 26  1 20  0.0000000  0  7G22G14G31G15G 3G18G21
  21303925.389   -19740581.09643 -15321082.50342  21303925.853    21303921.226
  20227987.935   -17830463.74143 -13805436.41042  20227990.046    20227986.652
  22629212.525    -7451279.64543  -5789357.51542  22629214.283    22629212.118
  20557591.112   -17097430.06344 -13161155.76642  20557592.209    20557591.144
  22656412.338    -8134796.01943  -6315065.82742  22656413.812    22656413.801
  23363105.706    -5847998.51543  -4536180.86142  23363107.661    23363106.744
  24307974.291
 04  3 26  1 20 30.0000000  0  7G22G14G31G15G 3G18G21
  21310747.230   -19704731.60543 -15293147.84842  21310747.747    21310743.137
  20226705.059   -17837205.24643 -13810689.52742  20226707.176    20226703.762
  22632004.197    -7436609.74743  -5777926.45042  22632005.958    22632003.650
  20567191.287   -17046980.70944 -13121844.61342  20567192.375    20567191.411
  22669479.986    -8066125.13443  -6261556.09242  22669481.506    22669481.486
  23376275.738    -5778789.86543  -4482252.08142  23376277.776    23376276.749
  24327733.363
 04  3 26  1 21  0.0000000  0  7G22G14G31G15G 3G18G21
  21317599.474   -19668722.58643 -15265088.88542  21317599.998    21317595.440
  20225522.375   -17843420.46543 -13815532.55042  20225524.477    20225521.044
  22634902.164    -7421381.32643  -5766060.15742  22634903.938    22634901.575
  20576882.913   -16996050.75944 -13082158.96442  20576884.009    20576883.123
  22682608.888    -7997133.12743  -6207796.13542  22682610.329    22682610.294
  23389461.499    -5709498.31843  -4428258.71442  23389463.551    23389462.532
  24347519.593
 04  3 26  1 21 30.0000000  0  7G22G14G31G15G 3G18G21
  21324477.230   -19632579.70343 -15236925.61042  21324477.734    21324473.192
  20224434.763   -17849136.00643 -13819986.21042  20224436.848    20224433.382
  22637901.178    -7405620.90543  -5753779.33042  22637903.010    22637900.640
  20586661.123   -16944665.98344 -13042118.91142  20586662.229    20586661.371
  22695793.358    -7927848.39943  -6153808.08242  22695794.815    22695794.815
  23402658.298    -5640149.71643  -4374220.89342  23402660.245    23402659.258
  24367342.907
 04  3 26  1 22  0.0000000  0  7G22G14G31G15G 3G18G21
  21331382.366   -19596292.77543 -15208650.09342  21331382.869    21331378.357
  20223444.105   -17854341.93743 -13824042.77142  20223446.198    20223442.712
  22641003.345    -7389319.52243  -5741076.97742  22641005.119    22641002.698
  20596527.810   -16892816.38244 -13001716.65542  20596528.916    20596528.052
  22709035.016    -7858263.23543  -6099585.92742  22709036.450    22709036.517
  23415867.862    -5570733.31843  -4320130.21942  23415869.819    23415868.861
  24387195.958
 04  3 26  1 22 30.0000000  0  7G22G14G31G15G 3G18G21
  21338314.987   -19559861.79543 -15180262.32742  21338315.487    21338310.944
  20222550.358   -17859038.67143 -13827702.55742  20222552.461    20222548.938
  22644208.276    -7372477.62643  -5727953.44742  22644209.992    22644207.571
  20606482.850   -16840502.37344 -12960952.52542  20606483.999    20606483.081
  22722333.418    -7788379.95043  -6045131.46842  22722334.865    22722334.892
  23429090.339    -5501249.21243  -4265986.79242  23429092.338    23429091.167
  24407081.743
 04  3 26  1 23  0.0000000  0  7G22G14G31G15G 3G18G21
  21345274.701   -19523288.60443 -15151763.74942  21345275.197    21345270.602
  20221753.058   -17863228.62043 -13830967.44042  20221755.153    20221751.617
  22647515.453    -7355098.20443  -5714411.07342  22647517.194    22647514.777
  20616525.924   -16787725.75344 -12919827.91542  20616527.098    20616526.134
  22735687.822    -7718203.08143  -5990448.25142  22735689.206    22735689.119
  23442325.341    -5431699.06943  -4211791.91242  23442327.315    23442326.144
  24426997.086
 04  3 26  1 23 30.0000000  0  6G22G14G31G15G 3G18
  21352265.064   -19486553.84543 -15123139.28542  21352265.562    21352260.998
  20221055.683   -17866893.28543 -13833823.01242  20221057.774    20221054.276
  22650928.298    -7337163.30843  -5700435.85442  22650930.099    22650927.670
  20626660.711   -16734467.54344 -12878328.04742  20626661.882    20626660.838
  22749101.164    -7647715.82843  -5935523.17442  22749102.667    22749102.444
  23455576.664    -5362063.03443  -4157530.10842  23455578.644    23455577.458
 04  3 26  1 24  0.0000000  0  6G22G14G31G15G 3G18
  21359278.224   -19449699.52643 -15094421.65442  21359278.702    21359274.150
  20220450.198   -17870075.09943 -13836302.33642  20220452.301    20220448.792
  22654438.760    -7318715.73643  -5686061.15942  22654440.558    22654438.175
  20636879.013   -16680769.98944 -12836485.82842  20636880.231    20636879.152
  22762565.073    -7576962.53143  -5880390.79642  22762566.714    22762566.413
  23468836.225    -5292383.07143  -4103234.07542  23468838.249    23468837.064
 04  3 26  1 24 30.0000000  0  6G22G14G31G15G 3G18
  21366319.153   -19412699.22643 -15065590.26642  21366319.634    21366315.050
  20219941.541   -17872748.31644 -13838385.34742  20219943.637    20219940.089
  22658051.499    -7299730.40043  -5671267.41542  22658053.306    22658051.041
  20647185.897   -16626607.15144 -12794281.05242  20647187.117    20647186.011
  22776084.040    -7505920.02043  -5825033.05542  22776085.698    22776085.439
  23482109.390    -5222632.73843  -4048883.20142  23482111.241    23482110.028
 04  3 26  1 25  0.0000000  0  6G22G14G31G15G 3G18
  21373387.366   -19375555.41443 -15036647.05042  21373387.819    21373383.235
  20219528.951   -17874916.35244 -13840074.71242  20219531.073    20219527.483
  22661765.898    -7280210.90943  -5656057.45242  22661767.664    22661765.441
  20657580.791   -16571981.94444 -12751715.99142  20657581.972    20657580.848
  22789657.154    -7434593.14143  -5769453.73442  22789658.797    22789658.579
  23495395.421    -5152814.40643  -3994479.35242  23495397.198    23495395.996
 04  3 26  1 25 30.0000000  0  6G22G14G31G15G 3G18
  21380482.007   -19338273.21043 -15007595.98842  21380482.413    21380477.759
  20219211.423   -17876584.83344 -13841374.81542  20219213.541    20219209.993
  22665580.770    -7260163.51043  -5640436.12342  22665582.544    22665580.382
  20668062.634   -16516899.77944 -12708794.85842  20668063.831    20668062.639
  22803282.998    -7362989.40843  -5713658.69142  22803284.571    22803284.419
  23508693.472    -5082932.95143  -3940026.30942  23508695.269    23508694.017
 04  3 26  1 26  0.0000000  0  6G22G14G31G15G 3G18
  21387604.098   -19300846.49244 -14978432.31742  21387604.569    21387599.792
  20218990.017   -17877748.23344 -13842281.34342  20218992.163    20218988.603
  22669497.152    -7239582.98043  -5624399.38242  22669498.862    22669496.795
  20678632.541   -16461354.74244 -12665513.05142  20678633.776    20678632.505
  22816962.070    -7291105.40943  -5657645.25142  22816963.687    22816963.573
  23522004.673    -5012981.93743  -3885519.08242  23522006.556    23522005.363
 04  3 26  1 26 30.0000000  0  6G22G14G31G15G 3G18
  21394752.902   -19263279.25344 -14949159.15642  21394753.399    21394748.563
  20218863.810   -17878411.40443 -13842798.08942  20218865.938    20218862.405
  22673513.743    -7218474.99143  -5607951.62042  22673515.507    22673513.614
  20689289.677   -16405351.55844 -12621874.24442  20689290.891    20689289.536
  22830693.219    -7218948.04643  -5601418.81942  22830694.765    22830694.768
  23535328.495    -4942965.33543  -3830960.74442  23535330.349    23535329.071
 04  3 26  1 27  0.0000000  0  6G22G14G31G15G 3G18
  21401928.272   -19225572.38144 -14919777.18442  21401928.799    21401923.938
  20218832.514   -17878575.84944 -13842926.21442  20218834.653    20218831.118
  22677630.422    -7196841.53543  -5591094.40542  22677632.180    22677630.368
  20700033.731   -16348891.47044 -12577879.40142  20700034.947    20700033.532
  22844475.709    -7146520.66043  -5544981.95042  22844477.323    22844477.287
  23548664.685    -4872883.96043  -3776351.91642  23548666.565    23548665.052
 04  3 26  1 27 30.0000000  0  6G22G14G31G15G 3G18
  21409130.782   -19187722.88344 -14890284.07942  21409131.305    21409126.467
  20218896.520   -17878239.66444 -13842664.24242  20218898.636    20218895.076
  22681847.443    -7174680.82443  -5573826.33742  22681849.204    22681847.481
  20710865.230   -16291971.93444 -12533526.55142  20710866.452    20710864.939
  22858309.855    -7073822.59043  -5488334.19042  22858311.403    22858311.293
  23562013.667    -4802734.50943  -3721690.06042  23562015.657    23562014.148
 04  3 26  1 28  0.0000000  0  6G22G14G31G15G 3G18
  21416360.257   -19149731.36243 -14860680.30542  21416360.778    21416356.026
  20219055.529   -17877404.09644 -13842013.14042  20219057.666    20219054.049
  22686164.536    -7151994.88543  -5556149.00542  22686166.210    22686164.452
  20721783.863   -16234594.21844 -12488816.67742  20721785.146    20721783.551
  22872194.698    -7000857.40743  -5431478.27142  22872196.271    22872196.153
  23575375.611    -4732517.34943  -3666975.44642  23575377.660    23575376.156
 04  3 26  1 28 30.0000000  0  7G22G14G31G15G 3G25G18
  21423616.048   -19111602.03044 -14830969.14742  21423616.524    21423611.814
  20219308.621   -17876073.99244 -13840976.68242  20219310.794    20219307.117
  22690580.494    -7128789.02943  -5538066.54242  22690582.165    22690580.430
  20732788.900   -16176762.97644 -12443753.40942  20732790.150    20732788.470
  22886128.996    -6927632.13143  -5374419.67742  22886130.641    22886130.505
  23669345.062
  23588749.573    -4662236.76843  -3612211.38942  23588751.665    23588750.263
 04  3 26  1 29  0.0000000  0  7G22G14G31G15G 3G25G18
  21430898.205   -19073334.53944 -14801150.32942  21430898.692    21430893.872
  20219655.706   -17874250.07044 -13839555.43342  20219657.894    20219654.184
  22695095.063    -7105064.65543  -5519580.04242  22695096.789    22695095.008
  20743880.146   -16118478.49844 -12398336.97342  20743881.402    20743879.643
  22900112.487    -6854149.12043  -5317160.26942  22900114.065    22900113.893
  23650623.826     -822250.35253   -580764.11852  23650624.550    23650624.125
  23602135.757    -4591892.24343  -3557397.53042  23602137.772    23602136.460
 04  3 26  1 29 30.0000000  0  7G22G14G31G15G 3G25G18
  21438207.748   -19034922.78844 -14771219.09742  21438208.298    21438203.416
  20220097.745   -17871927.20944 -13837745.40042  20220099.930    20220096.192
  22699709.131    -7080816.84743  -5500685.65942  22699710.969    22699709.264
  20755058.639   -16059735.18344 -12352563.00642  20755059.921    20755058.161
  22914145.613    -6780404.88643  -5259697.29142  22914147.190    22914146.978
  23631914.623     -920563.68943   -657371.79242  23631916.661    23631916.108
  23615535.250    -4521477.47343  -3502528.93042  23615537.268    23615535.987
 04  3 26  1 30  0.0000000  0  7G22G14G31G15G 3G25G18
  21445544.700   -18996366.64644 -14741175.35942  21445545.292    21445540.457
  20220634.593   -17869105.95044 -13835547.01142  20220636.789    20220633.040
  22704422.718    -7056047.04843  -5481384.53642  22704424.530    22704422.876
  20766324.457   -16000533.42844 -12306431.81142  20766325.693    20766323.914
  22928227.958    -6706402.09643  -5202032.84342  22928229.574    22928229.263
  23613218.258    -1018806.57743   -733924.51842  23613221.013    23613221.283
  23628948.154    -4450992.23243  -3447605.41042  23628950.074    23628948.968
 04  3 26  1 30 30.0000000  0  7G22G14G31G15G 3G25G18
  21452907.160   -18957676.67844 -14711027.34842  21452907.737    21452902.985
  20221264.144   -17865797.73344 -13832969.16942  20221266.318    20221262.565
  22709233.424    -7030767.04243  -5461685.85042  22709235.172    22709233.401
  20777675.344   -15940884.34544 -12259952.05442  20777676.548    20777674.776
  22942356.815    -6632154.16743  -5144177.38642  22942358.452    22942358.193
  23594535.258    -1116986.61043   -810428.28442  23594537.694    23594538.435
  23642372.480    -4380446.92243  -3392635.08642  23642374.318    23642373.246
 04  3 26  1 31  0.0000000  0  7G22G14G31G15G 3G25G18
  21460296.821   -18918844.04944 -14680768.16742  21460297.384    21460292.653
  20221987.824   -17861994.67844 -13830005.74142  20221990.006    20221986.263
  22714142.470    -7004969.61343  -5441583.97742  22714144.263    22714142.445
  20789112.862   -15880779.70043 -12213117.30242  20789114.045    20789112.324
  22956533.572    -6557654.81843  -5086126.02142  22956535.235    22956534.956
  23575865.994    -1215091.86143   -886873.75542  23575868.361    23575869.476
  23655809.948    -4309832.51243  -3337610.91442  23655811.818    23655810.572
 04  3 26  1 31 30.0000000  0  7G22G14G31G15G 3G25G18
  21467713.176   -18879871.02344 -14650399.58442  21467713.769    21467709.021
  20222804.989   -17857700.28143 -13826659.45542  20222807.169    20222803.476
  22719149.314    -6978658.41643  -5421081.75842  22719151.124    22719149.359
  20800636.604   -15820222.30843 -12165929.76242  20800637.761    20800636.048
  22970757.247    -6482909.08043  -5027882.66242  22970758.931    22970758.606
  23557211.346    -1313121.78843   -963260.51442  23557213.464    23557214.761
  23669260.148    -4239151.22843  -3282534.62942  23669261.961    23669260.673
 04  3 26  1 32  0.0000000  0  7G22G14G31G15G 3G25G18
  21475155.727   -18840760.17244 -14619923.60742  21475156.357    21475151.620
  20223715.003   -17852917.98443 -13822932.98042  20223717.164    20223713.501
  22724253.180    -6951837.70243  -5400182.53142  22724254.947    22724253.220
  20812245.894   -15759215.33243 -12118391.89742  20812247.018    20812245.318
  22985026.756    -6407922.25443  -4969451.42542  22985028.469    22985028.128
  23538571.327    -1411075.78843  -1039588.14842  23538573.608    23538574.601
  23682722.536    -4168405.72243  -3227408.29142  23682724.348    23682723.055
 04  3 26  1 32 30.0000000  0  7G22G14G31G15G 3G25G18
  21482624.942   -18801509.00944 -14589338.29942  21482625.575    21482620.939
  20224718.158   -17847646.18243 -13818825.07942  20224720.306    20224716.716
  22729454.238    -6924506.17443  -5378885.24742  22729455.982    22729454.374
  20823941.017   -15697757.00743 -12070502.33142  20823942.179    20823940.490
  22999342.196    -6332694.51243  -4910832.48142  22999343.814    22999343.536
  23519946.562    -1508948.75043  -1115852.60742  23519949.053    23519949.803
  23696197.845    -4097593.18943  -3172229.74842  23696199.615    23696198.020
 04  3 26  1 33  0.0000000  0  7G22G14G31G15G 3G25G18
  21490120.853   -18762117.63144 -14558643.73242  21490121.464    21490116.926
  20225814.216   -17841885.97943 -13814336.61042  20225816.359    20225812.873
  22734752.174    -6896665.96043  -5357191.59942  22734753.838    22734752.273
  20835721.913   -15635848.33543 -12022261.84942  20835722.996    20835721.344
  23013702.683    -6257229.08843  -4852028.31842  23013704.412    23013704.198
  23501337.897    -1606737.50843  -1192051.43542  23501340.546    23501340.901
  23709685.811    -4026713.25743  -3116998.64842  23709687.676    23709685.951
 04  3 26  1 33 30.0000000  0  7G22G14G31G15G 3G25G18
  21497643.038   -18722587.98444 -14527841.42242  21497643.640    21497639.203
  20227002.643   -17835640.63243 -13809470.09842  20227004.769    20227001.342
  22740146.204    -6868320.51443  -5335104.26942  22740147.908    22740146.313
  20847587.839   -15573492.28543 -11973672.75942  20847588.935    20847587.329
  23028107.675    -6181530.59743  -4793042.56242  23028109.326    23028109.166
  23482745.079    -1704441.28643  -1268184.09642  23482747.940    23482748.147
  23723186.218    -3955768.22843  -3061716.82142  23723188.171    23723186.040
 04  3 26  1 34  0.0000000  0  7G22G14G31G15G 3G25G18
  21505191.620   -18682919.80344 -14496931.15942  21505192.228    21505187.829
  20228283.305   -17828910.66643 -13804225.96842  20228285.412    20228282.050
  22745636.034    -6839471.21643  -5312624.31342  22745637.780    22745636.130
  20859538.876   -15510689.04143 -11924735.20742  20859539.934    20859538.417
  23042556.443    -6105601.44843  -4733877.05242  23042558.101    23042558.096
  23464169.470    -1802057.06043  -1344248.13242  23464172.119    23464172.202
  23736699.155    -3884757.33643  -3006383.71542  23736701.175    23736698.768
 04  3 26  1 34 30.0000000  0  7G22G14G31G15G 3G25G18
  21512766.982   -18643111.22444 -14465911.50042  21512767.547    21512763.203
  20229656.282   -17821695.37543 -13798603.66042  20229658.394    20229655.092
  22751221.775    -6810117.65843  -5289751.43242  22751223.613    22751221.922
  20871575.284   -15447437.37643 -11875448.23742  20871576.306    20871574.833
  23057049.062    -6029442.41143  -4674532.43142  23057050.642    23057050.780
  23445611.235    -1899579.65843  -1420239.54642  23445613.894    23445614.162
  23750224.908    -3813678.91743  -2950997.96242  23750226.898    23750224.408
 04  3 26  1 35  0.0000000  0  7G22G14G31G15G 3G25G18
  21520368.672   -18603163.99443 -14434783.80242  21520369.235    21520364.973
  20231121.094   -17813997.78943 -13792605.53742  20231123.155    20231119.916
  22756902.919    -6780263.42943  -5266488.42942  22756904.760    22756903.028
  20883696.454   -15383740.08243 -11825814.02942  20883697.467    20883696.077
  23071584.544    -5953058.00143  -4615012.18842  23071586.098    23071586.384
  23427070.953    -1997008.04943  -1496157.56542  23427073.375    23427073.805
  23763763.351    -3742534.40743  -2895560.71742  23763765.396    23763762.802
 04  3 26  1 35 30.0000000  0  7G22G14G31G15G 3G25G18
  21527996.325   -18563080.26443 -14403549.74342  21527996.886    21527992.703
  20232677.102   -17805820.95943 -13786233.97142  20232679.156    20232675.888
  22762678.497    -6749912.51543  -5242838.38142  22762680.378    22762678.810
  20895901.888   -15319600.01943 -11775834.80542  20895902.882    20895901.620
  23086161.889    -5876453.52243  -4555320.46242  23086163.447    23086163.916
  23408548.511    -2094341.55643  -1572001.65442  23408550.891    23408551.646
  23777313.868    -3671326.17643  -2840073.82542  23777315.819    23777313.246
 04  3 26  1 36  0.0000000  0  7G22G14G31G15G 3G25G18
  21535650.554   -18522856.87544 -14372206.85142  21535651.173    21535647.021
  20234324.657   -17797162.91443 -13779487.43642  20234326.710    20234323.471
  22768549.036    -6719063.27543  -5218800.03942  22768550.830    22768549.415
  20908192.021   -15255014.86243 -11725508.74342  20908193.048    20908191.873
  23100781.308    -5799628.37143  -4495456.78342  23100782.861    23100783.470
  23390045.801    -2191574.00643  -1647766.96342  23390047.801    23390048.751
  23790877.218    -3600050.56343  -2784534.42242  23790879.111    23790876.076
 04  3 26  1 36 30.0000000  0  7G22G14G31G15G 3G25G18
  21543331.305   -18482494.34243 -14340755.53842  21543331.910    21543327.806
  20236063.480   -17788025.21243 -13772367.14242  20236065.528    20236062.285
  22774513.970    -6687717.82443  -5194375.03842  22774515.668    22774514.315
  20920566.611   -15189985.82243 -11674836.80342  20920567.672    20920566.594
  23115442.151    -5722585.79643  -4435423.68442  23115443.654    23115444.347
  23371562.844    -2288702.64543  -1723451.41142  23371564.750    23371565.698
  23804453.332    -3528707.85943  -2728942.74242  23804455.110    23804452.029
 04  3 26  1 37  0.0000000  0  7G22G14G31G15G 3G25G18
  21551037.868   -18441995.89443 -14309198.31642  21551038.486    21551034.430
  20237892.647   -17778412.68743 -13764876.84942  20237894.714    20237891.461
  22780572.231    -6655881.41543  -5169567.47442  22780573.954    22780572.637
  20933024.906   -15124517.36343 -11623822.45942  20933025.952    20933024.901
  23130143.097    -5645332.53743  -4375226.42242  23130144.614    23130145.330
  23353099.487    -2385728.27443  -1799055.59142  23353101.508    23353102.378
  23818041.531    -3457301.67243  -2673301.60742  23818043.335    23818039.750
 04  3 26  1 37 30.0000000  0  7G22G14G31G15G 3G25G18
  21558771.299   -18401356.11643 -14277530.96642  21558771.901    21558767.915
  20239813.012   -17768321.00843 -13757013.19542  20239815.061    20239811.816
  22786724.418    -6623550.72143  -5144374.75142  22786726.203    22786724.922
  20945567.614   -15058605.06743 -11572462.26542  20945568.701    20945567.647
  23144884.576    -5567865.67643  -4314862.71142  23144886.098    23144887.005
  23334657.066    -2482642.94643  -1874573.29242  23334659.328    23334660.210
  23831642.742    -3385826.29743  -2617606.54542  23831644.564    23831640.690
 04  3 26  1 38  0.0000000  0  7G22G14G31G15G 3G25G18
  21566531.412   -18360576.27743 -14245754.47242  21566532.005    21566528.072
  20241824.088   -17757752.58243 -13748778.04242  20241826.135    20241822.884
  22792970.254    -6590728.63343  -5118799.12442  22792972.022    22792970.693
  20958194.363   -14992250.91743 -11520757.77542  20958195.482    20958194.454
  23159665.985    -5490189.04843  -4254335.54442  23159667.541    23159668.559
  23316235.973    -2579444.66843  -1950003.00342  23316238.449    23316239.510
  23845257.021    -3314282.77643  -2561858.40842  23845258.846    23845254.845
 04  3 26  1 38 30.0000000  0  8G22G14G31G15G 3G25G11G18
  21574317.455   -18319660.71143 -14213872.21842  21574318.002    21574314.053
  20243924.913   -17746712.87343 -13740175.65642  20243926.899    20243923.632
  22799308.510    -6557421.26143  -5092845.34742  22799310.238    22799308.856
  20970904.277   -14925459.99143 -11468712.94042  20970905.388    20970904.400
  23174485.884    -5412310.08443  -4193650.73242  23174487.449    23174488.606
  23297836.184    -2676134.57643  -2025345.59842  23297838.539    23297839.961
  24006632.941     -375809.66853   -232354.55052  24006635.386    24006632.115
  23858883.487    -3242675.58643  -2506060.67042  23858885.132    23858880.598
 04  3 26  1 39  0.0000000  0  8G22G14G31G15G 3G25G11G18
  21582129.502   -18278608.06943 -14181883.14842  21582130.062    21582126.162
  20246115.371   -17735201.76643 -13731205.95042  20246117.372    20246114.099
  22805738.997    -6523628.95543  -5066513.70842  22805740.733    22805739.332
  20983697.343   -14858232.14443 -11416327.64342  20983698.491    20983697.474
  23189344.095    -5334230.13243  -4132809.28942  23189345.577    23189346.844
  23279458.643    -2772708.26843  -2100597.65842  23279460.843    23279462.579
  23988316.197     -472062.16743   -307356.39942  23988318.514    23988316.273
  23872522.473    -3171003.19043  -2450212.10242  23872524.119    23872518.963
 04  3 26  1 39 30.0000000  0  8G22G14G31G15G 3G25G11G18
  21589968.228   -18237414.73843 -14149784.44542  21589968.789    21589965.067
  20248395.954   -17723217.09743 -13721867.23042  20248397.942    20248394.672
  22812262.095    -6489350.07143  -5039802.91242  22812263.797    22812262.483
  20996574.057   -14790564.78443 -11363599.88442  20996575.222    20996574.223
  23204240.650    -5255948.71043  -4071810.85442  23204242.090    23204243.479
  23261104.313    -2869159.68643  -2175754.41442  23261106.691    23261108.299
  23970026.891     -568169.53043   -382245.15742  23970029.626    23970027.708
  23886174.571    -3099261.58243  -2394309.64342  23886176.285    23886170.716
 04  3 26  1 40  0.0000000  0  8G22G14G31G15G 3G25G11G18
  21597832.791   -18196085.86443 -14117580.12742  21597833.311    21597829.728
  20250765.473   -17710765.16443 -13712164.40742  20250767.461    20250764.212
  22818876.330    -6454591.76143  -5012718.54942  22818878.062    22818876.768
  21009533.176   -14722464.07243 -11310534.43842  21009534.416    21009533.434
  23219174.066    -5177473.42943  -4010661.36542  23219175.499    23219177.032
  23242773.199    -2965490.79643  -2250817.45342  23242775.468    23242776.836
  23951765.491     -664134.69643   -457023.11942  23951767.626    23951766.390
  23899838.461    -3027456.00643  -2338357.24842  23899840.261    23899834.935
 04  3 26  1 40 30.0000000  0  8G22G14G31G15G 3G25G11G18
  21605723.583   -18154619.29243 -14085268.51742  21605724.038    21605720.559
  20253224.050   -17697845.08543 -13702096.80342  20253226.040    20253222.788
  22825581.971    -6419353.75443  -4985260.39742  22825583.636    22825582.342
  21022575.061   -14653928.70843 -11257130.30142  21022576.306    21022575.353
  23234144.373    -5098805.25043  -3949361.57642  23234145.750    23234147.182
  23224465.597    -3061697.16843  -2325783.30442  23224468.010    23224469.195
  23933531.792     -759953.14643   -531686.78942  23933533.880    23933532.774
  23913515.060    -2955584.28343  -2282353.40842  23913516.928    23913511.218
 04  3 26  1 41  0.0000000  0  8G22G14G31G15G 3G25G11G18
  21613641.291   -18113011.85743 -14052847.16142  21613641.684    21613638.189
  20255772.034   -17684455.19143 -13691663.11042  20255774.044    20255770.820
  22832379.044    -6383634.95943  -4957427.60942  22832380.642    22832379.418
  21035700.071   -14584956.47843 -11203385.74642  21035701.332    21035700.396
  23249151.098    -5019943.84043  -3887911.20842  23249152.655    23249154.144
  23206183.004    -3157772.29343  -2400646.89242  23206185.378    23206186.630
  23915326.792     -855619.55143   -606231.95242  23915328.924    23915328.160
  23927204.871    -2883643.12443  -2226295.43042  23927206.553    23927201.020
 04  3 26  1 41 30.0000000  0  8G22G14G31G15G 3G25G11G18
  21621584.752   -18071268.95843 -14020320.23042  21621585.165    21621581.630
  20258408.211   -17670602.24844 -13680868.59742  20258410.204    20258406.950
  22839266.304    -6347442.64643  -4929225.85042  22839267.867    22839266.546
  21048906.962   -14515553.87543 -11149305.83442  21048908.234    21048907.308
  23264193.284    -4940897.53943  -3826316.77242  23264194.734    23264196.293
  23187924.888    -3253718.30243  -2475409.84342  23187927.284    23187928.692
  23897150.244     -951136.99843   -680661.03742  23897152.184    23897151.894
  23940906.692    -2811637.93743  -2170187.53342  23940908.344    23940903.283
 04  3 26  1 42  0.0000000  0  8G22G14G31G15G 3G25G11G18
  21629554.383   -18029388.52643 -13987686.13342  21629554.798    21629551.187
  20261132.599   -17656285.36943 -13669712.57942  20261134.625    20261131.351
  22846243.505    -6310776.75643  -4900655.07242  22846245.153    22846243.911
  21062195.966   -14445719.93943 -11094889.82342  21062197.229    21062196.297
  23279270.311    -4861667.34143  -3764579.05442  23279271.804    23279273.360
  23169692.292    -3349530.74143  -2550068.72842  23169694.690    23169696.073
  23879003.123    -1046500.88643   -754970.48442  23879004.743    23879004.756
  23954621.560    -2739566.17443  -2114027.75842  23954623.168    23954618.171
 04  3 26  1 42 30.0000000  0  8G22G14G31G15G 3G25G11G18
  21637550.437   -17987369.17743 -13954943.79542  21637550.881    21637547.149
  20263945.211   -17641504.97644 -13658195.38442  20263947.252    20263943.932
  22853310.655    -6273638.18143  -4871715.97342  22853312.285    22853311.151
  21075567.046   -14375454.73244 -11040137.75542  21075568.342    21075567.311
  23294381.916    -4782254.91943  -3702699.32142  23294383.471    23294385.187
  23151485.926    -3445205.80343  -2624620.57142  23151488.240    23151489.546
  23860885.572    -1141708.10443   -829157.85442  23860887.222    23860887.453
  23968349.036    -2667427.15843  -2057815.58842  23968350.824    23968346.451
 04  3 26  1 43  0.0000000  0  8G22G14G31G15G 3G25G11G18
  21645574.332   -17945203.70543 -13922087.59242  21645574.770    21645570.914
  20266847.186   -17626255.10144 -13646312.35642  20266849.223    20266845.891
  22860468.865    -6236021.76343  -4842404.52842  22860470.409    22860469.404
  21089021.381   -14304751.80044 -10985044.60342  21089022.747    21089021.652
  23309529.233    -4702655.61243  -3640673.97042  23309530.800    23309532.538
  23133307.382    -3540732.79643  -2699057.03642  23133309.817    23133311.273
  23842799.459    -1236749.05443   -903215.66242  23842800.997    23842801.787
  23982088.884   -20415545.09352                                  23982085.596
 04  3 26  1 43 30.0000000  0  8G22G14G31G15G 3G25G11G18
  21653622.052   -17902912.75343 -13889133.61742  21653622.490    21653618.605
  20269834.293   -17610557.85944 -13634080.73142  20269836.364    20269832.978
  22867713.745    -6197950.05643  -4812738.30842  22867715.225    22867714.277
  21102554.889   -14233633.01244 -10929627.41342  21102556.296    21102555.136
  23324707.560    -4622893.06543  -3578521.44042  23324709.125    23324710.924
  23115153.636    -3636129.51943  -2773391.99742  23115155.967    23115157.714
  23824741.578    -1331642.07143   -977158.17742  23824743.061    23824744.443
  23995842.053   -26154244.80753 -20359232.04052  23995843.854    23995840.576
 04  3 26  1 44  0.0000000  0  8G22G14G31G15G 3G25G11G18
  21661697.048   -17860478.61544 -13856068.06642  21661697.492    21661693.588
  20272909.657   -17594396.88844 -13621487.75942  20272911.721    20272908.296
  22875048.165    -6159407.69043  -4782705.35442  22875049.674    22875048.733
  21116170.651   -14162081.94944 -10873873.37542  21116172.069    21116170.895
  23339919.655    -4542952.55543  -3516230.21742  23339921.346    23339923.260
  23097028.606    -3731375.52943  -2847609.54542  23097030.798    23097032.782
  23806715.833    -1426367.18743  -1050969.87942  23806716.871    23806718.907
  24009607.675   -26081904.37153 -20302862.93452  24009609.951    24009607.587
 04  3 26  1 44 30.0000000  0  8G22G14G31G15G 3G25G11G18
  21669797.205   -17817912.61244 -13822899.76542  21669797.647    21669793.601
  20276070.826   -17577784.75544 -13608543.23242  20276072.922    20276069.464
  22882469.604    -6120407.84843  -4752315.91442  22882471.092    22882470.274
  21129866.295   -14090110.95144 -10817792.11942  21129867.719    21129866.539
  23355163.207    -4462848.12143  -3453811.27842  23355164.801    23355166.709
  23078931.020    -3826479.17243  -2921716.14242  23078932.921    23078935.027
  23788719.754    -1520933.26443  -1124657.59642  23788721.164    23788723.453
  24023385.254   -26009502.87053 -20246446.24452  24023387.446    24023386.014
 04  3 26  1 45  0.0000000  0  8G22G14G31G15G 3G25G11G18
  21677924.040   -17775206.20144 -13789622.05442  21677924.517    21677920.350
  20279319.146   -17560714.59944 -13595241.79942  20279321.267    20279317.827
  22889979.261    -6080944.14743  -4721565.03742  22889980.700    22889980.018
  21143643.215   -14017712.88344 -10761378.07842  21143644.587    21143643.444
  23370438.967    -4382574.09043  -3391260.18242  23370440.533    23370442.438
  23060862.586    -3921429.18343  -2995703.00642  23060864.369    23060866.483
  23770756.741    -1615329.67443  -1198213.19642  23770757.839    23770760.121
  24037175.257   -25937031.80253                                  24037178.438
 04  3 26  1 45 30.0000000  0  8G22G14G31G15G 3G25G11G18
  21686076.760   -17732363.36944 -13756238.04742  21686077.274    21686073.131
  20282653.636   -17543191.90144 -13581587.73542  20282655.752    20282652.271
  22897575.899    -6041022.84043  -4690457.57042  22897577.426    22897576.819
  21157500.367   -13944892.92843 -10704635.29542  21157501.723    21157500.647
  23385745.726    -4302137.78343  -3328582.64442  23385747.166    23385749.021
  23042823.126    -4016226.70343  -3069571.08142  23042825.002    23042826.921
  23752825.986    -1709558.50243  -1271638.18042  23752826.806    23752828.753
  24050979.552   -25864495.27153 -20133453.36452  24050981.515    24050980.592
 04  3 26  1 46  0.0000000  0  8G22G14G31G15G 3G25G11G18
  21694255.575   -17689383.50143 -13722747.25342  21694256.035    21694252.002
  20286074.053   -17525217.38544 -13567581.60642  20286076.182    20286072.686
  22905259.352    -6000645.14543  -4658994.47342  22905260.883    22905260.447
  21171437.790   -13871651.50243 -10647564.09542  21171439.078    21171438.040
  23401082.812    -4221541.32743  -3265780.32442  23401084.330    23401086.210
  23024813.558    -4110868.16443  -3143317.55842  23024815.376    23024817.122
  23734927.534    -1803616.57943  -1344930.12042  23734928.529    23734929.863
  24064795.764   -25791892.72353 -20076879.96752  24064797.251    24064796.685
 04  3 26  1 46 30.0000000  0  8G22G14G31G15G 3G25G11G18
  21702461.210   -17646262.80044 -13689146.72342  21702461.638    21702457.697
  20289580.846   -17506789.09244 -13553221.88242  20289582.966    20289579.459
  22913029.853    -5959810.29143  -4627175.16342  22913031.381    22913031.066
  21185455.892   -13797986.10244 -10590162.52742  21185457.140    21185456.140
  23416450.729    -4140783.65543  -3202852.36342  23416452.317    23416453.964
  23006834.848    -4205346.92643  -3216937.25442  23006836.790    23006838.324
  23717062.848    -1897497.39843  -1418083.95542  23717063.982    23717064.808
  24078624.819   -25719220.10143 -20020251.97442  24078626.693    24078626.205
 04  3 26  1 47  0.0000000  0  8G22G14G31G15G 3G25G11G18
  21710692.114   -17603009.23144 -13655442.65642  21710692.578    21710688.705
  20293172.213   -17487916.51344 -13538515.96142  20293174.311    20293170.818
  22920885.461    -5918527.94643  -4595007.13942  22920887.039    22920886.935
  21199552.899   -13723906.24443 -10532438.00442  21199554.118    21199553.084
  23431847.169    -4059875.91743  -3139807.48342  23431848.715    23431850.304
  22988886.079    -4299668.18243  -3290434.23942  22988888.224    22988889.472
  23699230.604    -1991207.10643  -1491104.41542  23699231.843    23699232.471
  24092466.065   -25646485.19743 -19963575.48742  24092467.831    24092467.346
 04  3 26  1 47 30.0000000  0  8G22G14G31G15G 3G25G11G18
  21718949.504   -17559616.57244 -13621630.20542  21718949.971    21718946.143
  20296848.934   -17468594.80544 -13523460.07142  20296851.078    20296847.636
  22928827.208    -5876794.23243  -4562487.39542  22928828.734    22928828.642
  21213729.696   -13649406.87043 -10474386.58842  21213730.914    21213729.892
  23447272.400    -3978814.57243  -3076642.88942  23447274.209    23447275.812
  22970969.062    -4393823.11443  -3363801.60742  22970971.224    22970972.322
  23681432.333    -2084737.21243  -1563984.94142  23681433.757    23681434.319
  24106320.057   -25573681.89743 -19906845.68642  24106321.624    24106321.537
 04  3 26  1 48  0.0000000  0  8G22G14G31G15G 3G25G11G18
  21727233.865   -17516081.79643 -13587707.00942  21727234.358    21727230.548
  20300611.466   -17448822.71544 -13508053.23042  20300613.572    20300610.134
  22936855.003    -5834608.24743  -4529615.24942  22936856.423    22936856.486
  21227986.645   -13574486.24843 -10416006.91942  21227987.885    21227986.838
  23462727.276    -3897599.71443  -3013358.69242  23462728.975    23462730.579
  22953084.766    -4487805.74343  -3437034.72242  22953086.941    22953087.961
  23663669.288    -2178082.58743  -1636721.53442  23663670.774    23663671.085
  24120187.474   -25500807.28453 -19850060.29652  24120189.290    24120189.288
 04  3 26  1 48 30.0000000  0  8G22G14G31G15G 3G25G11G18
  21735543.500   -17472414.16943 -13553680.29742  21735543.996    21735540.179
  20304457.651   -17428610.90244 -13492303.75142  20304459.761    20304456.310
  22944966.563    -5791981.74743  -4496399.83942  22944968.007    22944968.129
  21242321.757   -13499154.88143 -10357307.18842  21242322.969    21242321.916
  23478208.758    -3816243.66343  -2949964.46442  23478210.422    23478212.151
  22935231.925    -4581622.30043  -3510138.43742  22935234.243    22935235.140
  23645940.124    -2271250.04743  -1709319.49242  23645941.711    23645941.875
  24134067.145   -25427870.33043 -19793226.35042  24134069.136    24134069.024
 04  3 26  1 49  0.0000000  0  8G22G14G31G15G 3G25G11G18
  21743879.278   -17428609.04443 -13519546.43742  21743879.757    21743876.002
  20308388.069   -17407956.39444 -13476209.31542  20308390.161    20308386.759
  22953162.268    -5748912.43243  -4462839.35742  22953163.748    22953163.965
  21256735.589   -13423409.84243 -10298285.11742  21256736.776    21256735.650
  23493717.512    -3734744.70743  -2886458.88542  23493719.247    23493720.879
  22917412.301    -4675265.77943  -3583107.27142  22917414.551    22917415.323
  23628246.518    -2364232.92243  -1781773.59142  23628247.981    23628247.929
  24147959.132   -25354866.77743 -19736340.51642  24147961.346    24147961.154
 04  3 26  1 49 30.0000000  0  8G22G14G31G15G 3G25G11G18
  21752241.886   -17384663.23143 -13485302.95242  21752242.347    21752238.611
  20312403.035   -17386857.66844 -13459768.73842  20312405.137    20312401.723
  22961442.523    -5705399.30943  -4428933.07842  22961443.992    22961444.252
  21271228.575   -13347249.09143 -10238939.11342  21271229.690    21271228.503
  23509253.339    -3653102.84743  -2822841.94342  23509255.061    23509256.720
  22899626.651    -4768729.79943  -3655936.28142  22899629.068    22899629.592
  23610588.585    -2457026.26143  -1854080.03242  23610590.227    23610589.827
  24161864.796   -25281793.36343 -19679400.20342  24161866.820    24161866.324
 04  3 26  1 50  0.0000000  0  8G22G14G31G15G 3G25G11G18
  21760630.165   -17340582.34343 -13450954.21442  21760630.652    21760626.834
  20316501.177   -17365321.89144 -13442987.60042  20316503.278    20316499.832
  22969805.727    -5661450.30643  -4394687.15442  22969807.260    22969807.456
  21285799.282   -13270679.51143 -10179274.54242  21285800.385    21285799.181
  23524815.119    -3571326.32843  -2759120.07742  23524816.672    23524818.280
  22881874.589    -4862017.57243  -3728627.92742  22881877.037    22881877.343
  23592966.415    -2549632.03943  -1926240.32342  23592968.053    23592967.601
  24175782.700   -25208654.71143 -19622409.04942  24175784.795    24175783.923
 04  3 26  1 50 30.0000000  0  8G22G14G31G15G 3G25G11G18
  21769045.026   -17296361.93843 -13416496.75242  21769045.506    21769041.566
  20320682.952   -17343346.38344 -13425863.81842  20320685.046    20320681.622
  22978252.302    -5617063.38843  -4360099.96042  22978253.844    22978254.098
  21300448.436   -13193697.96743 -10119288.96242  21300449.525    21300448.307
  23540402.655    -3489413.61343  -2695292.09142  23540404.113    23540405.860
  22864157.494    -4955121.42743  -3801176.26142  22864159.965    22864160.054
  23575380.931    -2642043.88343  -1998249.47342  23575382.706    23575382.304
  24189713.667   -25135446.63143 -19565363.79742  24189715.844    24189714.890
 04  3 26  1 51  0.0000000  0  8G22G14G31G15G 3G25G11G18
  21777486.000   -17252004.41143 -13381932.44542  21777486.458    21777482.431
  20324947.664   -17320935.14344 -13408400.50142  20324949.738    20324946.315
  22986781.308    -5572243.40243  -4325175.32942  22986782.868    22986783.102
  21315175.223   -13116308.34043 -10058985.39642  21315176.289    21315175.141
  23556015.241    -3407370.13143  -2631362.19242  23556016.746    23556018.123
  22846475.286    -5048040.86843  -3873580.89242  22846477.850    22846477.951
  23557832.440    -2734262.47843  -2070108.03742  23557834.282    23557833.907
  24203657.104   -25062172.05343 -19508266.77042  24203659.450    24203658.309
 04  3 26  1 51 30.0000000  0  8G22G14G31G15G 3G25G11G18
  21785952.891   -17207510.67743 -13347262.00342  21785953.316    21785949.271
  20329294.735   -17298090.85144 -13390599.74542  20329296.834    20329293.451
  22995392.195    -5526993.75143  -4289915.90242  22995393.676    22995393.889
  21329979.174   -13038513.11143  -9998365.79242  21329980.201    21329979.176
  23571651.795    -3325199.92943  -2567333.56642  23571653.348    23571654.480
  22828828.664    -5140774.63243  -3945840.85042  22828831.121    22828831.163
  23540321.080    -2826286.35143  -2141814.89742  23540323.081    23540322.398
  24217613.426   -24988831.71643 -19451118.44242  24217615.642    24217614.469
 04  3 26  1 52  0.0000000  0  8G22G14G31G15G 3G25G11G18
  21794446.136   -17162878.19443 -13312483.45042  21794446.548    21794442.533
  20333724.453   -17274812.48744 -13372460.75042  20333726.555    20333723.152
  23004084.750    -5481314.21643  -4254321.48942  23004086.316    23004086.498
  21344860.520   -12960311.19943  -9937429.29642  21344861.522    21344860.603
  23587312.349    -3242903.40743  -2503206.51942  23587313.846    23587314.883
  22811218.379    -5233316.91243  -4017951.56842  22811220.800    22811220.818
  23522847.542    -2918110.65643  -2213366.23242  23522849.769    23522849.029
  24231582.991   -24915423.04043 -19393916.89042  24231585.052    24231583.448
 04  3 26  1 52 30.0000000  0  8G22G14G31G15G 3G25G11G18
  21802965.641   -17118107.71243 -13277597.36642  21802966.087    21802962.016
  20338236.249   -17251102.70844 -13353985.59442  20338238.340    20338234.971
  23012858.523    -5435208.19643  -4218394.75742  23012860.089    23012860.214
  21359818.832   -12881705.05543  -9876177.81342  21359819.779    21359818.944
  23602996.030    -3160484.52843  -2438984.10742  23602997.590    23602998.846
  22793644.828    -5325665.83943  -4089911.65442  22793647.342    22793647.333
  23505412.433    -3009734.16843  -2284761.09942  23505414.754    23505413.734
  24245564.705   -24841947.12643 -19336662.94842  24245566.587    24245565.290
 04  3 26  1 53  0.0000000  0  8G22G14G31G15G 3G25G11G18
  21811511.435   -17073199.19943 -13242603.72142  21811511.913    21811507.731
  20342829.882   -17226962.89544 -13335175.34542  20342831.947    20342828.605
  23021712.964    -5388677.53943  -4182137.13242  23021714.588    23021714.721
  21374853.856   -12802695.77543  -9814612.19942  21374854.757    21374853.985
  23618702.716    -3077945.84343  -2374668.35242  23618704.133    23618705.616
  22776108.781    -5417818.18143  -4161718.52842  22776111.291    22776111.208
  23488015.805    -3101154.09243  -2355997.33542  23488018.386    23488017.182
  24259559.621   -24768403.42743 -19279356.20242  24259561.305    24259560.444
 04  3 26  1 53 30.0000000  0  8G22G14G31G15G 3G25G11G18
  21820083.745   -17028151.44343 -13207501.57442  21820084.236    21820079.913
  20347505.161   -17202393.75644 -13316030.55442  20347507.232    20347503.915
  23030648.124    -5341723.89343  -4145549.91242  23030649.599    23030649.811
  21389965.521   -12723283.69543  -9752732.70342  21389966.403    21389965.623
  23634431.683    -2995289.06743  -2310260.56942  23634433.261    23634434.740
  22758610.757    -5509770.72843  -4233369.73142  22758613.272    22758613.068
  23470658.305    -3192367.28643  -2427072.44342  23470661.045    23470659.993
  24273567.531   -24694790.90643 -19221995.78342  24273569.759    24273568.673
 04  3 26  1 54  0.0000000  0  8G22G14G31G15G 3G25G11G18
  21828682.668   -16982963.77043 -13172290.40342  21828683.164    21828678.733
  20352261.962   -17177396.29644 -13296552.00742  20352264.039    20352260.722
  23039663.283    -5294349.22543  -4108634.62542  23039664.749    23039665.025
  21405153.676   -12643469.75343  -9690540.07842  21405154.539    21405153.686
  23650182.752    -2912516.71943  -2245762.73242  23650184.232    23650185.942
  22741151.468    -5601519.85843  -4304862.42142  22741154.051    22741153.571
  23453340.988    -3283370.82143  -2497984.22342  23453343.751    23453342.496
  24287588.573   -24621108.93053 -19164581.26252  24287590.758    24287589.961
 04  3 26  1 54 30.0000000  0  7G22G14G31G15G 3G25G11
  21837306.490   -16937645.34943 -13136977.35342  21837307.035    21837302.506
  20357098.081   -17151981.74044 -13276748.45342  20357100.237    20357096.936
  23048756.207    -5246565.11243  -4071400.27142  23048757.768    23048758.116
  21420416.150   -12563264.84443  -9628042.78842  21420417.046    21420416.133
  23665953.634    -2829640.85643  -2181184.24742  23665954.911    23665956.723
  22723729.773    -5693071.88643  -4376201.54542  22723732.407    22723731.533
  23436061.983    -3374171.60943  -2568738.01342  23436064.952    23436063.460
 04  3 26  1 55  0.0000000  0  8G22G14G31G15G 3G25G11G18
  21845957.699   -16892183.25543 -13101552.35342  21845958.239    21845953.589
  20362015.881   -17126138.69144 -13256611.00742  20362017.990    20362014.646
  23057928.890    -5198361.24643  -4033838.85442  23057930.565    23057931.130
  21435755.200   -12482657.76843  -9565232.13242  21435756.077    21435755.108
  23681745.982    -2746651.73143  -2116517.48542  23681747.224    23681749.074
  22706348.355    -5784411.29243  -4447374.98642  22706351.153    22706350.028
  23418824.400    -3464754.68343  -2639322.14742  23418827.327    23418825.888
  24315667.883   -24473550.72153 -19049600.91052  24315669.741    24315669.464
 04  3 26  1 55 30.0000000  0  7G22G14G31G15G 3G25G11
  21854637.342   -16846571.36743 -13066010.62842  21854637.869    21854633.191
  20367015.968   -17099863.00644 -13236136.44442  20367018.084    20367014.736
  23067182.331    -5149734.06143  -3995947.58442  23067183.885    23067184.662
  21451171.715   -12401643.61043  -9502104.25542  21451172.611    21451171.583
  23697560.535    -2663546.19143  -2051760.03542  23697561.754    23697563.562
  22689009.146    -5875529.08043  -4518375.74042  22689011.932    22689010.726
  23401629.702    -3555111.45443  -2709729.91342  23401632.640    23401631.619
 04  3 26  1 56  0.0000000  0  7G22G14G31G15G 3G25G11
  21863341.052   -16800833.10043 -13030370.43042  21863341.537    21863336.859
  20372093.628   -17073179.72244 -13215344.27042  20372095.733    20372092.376
  23076511.494    -5100709.57943  -3957746.74042  23076512.840    23076513.803
  21466660.810   -12320247.56743  -9438678.81142  21466661.757    21466660.756
  23713392.192    -2580350.53243  -1986932.35642  23713393.456    23713395.194
  22671708.108    -5966445.83443  -4589219.88542  22671710.851    22671709.690
  23384474.352    -3645263.15443  -2779977.88642  23384477.158    23384476.334
 04  3 26  1 56 30.0000000  0  7G22G14G31G15G 3G25G11
  21872071.169   -16754956.22243 -12994622.22442  21872071.640    21872066.936
  20377250.879   -17046078.49244 -13194226.42542  20377252.942    20377249.549
  23085918.263    -5051277.63943  -3919228.38742  23085919.411    23085920.467
  21482224.674   -12238458.91743  -9374947.44042  21482225.603    21482224.657
  23729243.009    -2497055.45243  -1922027.19442  23729244.027    23729245.624
  22654448.166    -6057146.77343  -4659895.86942  22654450.759    22654449.767
  23367360.609    -3735195.03143  -2850054.57442  23367363.451    23367362.670
 04  3 26  1 57  0.0000000  0  7G22G14G31G15G 3G25G11
  21880827.549   -16708941.01343 -12958766.22542  21880828.087    21880823.303
  20382487.200   -17018561.44144 -13172784.56342  20382489.287    20382485.898
  23095401.424    -5001442.24643  -3880395.65942  23095402.672    23095403.918
  21497862.995   -12156279.37843  -9310911.48242  21497863.874    21497862.964
  23745111.961    -2413664.14743  -1857047.05642  23745113.243    23745114.551
  22637229.804    -6147629.48743  -4730401.80142  22637232.180    22637231.358
  23350289.054    -3824905.50943  -2919958.76542  23350291.778    23350291.013
 04  3 26  1 57 30.0000000  0  7G22G14G31G15G 3G25G11
  21889610.218   -16662788.03643 -12922802.88242  21889610.777    21889605.868
  20387802.232   -16990630.73544 -13151020.37142  20387804.314    20387800.916
  23104961.122    -4951205.12943  -3841249.91142  23104962.314    23104963.858
  21513575.187   -12073711.46043  -9246572.88342  21513576.092    21513575.157
  23760998.698    -2330180.41443  -1791994.91042  23761000.064    23761000.962
  22620053.252    -6237891.67643  -4800735.89342  22620055.648    22620054.951
  23333260.066    -3914392.65843  -2989688.92842  23333262.634    23333261.832
 04  3 26  1 58  0.0000000  0  8G22G14G31G15G 3G25G11G18
  21898418.423   -16616500.84643 -12886734.95042  21898419.003    21898414.026
  20393194.961   -16962291.92644 -13128938.16942  20393197.051    20393193.586
  23114595.633    -4900573.45943  -3801796.68542  23114596.915    23114598.810
  21529360.385   -11990760.38843  -9181935.73942  21529361.226    21529360.268
  23776901.638    -2246610.70443  -1726875.75342  23776902.914    23776903.924
  22602918.618    -6327934.25743  -4870898.84542  22602920.908    22602920.303
  23316273.278    -4003658.12443  -3059246.34542  23316275.600    23316274.855
  24400222.320
 04  3 26  1 58 30.0000000  0  8G22G14G31G15G 3G25G11G18
  21907252.978   -16570075.00243 -12850558.97042  21907253.562    21907248.583
  20398665.808   -16933542.48144 -13106535.99142  20398667.935    20398664.408
  23124305.917    -4849545.36743  -3762034.58742  23124307.087    23124309.174
  21545218.950   -11907423.40543  -9116997.87842  21545219.856    21545218.839
  23792821.334    -2162953.45143  -1661688.39042  23792822.658    23792823.503
  22585827.124    -6417750.10243  -4940885.12942  22585829.403    22585828.799
  23299330.164    -4092694.78243  -3128625.46642  23299332.308    23299331.451
  24414357.634     -491278.49253   -403966.15452  24414358.875    24414358.570
 04  3 26  1 59  0.0000000  0  8G22G14G31G15G 3G25G11G18
  21916114.159   -16523509.06543 -12814273.82842  21916114.748    21916109.701
  20404214.688   -16904383.01844 -13083814.31442  20404216.795    20404213.266
  23134091.496    -4798121.90643  -3721964.40242  23134092.599    23134094.781
  21561150.906   -11823700.85343  -9051759.57742  21561151.858    21561150.828
  23808757.037    -2079210.70243  -1596434.39342  23808758.500    23808759.465
  22568779.529    -6507335.28443  -5010691.66942  22568781.883    22568781.153
  23282431.145    -4181499.35943  -3197823.76042  23282433.236    23282432.315
  24428506.865     -416922.92643   -346026.74842  24428508.276    24428508.456
 04  3 26  1 59 30.0000000  0  8G22G14G31G15G 3G25G11G18
  21925002.923   -16476798.17443 -12777875.74042  21925003.486    21924998.367
  20409842.155   -16874810.42444 -13060770.72542  20409844.246    20409840.750
  23143952.820    -4746301.01043  -3681584.54242  23143953.677    23143956.036
  21577156.835   -11739589.36543  -8986218.21142  21577157.837    21577156.892
  23824709.592    -1995379.97943  -1531111.87442  23824711.107    23824712.026
  22551777.359    -6596682.04843  -5080312.42442  22551779.742    22551778.850
  23265577.575    -4270064.49443  -3266835.46842  23265579.730    23265578.748
  24442670.058     -342493.11443   -288029.50642  24442671.925    24442671.554
 04  3 26  2  0  0.0000000  0  8G22G14G31G15G 3G25G11G18
  21933917.405   -16429952.65843 -12741372.75742  21933917.898    21933912.698
  20415545.956   -16844836.83644 -13037414.66842  20415548.026    20415544.530
  23153887.300    -4694095.60443  -3640905.04542  23153888.071    23153890.310
  21593234.334   -11655101.18943  -8920383.31642  21593235.432    21593234.658
  23840676.039    -1911474.90043  -1465731.40342  23840677.903    23840678.836
  22534819.063    -6685797.98943  -5149753.30542  22534821.464    22534820.502
  23248767.900    -4358398.33743  -3335666.95942  23248770.176    23248769.102
  24456845.919     -267999.40443   -229982.46542  24456847.742    24456847.410
 04  3 26  2  0 30.0000000  0  8G22G14G31G15G 3G25G11G18
  21942859.031   -16382964.34043 -12704758.49242  21942859.535    21942854.289
  20421327.253   -16814455.84444 -13013741.15342  20421329.364    20421325.840
  23163896.016    -4641500.03443  -3599921.52542  23163896.724    23163898.912
  21609384.921   -11570229.56943  -8854249.63842  21609385.985    21609385.372
  23856657.833    -1827490.15543  -1400288.85342  23856659.607    23856660.871
  22517906.671    -6774672.00043  -5219005.67342  22517909.142    22517908.260
  23232004.480    -4446490.45743  -3404310.10242  23232006.618    23232005.576
  24471035.271     -193433.31743   -171878.98442  24471037.182    24471036.803
 04  3 26  2  1  0.0000000  0  8G22G14G31G15G 3G25G11G18
  21951826.649   -16335839.38943 -12668037.75842  21951827.185    21951821.857
  20427184.523   -16783675.78844 -12989756.68042  20427186.622    20427183.089
  23173977.297    -4588523.22043  -3558640.95242  23173978.031    23173980.111
  21625606.937   -11484982.68143  -8787823.54542  21625607.990    21625607.512
  23872653.150    -1743434.93743  -1334791.38242  23872654.679    23872656.208
  22501039.591    -6863308.08243  -5288072.63842  22501042.017    22501041.264
  23215286.490    -4534344.84543  -3472767.99342  23215288.583    23215287.379
  24485237.305     -118800.88643   -113723.84942  24485239.279    24485238.750
 04  3 26  2  1 30.0000000  0  8G22G14G31G15G 3G25G11G18
  21960820.760   -16288574.70843 -12631208.13642  21960821.348    21960816.115
  20433117.982   -16752495.48244 -12965460.32242  20433120.073    20433116.520
  23184131.007    -4535165.56043  -3517063.61342  23184131.764    23184133.776
  21641900.539   -11399359.19143  -8721103.98542  21641901.629    21641901.271
  23888661.803    -1659309.33043  -1269239.08142  23888663.353    23888665.020
  22484219.052    -6951700.35943  -5356949.61842  22484221.302    22484220.711
  23198614.356    -4621956.47843  -3541036.71342  23198616.481    23198615.398
  24499452.695      -44099.90943    -55515.29142  24499454.578    24499453.926
 04  3 26  2  2  0.0000000  0  8G22G14G31G15G 3G25G11G18
  21969841.794   -16241168.94243 -12594268.57942  21969842.407    21969837.260
  20439127.418   -16720915.62344 -12940852.62542  20439129.534    20439125.948
  23194357.035    -4481427.75143  -3475190.05542  23194357.715    23194359.763
  21658265.760   -11313359.57643  -8654091.34842  21658266.871    21658266.519
  23904683.451    -1575115.07343  -1203633.25642  23904684.885    23904686.892
  22467445.581    -7039845.05743  -5425633.67742  22467447.775    22467447.225
  23181989.521    -4709321.61243  -3609113.39342  23181991.601    23181990.315
  24513681.190       30671.19143      2747.93942  24513682.757    24513682.240
 04  3 26  2  2 30.0000000  0  8G22G14G31G15G 3G25G11G18
  21978888.933   -16193625.74643 -12557221.93742  21978889.567    21978884.546
  20445211.940   -16688941.50044 -12915937.70942  20445214.017    20445210.388
  23204654.130    -4427316.42443  -3433025.44742  23204654.604    23204656.762
  21674701.523   -11226989.24943  -8586789.84242  21674702.665    21674702.305
  23920717.171    -1490858.36943  -1137978.80442  23920718.571    23920720.384
  22450719.094    -7127742.81143  -5494125.32742  22450721.275    22450720.666
  23165411.173    -4796441.44043  -3676998.90742  23165413.286    23165411.904
  24527922.261      105508.98943     61063.11142  24527924.020    24527923.635
 04  3 26  2  3  0.0000000  0  8G22G14G31G15G 3G25G11G18
  21987962.742   -16145942.17043 -12520065.90642  21987963.367    21987958.507
  20451371.587   -16656572.12944 -12890714.80842  20451373.673    20451370.054
  23215022.206    -4372831.12643  -3390569.41842  23215022.696    23215024.997
  21691208.034   -11140247.10443  -8519198.60742  21691209.193    21691208.791
  23936762.328    -1406539.35943  -1072275.76142  23936764.087    23936766.243
  22434040.468    -7215388.11843  -5562420.25142  22434042.733    22434042.171
  23148880.468    -4883310.95343  -3744689.38542  23148882.589    23148881.065
  24542176.956      180416.49543    119432.63142  24542178.583    24542178.197
 04  3 26  2  3 30.0000000  0  8G22G14G31G15G 3G25G11G18
  21997063.908   -16098115.57343 -12482798.43442  21997064.487    21997059.710
  20457606.603   -16623807.04744 -12865183.55642  20457608.672    20457604.978
  23225461.355    -4317972.28243  -3347822.34142  23225461.873    23225464.261
  21707785.441   -11053132.24743  -8451316.94442  21707786.615    21707786.190
  23952819.259   -13925518.34353 -10827324.44152  23952820.989    23952826.301
  22417410.976    -7302775.86543  -5630514.47642  22417413.215    22417412.686
  23132398.230    -4969925.14943  -3812180.89742  23132400.383    23132398.790
  24556445.064      255395.94343    177858.17242  24556446.747    24556446.194
 04  3 26  2  4  0.0000000  0  8G22G14G31G15G 3G25G11G18
  22006190.928   -16050152.92543 -12445424.94942  22006191.460    22006186.728
  20463915.160   -16590655.19244 -12839350.92842  20463917.250    20463913.519
  23235969.690    -4262749.74743  -3304791.85042  23235970.368    23235972.746
  21724432.188   -10965653.39643  -8383151.65542  21724433.311    21724432.890
  23968886.936   -13841085.70743 -10761532.89842  23968889.670    23968891.943
  22400829.656    -7389910.24143  -5698411.27242  22400831.911    22400831.457
  23115963.922    -5056288.89343  -3879477.27542  23115966.007    23115964.280
  24570725.621      330440.19543    236334.24042  24570727.416    24570726.937
 04  3 26  2  4 30.0000000  0  8G22G14G31G15G 3G25G11G18
  22015344.848   -16002048.78143 -12407941.20042  22015345.407    22015340.642
  20470298.020   -16557113.02544 -12813214.16242  20470300.079    20470296.340
  23246547.694    -4207160.82043  -3261475.85142  23246548.474    23246550.906
  21741148.769   -10877807.30943  -8314700.20542  21741149.888    21741149.536
  23984964.122   -13756598.65043 -10695698.92142  23984966.209    23984968.711
  22384298.114    -7476783.30343  -5766104.47142  22384300.312    22384299.967
  23099578.529    -5142394.74843  -3946572.69442  23099580.691    23099578.850
  24585020.008      405554.63643    294864.98342  24585021.541    24585020.843
 04  3 26  2  5  0.0000000  0  8G22G14G31G15G 3G25G11G18
  22024525.133   -15953806.01843 -12370349.43642  22024525.692    22024520.954
  20476754.252   -16523185.31944 -12786776.97942  20476756.305    20476752.543
  23257194.722    -4151211.20843  -3217878.81842  23257195.358    23257197.710
  21757934.393   -10789598.49943  -8245966.11442  21757935.510    21757935.188
  24001050.577   -13672063.17353 -10629827.20852  24001052.948    24001055.173
  22367816.293    -7563395.09643  -5833594.06342  22367818.404    22367818.307
  23083242.021    -5228243.01743  -4013467.40242  23083244.227    23083242.268
  24599326.481      480736.65843    353448.39042  24599328.336    24599327.567
 04  3 26  2  5 30.0000000  0  7G22G14G31G15G 3G25G11
  22033736.563   -15905399.84143 -12332630.34142  22033737.117    22033732.386
  20483288.153   -16488849.35744 -12760021.66942  20483290.226    20483286.409
  23267914.421    -4094878.77743  -3173983.47142  23267915.057    23267917.460
  21774793.507   -10701004.07743  -8176931.54742  21774794.583    21774794.217
  24017151.137   -13587457.17053 -10563900.58052  24017153.036    24017154.693
  22351389.305    -7649718.25643  -5900858.75442  22351391.431    22351391.470
  23066959.660    -5313806.83743  -4080140.45642  23066961.870    23066959.880
 04  3 26  2  6  0.0000000  0  7G22G14G31G15G 3G25G11
  22042970.806   -15856873.90743 -12294817.93342  22042971.380    22042966.591
  20489891.020   -16454150.92144 -12732983.91442  20489893.101    20489889.253
  23278698.062    -4038210.20743  -3129826.21842  23278698.707    23278701.000
  21791717.225   -10612069.80143  -8107632.15942  21791718.315    21791717.899
  24033255.462   -13502827.73353 -10497955.65152  24033257.498    24033259.594
  22335009.666    -7735793.98543  -5967930.64042  22335011.630    22335011.651
  23050723.683    -5399127.47243  -4146624.00442  23050725.929    23050723.874
 04  3 26  2  6 30.0000000  0  7G22G14G31G15G 3G25G11
  22052231.346   -15808209.36843 -12256897.51142  22052231.961    22052227.217
  20496566.012   -16419073.45444 -12705650.82042  20496568.098    20496564.239
  23289548.851    -3981189.89843  -3085394.86042  23289549.276    23289551.490
  21808708.679   -10522779.07143  -8038055.01142  21808709.869    21808709.433
  24049367.900   -13418159.21943 -10431980.28942  24049369.439    24049371.502
  22318680.984    -7821601.21043  -6034793.30542  22318682.988    22318682.916
  23034537.964    -5484184.41043  -4212902.09142  23034540.146    23034538.081
 04  3 26  2  7  0.0000000  0  7G22G14G31G15G 3G25G11
  22061518.844   -15759403.62543 -12218867.06042  22061519.448    22061514.670
  20503313.356   -16383615.80844 -12678021.47742  20503315.436    20503311.565
  23300466.323    -3923817.82443  -3040689.39442  23300466.897    23300468.891
  21825768.181   -10433130.75243  -7968199.22242  21825769.404    21825768.961
  24065487.671   -13333451.63743 -10365974.50642  24065488.736    24065490.992
  22302404.525    -7907134.57943  -6101442.58442  22302406.464    22302406.262
  23018403.282    -5568972.52343  -4278970.68642  23018405.496    23018403.422
 04  3 26  2  7 30.0000000  0  7G22G14G31G15G 3G25G11
  22070833.478   -15710455.23543 -12180725.46442  22070834.086    22070829.281
  20510132.879   -16347778.94144 -12650096.63842  20510134.954    20510131.071
  23311450.692    -3866095.43743  -2995710.98642  23311451.080    23311453.041
  21842895.639   -10343125.27343  -7898065.12342  21842896.858    21842896.483
  24081614.292   -13248706.35943 -10299939.33542  24081615.323    24081617.721
  22286180.897    -7992390.21243  -6167875.44542  22286182.809    22286182.530
  23002320.441    -5653488.05643  -4344826.90142  23002322.682    23002320.464
 04  3 26  2  8  0.0000000  0  7G22G14G31G15G 3G25G11
  22080174.825   -15661366.16843 -12142474.24742  22080175.420    22080170.723
  20517023.879   -16311566.57344 -12621879.20042  20517025.934    20517021.985
  23322500.788    -3808027.43743  -2950463.23342  23322501.019    23322503.050
  21860090.343   -10252766.68643  -7827655.88442  21860091.534    21860091.209
  24097747.484   -13163928.24453 -10233878.58152  24097748.492    24097750.505
  22270010.304    -8077367.05143  -6234091.07242  22270012.277    22270011.934
  22986289.614    -5737730.67843  -4410470.45642  22986291.753    22986289.477
 04  3 26  2  8 30.0000000  0  7G22G14G31G15G 3G25G11
  22089543.013   -15612136.27043 -12104113.29542  22089543.569    22089538.935
  20523985.884   -16274980.60244 -12593370.64442  20523987.950    20523984.020
  23333615.703    -3749616.69543  -2904948.43042  23333616.331    23333618.331
  21877351.951   -10162056.61943  -7756972.75442  21877353.134    21877352.854
  24113886.043   -13079120.16843 -10167794.53442  24113887.112    24113888.566
  22253893.395    -8162062.36643  -6300087.31742  22253895.378    22253894.969
  22970311.131    -5821698.09143  -4475899.55842  22970313.278    22970311.022
 04  3 26  2  9  0.0000000  0  7G22G14G31G15G 3G25G11
  22098938.237   -15562764.38043 -12065641.70442  22098938.772    22098934.190
  20531018.779   -16238022.22344 -12564571.90142  20531020.832    20531016.962
  23344795.687    -3690865.21343  -2859168.11842  23344796.167    23344798.274
  21894680.255   -10070996.24443  -7686016.66142  21894681.424    21894681.176
  24130029.690   -12994284.34853 -10101688.81252  24130031.433    24130032.517
  22237830.552    -8246472.93543  -6365861.68542  22237832.647    22237832.227
  22954385.536    -5905387.43343  -4541111.97942  22954387.606    22954385.464
 04  3 26  2  9 30.0000000  0  7G22G14G31G15G 3G25G11
  22108360.585   -15513249.74643 -12027058.88442  22108361.111    22108356.563
  20538122.324   -16200692.87344 -12535484.09142  20538124.351    20538120.437
  23356040.114    -3631775.15443  -2813123.96042  23356040.622    23356042.766
  21912074.963    -9979586.75043  -7614788.52742  21912076.160    21912075.951
  24146178.603   -12909422.70143 -10035562.98242  24146180.120    24146181.044
  22221822.611    -8330595.52443  -6431411.64642  22221824.655    22221824.274
  22938513.434    -5988795.46643  -4606105.18142  22938515.467    22938513.559
 04  3 26  2 10  0.0000000  0  7G22G14G31G15G 3G25G11
  22117809.642   -15463594.41643 -11988366.42942  22117810.198    22117805.771
  20545295.699   -16162996.27244 -12506110.10742  20545297.750    20545293.817
  23367348.172    -3572351.25043  -2766819.67442  23367348.703    23367350.729
  21929535.302    -9887832.19843  -7543291.51742  21929536.484    21929536.375
  24162331.371   -12824540.21043  -9969420.93742  24162332.960    24162333.629
  22205869.396    -8414429.51043  -6496736.72042  22205871.574    22205871.160
  22922694.906    -6071922.03843  -4670879.07442  22922696.968    22922695.170
 04  3 26  2 10 30.0000000  0  7G22G14G31G15G 3G25G11
  22127285.428   -15413799.11243 -11949564.90742  22127285.958    22127281.534
  20552538.421   -16124935.34644 -12476452.23942  20552540.468    20552536.569
  23378718.950    -3512597.46743  -2720258.33342  23378719.509    23378721.179
  21947060.824    -9795735.15643  -7471527.63542  21947062.011    21947061.930
  24178487.221   -12739640.55843  -9903265.49542  24178488.853    24178489.785
  22189971.563    -8497972.87643  -6561835.33242  22189973.781    22189973.331
  22906930.293    -6154765.43343  -4735432.31542  22906932.351    22906930.640
 04  3 26  2 11  0.0000000  0  7G22G14G31G15G 3G25G11
  22136788.635   -15363859.29043 -11910650.77342  22136789.172    22136784.755
  20559850.946   -16086507.60744 -12446508.54142  20559852.968    20559849.088
  23390153.034    -3452512.07443  -2673438.60742  23390153.746    23390154.972
  21964651.992    -9703293.30943  -7399495.06942  21964653.210    21964653.060
  24194646.523   -12654722.26643  -9837095.53942  24194648.163    24194649.203
  22174130.452    -8581218.58843  -6626702.00242  22174132.648    22174132.135
  22891220.765    -6237319.13443  -4799759.80642  22891222.792    22891221.255
 04  3 26  2 11 30.0000000  0  7G22G14G31G15G 3G25G11
  22146319.097   -15313776.05043 -11871624.88842  22146319.627    22146315.286
  20567232.682   -16047716.29744 -12416281.54442  20567234.663    20567230.839
  23401649.153    -3392099.16843  -2626363.67042  23401650.071    23401651.195
  21982308.240    -9610509.70643  -7327196.20742  21982309.427    21982309.233
  24210808.785   -12569789.39143  -9770914.21842  24210810.535    24210811.604
  22158346.133    -8664165.24943  -6691335.65242  22158348.396    22158347.831
  22875566.555    -6319582.26443  -4863860.87142  22875568.571    22875567.202
 04  3 26  2 12  0.0000000  0  7G22G14G31G15G 3G25G11
  22155876.613   -15263550.70943 -11832488.27842  22155877.163    22155872.874
  20574682.920   -16008564.65444 -12385773.75942  20574684.933    20574681.089
  23413206.749    -3331363.02543  -2579036.86642  23413207.969    23413209.019
  22000028.850    -9517387.60643  -7254633.57642  22000030.059    22000029.790
  24226972.955   -12484846.39943  -9704724.99442  24226974.878    24226975.921
  22142619.001    -8746811.67243  -6755735.34142  22142621.303    22142620.660
  22859967.874    -6401553.58143  -4927734.55542  22859969.857    22859968.568
 04  3 26  2 12 30.0000000  0  7G22G14G31G15G 3G25G11
  22165460.840   -15213185.31543 -11793242.53542  22165461.382    22165457.040
  20582200.942   -15969057.07944 -12354988.62642  20582202.966    20582199.137
  23424825.086    -3270308.91643  -2531462.31542  23424826.449    23424827.281
  22017813.076    -9423931.29543  -7181810.52742  22017814.244    22017813.983
  24243138.331   -12399898.08343  -9638531.63442  24243140.024    24243141.052
  22126948.924    -8829157.93843  -6819901.15042  22126951.276    22126950.554
  22844424.616    -6483233.24143  -4991380.97042  22844426.632    22844425.472
 04  3 26  2 13  0.0000000  0  7G22G14G31G15G 3G25G11
  22175072.547   -15162675.09643 -11753883.94042  22175073.112    22175068.810
  20589787.203   -15929190.93744 -12323924.09242  20589789.219    20589785.389
  23436504.193    -3208934.87943  -2483638.46442  23436505.742    23436506.558
  22035661.343    -9330138.09743  -7108724.96542  22035662.541    22035662.312
  24259304.804   -12314942.34143  -9572332.54642  24259306.395    24259307.916
  22111337.542    -8911196.68043  -6883827.32342  22111339.841    22111338.967
  22828938.339    -6564614.21643  -5054794.65142  22828940.361    22828939.249
 04  3 26  2 13 30.0000000  0  7G22G14G31G15G 3G25G11
  22184711.804   -15112020.22543 -11714412.62042  22184712.373    22184708.081
  20597441.331   -15888968.24144 -12292581.72342  20597443.339    20597439.469
  23448243.611    -3147244.33043  -2435567.97342  23448245.339    23448245.846
  22053573.266    -9236010.28543  -7035378.67142  22053574.451    22053574.383
  24275471.748   -12229982.85143  -9506130.42742  24275473.170    24275475.481
  22095785.107    -8992925.33243  -6947511.87342  22095787.425    22095786.407
  22813509.219    -6645694.58643  -5117974.09542  22813511.301    22813510.148
 04  3 26  2 14  0.0000000  0  7G22G14G31G15G 3G25G11
  22194377.950   -15061223.66743 -11674830.88642  22194378.523    22194374.264
  20605162.257   -15848394.30944 -12260965.66642  20605164.269    20605160.425
  23460042.213    -3085243.08343  -2387255.38142  23460043.819    23460044.362
  22071547.925    -9141552.89943  -6961775.56242  22071549.087    22071549.139
  24291638.426   -12145025.44843  -9439929.97442  24291639.896    24291642.565
  22080291.546    -9074344.38043  -7010955.17342  22080293.901    22080292.805
  22798137.132    -6726475.31843  -5180920.05842  22798139.247    22798138.055
 04  3 26  2 14 30.0000000  0  7G22G14G31G15G 3G25G11
  22204071.780   -15010281.44443 -11635135.65842  22204072.355    22204068.248
  20612950.444   -15807466.99144 -12229074.23942  20612952.447    20612948.624
  23471900.194    -3022930.18943  -2338699.96242  23471901.706    23471902.116
  22089585.712    -9046763.82343  -6887913.99442  22089586.870    22089586.947
  24307805.435   -12060068.71143  -9373730.09442  24307806.366    24307809.614
  22064858.135    -9155447.48943  -7074152.28542  22064860.547    22064859.327
  22782823.222    -6806949.73643  -5243627.32742  22782825.355    22782824.302
 04  3 26  2 15  0.0000000  0  7G22G14G31G15G 3G25G11
  22213792.504   -14959198.83543 -11595331.03742  22213793.012    22213789.041
  20620804.337   -15766194.24144 -12196913.63842  20620806.366    20620802.547
  23483816.149    -2960314.19343  -2289908.35142  23483817.482    23483817.627
  22107685.152    -8951651.01743  -6813800.17142  22107686.273    22107686.344
  24323970.388   -11975120.97043  -9307537.16842  24323971.177    24323975.330
  22049484.151    -9236237.70443  -7137105.59942  22049486.648    22049485.350
  22767567.011    -6887121.48443  -5306098.74142  22767569.119    22767568.140
 04  3 26  2 15 30.0000000  0  7G22G14G31G15G 3G25G11
  22223540.161   -14907974.85943 -11555416.25942  22223540.645    22223536.698
  20628723.798   -15724577.05444 -12164484.65342  20628725.793    20628722.031
  23495789.108    -2897397.20343  -2240882.21942  23495790.708    23495790.541
  22125845.989    -8856215.68443  -6739435.02942  22125847.046    22125847.118
  24340133.021   -11890184.17843  -9241352.75342  24340134.006    24340138.744
  22034170.416    -9316711.89443  -7199812.65842  22034172.791    22034171.487
  22752368.990    -6966987.28343  -5368331.76842  22752371.102    22752370.067
 04  3 26  2 16  0.0000000  0  7G22G14G31G15G 3G25G11
  22233315.823   -14856603.29043 -11515386.48342  22233316.357    22233312.291
  20636709.612   -15682611.11244 -12131783.91042  20636711.619    20636707.916
  23507819.923    -2834175.83043  -2191618.88342  23507821.804    23507821.513
  22144068.959    -8760453.45043  -6664815.15442  22144070.042    22144070.067
  24356294.657   -11805255.17243  -9175174.43942  24356295.177    24356300.342
  22018918.484    -9396860.85943  -7262266.29042  22018920.816    22018919.528
  22737230.732    -7046538.59343  -5430319.72742  22737232.845    22737231.916
 04  3 26  2 16 30.0000000  0  7G22G14G31G15G 3G25G11
  22243118.647   -14805088.92343 -11475245.42142  22243119.215    22243115.179
  20644760.473   -15640303.33444 -12098816.80342  20644762.479    20644758.866
  23519907.191    -2770657.85643  -2142124.44642  23519909.149    23519908.872
  22162352.855    -8664371.17243  -6589945.89042  22162353.940    22162353.949
  24372453.134   -11720341.56443  -9109008.15642  24372453.450    24372459.055
  22003728.102    -9476686.79343  -7324468.20942  22003730.390    22003729.012
  22722151.808    -7125778.17743  -5492064.78542  22722153.884    22722153.056
 04  3 26  2 17  0.0000000  0  7G22G14G31G15G 3G25G11
  22252949.548   -14753427.73243 -11434989.95342  22252950.072    22252946.076
  20652876.852   -15597651.80044 -12065581.82842  20652878.838    20652875.175
  23532051.030    -2706842.40643  -2092398.20142  23532053.018    23532052.778
  22180698.001    -8567967.08043  -6514825.86842  22180699.084    22180699.095
  24388609.089   -11635442.05043  -9042852.78842  24388609.182    24388614.907
  21988600.268    -9556183.52043  -7386413.60742  21988602.616    21988601.138
  22707133.359    -7204699.85443  -5553562.11942  22707135.376    22707134.652
 04  3 26  2 17 30.0000000  0  7G22G14G31G15G 3G25G11
  22262807.345   -14701624.67043 -11394623.92642  22262807.904    22262803.872
  20661057.174   -15554663.93544 -12032084.78442  20661059.189    20661055.506
  23544249.903    -2642737.84243  -2042446.68042  23544251.944    23544251.636
  22199103.006    -8471248.50943  -6439460.79742  22199104.063    22199104.108
  24404761.220   -11550564.91543  -8976714.87742  24404760.962    24404766.547
  21973534.534    -9635354.11543  -7448104.87842  21973536.886    21973535.305
  22692175.004    -7283306.59643  -5614814.05342  22692176.963    22692176.217
 04  3 26  2 18  0.0000000  0  7G22G14G31G15G 3G25G11
  22272692.653   -14649677.13743 -11354145.33342  22272693.203    22272689.151
  20669301.616   -15511339.13144 -11998325.19342  20669303.630    20669299.981
  23556503.894    -2578344.56543  -1992270.18842  23556505.836    23556505.283
  22217567.920    -8374214.86543  -6363850.20842  22217569.012    22217569.049
  24420908.715   -11465710.20343  -8910594.43042  24420908.619    24420913.912
  21958531.837    -9714193.24443  -7509537.86242  21958534.199    21958532.533
  22677277.254    -7361593.76843  -5675816.96242  22677279.218    22677278.530
 04  3 26  2 18 30.0000000  0  7G22G14G31G15G 3G25G11
  22282605.606   -14597584.86043 -11313553.95442  22282606.114    22282602.017
  20677609.800   -15467679.43244 -11964304.64042  20677611.813    20677608.108
  23568812.151    -2513665.44543  -1941870.97142  23568814.166    23568813.379
  22236092.406    -8276868.24043  -6287995.73842  22236093.468    22236093.575
  24437051.606   -11380880.86943  -8844493.75142  24437051.945    24437056.620
  21943592.744    -9792698.34743  -7570710.57042  21943595.079    21943593.344
  22662440.835    -7439558.91043  -5736568.94442  22662442.784    22662442.077
 04  3 26  2 19  0.0000000  0  7G22G14G31G15G 3G25G11
  22292545.985   -14545348.14443 -11272850.02342  22292546.497    22292542.387
  20685981.355   -15423686.83944 -11930024.68342  20685983.369    20685979.628
  23581174.130    -2448703.44343  -1891251.33142  23581176.292    23581175.452
  22254675.976    -8179210.83443  -6211899.10042  22254677.057    22254677.226
  24453189.189   -11296079.64043  -8778415.00942  24453190.096    24453193.536
  21928717.659    -9870867.27243  -7631621.31942  21928719.969    21928718.165
  22647666.303    -7517199.77043  -5797068.24242  22647668.223    22647667.365
 04  3 26  2 19 30.0000000  0  7G22G14G31G15G 3G25G11
  22302514.098   -14492965.52643 -11232032.41642  22302514.614    22302510.563
  20694416.008   -15379362.37544 -11895486.13342  20694418.045    20694414.294
  23593589.606    -2383460.70843  -1840412.93042  23593591.727    23593590.841
  22273318.551    -8081243.62443  -6135561.06442  22273319.619    22273319.816
  24469321.236   -11211308.44543  -8712359.63842  24469322.359    24469325.015
  21913907.187    -9948696.47043  -7692267.34442  21913909.525    21913907.637
  22632953.980    -7594513.05943  -5857312.27042  22632955.960    22632955.048
 04  3 26  2 20  0.0000000  0  7G22G14G31G15G 3G25G11
  22312510.321   -14440434.88343 -11191099.46142  22312510.833    22312506.852
  20702913.763   -15334706.27144 -11860689.16342  20702915.798    20702912.072
  23606058.350    -2317938.06643  -1789356.41742  23606060.402    23606059.619
  22292019.967    -7982966.79743  -6058981.76942  22292021.003    22292021.273
  24485446.948   -11126567.96443  -8646328.20442  24485448.620    24485450.357
  21899162.268   -10026181.11543  -7752644.89142  21899164.576    21899162.685
  22618304.848    -7671494.51943  -5917297.74742  22618306.812    22618305.790
 04  3 26  2 20 30.0000000  0  7G22G14G31G15G 3G25G11
  22322535.829   -14387750.23343 -11150046.49542  22322536.350    22322532.412
  20711475.447   -15289714.39144 -11825630.55042  20711477.447    20711473.783
  23618580.920    -2252132.64243  -1738079.55142  23618582.845    23618582.214
  22310781.038    -7884376.31743  -5982158.06042  22310782.057    22310782.459
  24501566.333   -12617274.90343  -9807918.14242  24501569.908    24501570.289
  21884484.413   -10103313.15943  -7812747.68942  21884486.691    21884484.852
  22603720.489    -7748136.07643  -5977018.35942  22603722.509    22603721.258
 04  3 26  2 21  0.0000000  0  6G22G14G31G15G25G11
  22332586.857   -14334931.59943 -11108889.13442  22332587.372    22332583.509
  20720096.762   -15244409.06344 -11790327.69042  20720098.758    20720095.148
  23631152.788    -2186067.54843  -1686600.33442  23631154.762    23631154.193
  22329597.614    -7785494.68043  -5905107.48142  22329598.552    22329599.103
  21869870.305   -10180110.22243  -7872589.46942  21869872.529    21869870.770
  22589197.294    -7824455.63143  -6036488.07142  22589199.432    22589197.929
 04  3 26  2 21 30.0000000  0  7G22G14G31G15G 3G25G11
  22342665.434   -14281968.78243 -11067619.42242  22342665.902    22342662.066
  20728779.225   -15198782.27944 -11754774.34142  20728781.228    20728777.659
  23643775.443    -2119736.09443  -1634913.57342  23643777.272    23643776.768
  22348470.926    -7686314.16343  -5827823.99642  22348471.847    22348472.556
  24533780.167   -12447992.23453  -9676009.81552  24533783.279    24533785.813
  21855322.269   -10256560.09343  -7932160.70442  21855324.481    21855322.725
  22574737.591    -7900441.21543  -6095697.52642  22574739.825    22574738.203
 04  3 26  2 22  0.0000000  0  7G22G14G31G15G 3G25G11
  22352772.269   -14228856.62943 -11026233.34242  22352772.793    22352768.997
  20737523.444   -15152831.08044 -11718968.19742  20737525.488    20737521.895
  23656449.133    -2053136.03243  -1583017.49042  23656451.034    23656450.309
  22367401.794    -7586831.81343  -5750305.31742  22367402.599    22367403.360
  24549874.978   -12363413.26753  -9610104.25952  24549878.802    24549880.536
  21840841.851   -10332654.89043  -7991455.26042  21840844.080    21840842.243
  22560343.014    -7976085.18543  -6154640.80442  22560345.254    22560343.535
 04  3 26  2 22 30.0000000  0  7G22G14G31G15G 3G25G11
  22362906.597   -14175600.26343 -10984734.89342  22362907.126    22362903.438
  20746327.942   -15106562.87944 -11682915.04742  20746330.006    20746326.436
  23669172.287    -1986275.66043  -1530918.58542  23669174.371    23669173.425
  22386388.677    -7487054.97043  -5672557.17642  22386389.414    22386390.185
  24565961.052   -12278883.06253  -9544236.68652  24565964.440    24565966.594
  21826428.334   -10408397.69743  -8050475.53942  21826430.662    21826428.757
  22546012.707    -8051390.82943  -6213320.44942  22546014.999    22546013.220
 04  3 26  2 23  0.0000000  0  7G22G14G31G15G 3G25G11
  22373069.556   -14122193.73443 -10943119.42842  22373070.078    22373066.402
  20755193.591   -15059973.75544 -11646611.82642  20755195.637    20755192.077
  23681945.499    -1919152.18243  -1478614.66742  23681947.529    23681946.643
  22405432.316    -7386980.06543  -5594576.76942  22405433.043    22405433.705
  24582038.242   -12194398.52353  -9478404.73852  24582041.314    24582043.603
  21812083.423   -10483780.54743  -8109215.33342  21812085.733    21812083.799
  22531748.479    -8126350.12343  -6271730.23042  22531750.746    22531748.767
 04  3 26  2 23 30.0000000  0  7G22G14G31G15G 3G25G11
  22383260.246   -14068641.13743 -10901390.13742  22383260.814    22383257.119
  20764119.115   -15013069.79944 -11610063.28042  20764121.163    20764117.583
  23694767.369    -1851772.67943  -1426111.22642  23694769.413    23694768.615
  22424531.600    -7286613.02743  -5516368.73942  22424532.289    22424532.797
  24598105.582   -12109966.49743  -9412613.64142  24598108.650    24598109.962
  21797806.662   -10558804.94743  -8167675.82242  21797808.985    21797807.072
  22517549.726    -8200964.71943  -6329871.39942  22517552.071    22517549.981
 04  3 26  2 24  0.0000000  0  7G22G14G31G15G 3G25G11
  22393479.178   -14014940.59543 -10859545.57942  22393479.707    22393476.017
  20773104.449   -14965851.44044 -11573269.74742  20773106.508    20773102.947
  23707637.792    -1784138.59143  -1373409.39542  23707639.745    23707639.254
  22443686.307    -7185954.58043  -5437933.63742  22443686.954    22443687.426
  24614162.614                    -9346864.34142                  24614166.212
  21783598.989   -10633466.84243  -8225853.83842  21783601.238    21783599.328
  22503417.413    -8275230.88443  -6387741.08342  22503419.822    22503417.551
 04  3 26  2 24 30.0000000  0  7G22G14G31G15G 3G25G11
  22403725.771   -13961093.97643 -10817587.19042  22403726.349    22403722.704
  20782148.813   -14918322.87944 -11536234.49242  20782150.907    20782147.355
  23720555.657    -1716255.19743  -1320513.32142  23720557.571    23720557.336
  22462895.435    -7085009.05643  -5359274.83942  22462896.151    22462896.666
  24630208.144   -11941268.21543  -9281160.68842  24630212.679    24630211.646
  21769460.241   -10707766.06943  -8283749.25242  21769462.533    21769460.586
  22489351.315    -8349148.77543  -6445339.39142  22489353.733    22489351.342
 04  3 26  2 25  0.0000000  0  7G22G14G31G15G 3G25G11
  22414000.847   -13907097.72443 -10775512.20542  22414001.436    22413997.860
  20791252.496   -14870482.65944 -11498956.38942  20791254.588    20791251.045
  23733521.099    -1648121.73343  -1267422.38342  23733523.004    23733522.960
  22482159.616    -6983775.13243  -5280391.31142  22482160.259    22482160.857
  24646243.184                    -9215501.66152                  24646246.263
  21755391.743   -10781696.49444  -8341357.28742  21755394.037    21755391.993
  22475352.548    -8422712.31143  -6502661.56442  22475354.957    22475352.634
 04  3 26  2 25 30.0000000  0  7G22G14G31G15G 3G25G11
  22424304.003   -13852954.49743 -10733322.69042  22424304.561    22424301.023
  20800414.480   -14822335.92844 -11461439.45042  20800416.559    20800413.061
  23746532.877    -1579744.52443  -1214141.52742  23746534.764    23746534.960
  22501477.775    -6882257.98743  -5201287.09342  22501478.334    22501478.928
  24662266.018
  21741393.196   -10855258.96443  -8398678.60942  21741395.530    21741393.386
  22461421.121    -8495922.31143  -6559708.27242  22461423.473    22461421.121
 04  3 26  2 26  0.0000000  0  6G22G14G31G15G25G11
  22434638.722   -13798645.35243 -10691003.89642  22434639.283    22434635.740
  20809638.080   -14773865.48344 -11423670.26942  20809640.149    20809636.717
  23759594.032    -1511107.31143  -1160658.06642  23759595.967    23759596.322
  22520852.998    -6780440.78143  -5121949.05142  22520853.570    22520854.176
  21727468.714   -10928432.07543  -8455696.53342  21727471.027    21727468.894
  22447561.108    -8568757.50843  -6616462.93342  22447563.429    22447560.952
 04  3 26  2 26 30.0000000  0  6G22G14G31G15G25G11
  22444997.586   -13744209.53043 -10648586.39142  22444998.210    22444994.537
  20818915.368   -14725112.88044 -11385681.21842  20818917.438    20818914.048
  23772696.493    -1442252.83843  -1107005.29242  23772698.471    23772699.004
  22540277.452    -6678365.32843  -5042409.78742  22540278.013    22540278.626
  21713611.321   -11001252.90344  -8512439.95042  21713613.562    21713611.465
  22433765.194    -8641255.47443  -6672954.81242  22433767.533    22433764.976
 04  3 26  2 27  0.0000000  0  6G22G14G31G15G25G11
  22455385.549   -13689620.89643 -10606049.80142  22455386.173    22455382.434
  20828250.865   -14676054.29244 -11347453.74242  20828252.929    20828249.633
  23785844.973    -1373158.02443  -1053165.28242  23785846.748    23785847.322
  22559755.442    -6576007.66343  -4962650.62942  22559756.127    22559756.830
  21699826.386   -11073693.23444  -8568886.87042  21699828.571    21699826.469
  22420038.810    -8713387.91643  -6729161.87242  22420041.112    22420038.666
 04  3 26  2 27 30.0000000  0  6G22G14G31G15G25G11
  22465801.494   -13634885.19543 -10563398.61542  22465802.148    22465798.343
  20837643.164   -14626697.50244 -11308993.90042  20837645.230    20837641.930
  23799037.316    -1303831.95443   -999145.04342  23799039.095    23799039.632
  22579285.564    -6473376.06743  -4882678.00842  22579286.324    22579287.120
  21686113.067   -11145757.10644  -8625040.45142  21686115.297    21686113.103
  22406381.261    -8785158.61043  -6785087.04342  22406383.620    22406381.067
 04  3 26  2 28  0.0000000  0  6G22G14G31G15G25G11
  22476245.748   -13580000.44443 -10520631.28642  22476246.448    22476242.616
  20847092.080   -14577042.96944 -11270302.05242  20847094.166    20847090.916
  23812273.505    -1234275.94343   -944945.65642  23812275.299    23812275.801
  22598867.745    -6370470.92443  -4802492.22742  22598868.589    22598869.449
  21672472.298   -11217439.84844  -8680897.04942  21672474.585    21672472.270
  22392793.357    -8856563.53343  -6840727.21242  22392795.690    22392793.123
 04  3 26  2 28 30.0000000  0  6G22G14G31G15G25G11
  22486718.555   -13524965.33543 -10477746.78442  22486719.310    22486715.455
  20856597.608   -14527091.18744 -11231378.57842  20856599.676    20856596.440
  23825553.079    -1164491.47643   -890568.25842  23825554.944    23825555.509
  22618501.962    -6267293.16943  -4722094.02642  22618502.761    22618503.590
  21658904.638   -11288737.95344  -8736453.92342  21658906.957    21658904.607
  22379275.748    -8927598.93043  -6896079.42542  22379278.004    22379275.511
 04  3 26  2 29  0.0000000  0  6G22G14G31G15G25G11
  22497219.722   -13469781.41643 -10434746.33142  22497220.484    22497216.544
  20866158.918   -14476846.19744 -11192226.63042  20866161.006    20866157.757
  23838875.229    -1094483.76943   -836016.89642  23838877.090    23838877.673
  22638187.250    -6163846.87943  -4641486.58242  22638188.079    22638188.808
  21645410.140   -11359651.19944  -8791710.91942  21645412.483    21645410.181
  22365828.639    -8998264.49943  -6951143.46542  22365830.846    22365828.256
 04  3 26  2 29 30.0000000  0  6G22G14G31G15G25G11
  22507749.159   -13414448.96343 -10391630.14042  22507749.892    22507745.886
  20875775.592   -14426310.25744 -11152847.96442  20875777.690    20875774.456
  23852239.032    -1024255.90143   -781293.97142  23852241.023    23852241.768
  22657923.126    -6060134.30243  -4560671.63942  22657924.076    22657924.628
  21631989.317   -11430177.24843  -8846666.20142  21631991.613    21631989.443
  22352452.019    -9068558.82743  -7005918.21742  22352454.270    22352451.603
 04  3 26  2 30  0.0000000  0  6G22G14G31G15G25G11
  22518306.971   -13358967.47043 -10348397.81342  22518307.662    22518303.621
  20885447.239   -14375485.15544 -11113243.97642  20885449.343    20885446.113
  23865644.150     -953810.81843   -726401.79442  23865646.125    23865647.139
  22677709.219    -5956157.83243  -4479651.06542  22677710.229    22677710.679
  21618642.633   -11500314.02943  -8901318.15842  21618644.836    21618642.763
  22339146.536    -9138479.41743  -7060401.74642  22339148.819    22339146.217
 04  3 26  2 30 30.0000000  0  6G22G14G31G15G25G11
  22528893.881   -13303333.03043 -10305046.31742  22528894.581    22528890.516
  20895174.295   -14324369.27644 -11073413.40942  20895176.366    20895173.140
  23879090.937     -883148.07443   -671340.01842  23879092.756    23879093.832
  22697545.841    -5851915.94243  -4398423.67642  22697546.890    22697547.194
  21605371.066   -11570055.63243  -8955662.18542  21605373.259    21605371.252
  22325913.277    -9208020.20843  -7114589.32242  22325915.603    22325913.026
 04  3 26  2 31  0.0000000  0  6G22G14G31G15G25G11
  22539508.772   -13247551.74243 -10261580.38642  22539509.514    22539505.329
  20904955.066   -14272970.94244 -11033362.74942  20904957.125    20904953.909
  23892577.444     -812276.64543   -616115.61342  23892579.141    23892580.106
  22717431.399    -5747416.84443  -4316995.85842  22717432.495    22717432.596
  21592174.027   -11639405.87243  -9009701.25142  21592176.183    21592174.210
  22312751.578    -9277185.39343  -7168484.22342  22312753.882    22312751.271
 04  3 26  2 31 30.0000000  0  6G22G14G31G15G25G11
  22550152.007   -13191621.44643 -10217998.33642  22550152.799    22550148.544
  20914789.608   -14221289.88644 -10993091.78542  20914791.669    20914788.491
  23906103.606     -741197.86443   -560729.66242  23906105.128    23906105.752
  22737365.950    -5642660.91343  -4235367.90742  22737367.042    22737366.891
  21579052.287   -11708360.41643  -9063431.98042  21579054.449    21579052.465
  22299662.180    -9345970.88243  -7222083.24942  22299664.496    22299661.810
 04  3 26  2 32  0.0000000  0  6G22G14G31G15G25G11
  22560824.543   -13135536.93743 -10174296.12442  22560825.326    22560821.091
  20924678.542   -14169323.30144 -10952598.33342  20924680.587    20924677.384
  23919669.488     -669909.09643   -505180.05742  23919671.051    23919671.511
  22757349.931    -5537645.40843  -4153537.70142  22757350.995    22757350.744
  21566007.204   -11776912.24543  -9116848.91342  21566009.356    21566007.333
  22286646.366    -9414369.27543  -7275380.63842  22286648.730    22286646.054
 04  3 26  2 32 30.0000000  0  6G22G14G31G15G25G11
  22571525.381   -13079303.40143 -10130477.79342  22571526.150    22571522.014
  20934620.415   -14117078.40044 -10911888.01242  20934622.441    20934619.286
  23933273.658     -598419.45543   -449473.95042  23933275.111    23933275.595
  22777381.817    -5432377.89543  -4071511.13142  22777382.925    22777382.636
  21553038.260   -11845064.13343  -9169954.19542  21553040.385    21553038.311
  22273703.685    -9482383.71343  -7328378.85242  22273706.033    22273703.237
 04  3 26  2 33  0.0000000  0  6G22G14G31G15G25G11
  22582255.100   -13022918.58343 -10086541.56742  22582255.846    22582251.809
  20944615.255   -14064555.29744 -10870960.90542  20944617.268    20944614.097
  23946915.973     -526729.64943   -393611.86042  23946917.458    23946917.858
  22797461.578    -5326858.77043  -3989288.49542  22797462.732    22797462.458
  21540146.176   -11912811.93143  -9222744.61342  21540148.337    21540146.228
  22260834.684    -9550010.45943  -7381074.95842  22260837.057    22260834.265
 04  3 26  2 33 30.0000000  0  6G22G14G31G15G25G11
  22593013.152   -12966385.36443 -10042489.71242  22593013.831    22593009.745
  20954662.040   -14011759.03444 -10829820.94642  20954664.068    20954660.853
  23960595.185     -454845.88443   -337598.67142  23960596.522    23960597.064
  22817588.287    -5221093.15043  -3906873.78642  22817589.465    22817589.179
  21527330.856   -11980156.70543  -9275220.97642  21527332.945    21527330.882
  22248039.414    -9617249.99143  -7433469.35542  22248041.770    22248038.887
 04  3 26  2 34  0.0000000  0  6G22G14G31G15G25G11
  22603801.142   -12909694.24543  -9998314.81942  22603801.845    22603797.691
  20964762.223   -13958682.24044 -10788462.39242  20964764.295    20964761.044
  23974312.384     -382761.89243   -281429.40442  23974313.717    23974314.370
  22837763.155    -5115074.14643  -3824261.63142  22837764.351    22837764.069
  21514594.357   -12047086.86743  -9327374.27442  21514596.451    21514594.441
  22235319.881    -9684091.05243  -7485553.24542  22235322.265    22235319.432
 04  3 26  2 34 30.0000000  0  6G22G14G31G15G25G11
  22614617.265   -12852855.50343  -9954024.90242  22614617.942    22614613.787
  20974913.461   -13905337.33244 -10746894.93342  20974915.512    20974912.228
  23988065.172     -310491.14143   -225114.64642  23988066.483    23988067.255
  22857983.653    -5008814.51643  -3741461.97142  22857985.034    22857984.590
  21501935.223   -12113610.72743  -9379210.97242  21501937.277    21501935.351
  22222674.606    -9750542.22743  -7537333.32942  22222676.974    22222674.138
 04  3 26  2 35  0.0000000  0  6G22G14G31G15G25G11
  22625462.633   -12795862.41043  -9909614.70542  22625463.355    22625459.242
  20985116.574   -13851719.71944 -10705114.97342  20985118.624    20985115.288
  24001854.229     -238029.89243   -168651.43942  24001855.624    24001856.161
  22878250.959    -4902309.55343  -3658471.13042  22878252.354    22878251.831
  21489355.100   -12179719.45543  -9430724.19342  21489357.134    21489355.260
  22210105.246    -9816594.31743  -7588802.44542  22210107.620    22210104.774
 04  3 26  2 35 30.0000000  0  6G22G14G31G15G25G11
  22636336.621   -12738719.53343  -9865087.80042  22636337.295    22636333.182
  20995370.237   -13797836.42844 -10663127.99442  20995372.258    20995368.948
  24015677.952     -165386.44343   -112046.24942  24015679.400    24015679.600
  22898563.565    -4795566.81543  -3575295.03642  22898564.963    22898564.286
  21476853.325   -12245416.10143  -9481916.31142  21476855.397    21476853.567
  22197611.069    -9882250.62743  -7639963.15742  22197613.458    22197610.771
 04  3 26  2 36  0.0000000  0  6G22G14G31G15G25G11
  22647239.538   -12681424.19243  -9820442.08942  22647240.237    22647236.148
  21005674.644   -13743686.39144 -10620933.15642  21005676.653    21005673.347
  24029536.429      -92560.86043    -55299.13442  24029537.713    24029537.381
  22918921.417    -4688585.65643  -3491933.14342  22918922.892    22918922.121
  21464431.020   -12310695.67743  -9532783.43542  21464433.035    21464431.208
  22185193.482    -9947505.90743  -7690811.39542  22185195.729    22185193.036
 04  3 26  2 36 30.0000000  0  6G22G14G31G15G25G11
  22658171.762   -12623974.92443  -9775676.43142  22658172.403    22658168.303
  21016029.669   -13689270.63844 -10578531.26142  21016031.670    21016028.285
  24043428.944      -19555.22443      1588.30842  24043430.609    24043429.546
  22939324.445    -4581367.33943  -3408386.44942  22939325.979    22939325.031
  21452088.672   -12375554.90943  -9583323.01842  21452090.738    21452088.788
  22172852.789   -10012356.91543  -7741344.61742  22172854.982    22172852.248
 04  3 26  2 37  0.0000000  0  6G22G14G31G15G25G11
  22669133.113   -12566372.57643  -9730791.48842  22669133.778    22669129.659
  21026434.597   -13634592.15744 -10535924.65842  21026436.599    21026433.261
  24057355.005       53626.57143     58612.99842  24057356.858    24057355.017
  22959772.093    -4473915.25543  -3324657.61042  22959773.487    22959772.445
  21439826.549   -12439992.88943  -9633534.35542  21439828.585    21439826.513
  22160589.051   -10076803.26143  -7791562.50242  22160591.209    22160588.467
 04  3 26  2 37 30.0000000  0  6G22G14G31G15G25G11
  22680123.568   -12508617.16543  -9685787.27542  22680124.232    22680120.107
  21036889.167   -13579653.20744 -10493115.08142  21036891.139    21036887.734
  24071314.070      126981.09743    115772.25042  24071315.920    24071313.477
  22980263.453    -4366231.84843  -3240748.51442  22980264.912    22980263.911
  21427644.881   -12504007.62843  -9683415.89942  21427646.985    21427644.798
  22148402.824   -10140842.45543  -7841463.14342  22148404.997    22148402.145
 04  3 26  2 38  0.0000000  0  6G22G14G31G15G25G11
  22691142.972   -12450709.46143  -9640664.39042  22691143.631    22691139.591
  21047392.687   -13524456.67044 -10450104.78942  21047394.714    21047391.205
  24085305.083      200504.46243    173063.05542  24085307.287    24085304.390
  23000798.447    -4258320.27643  -3156661.64442  23000799.748    23000798.898
  21415544.018   -12567597.84943  -9732966.64842  21415546.162    21415543.951
  22136294.233   -10204473.33443  -7891045.61342  22136296.443    22136293.553
 04  3 26  2 38 30.0000000  0  6G22G14G31G15G25G11
  22702191.676   -12392647.95443  -9595421.66242  22702192.289    22702188.294
  21057945.153   -13469003.04944 -10406894.17642  21057947.172    21057943.629
  24099327.945      274195.01743    230484.17642  24099329.986    24099327.222
  23021376.586    -4150181.41143  -3072397.64942  23021377.890    23021377.179
  21403524.547   -12630760.45443  -9782184.19242  21403526.693    21403524.504
  22124263.854   -10267692.76443  -7940307.46342  22124266.101    22124263.273
 04  3 26  2 39  0.0000000  0  6G22G14G31G15G25G11
  22713269.756   -12334432.61143  -9550059.05842  22713270.329    22713266.332
  21068546.102   -13413294.73044 -10363485.09142  21068548.146    21068544.507
  24113381.893      348049.34343    288032.94542  24113384.135    24113381.535
  23041997.576    -4041818.05743  -2987958.72942  23041998.712    23041998.167
  21391586.764   -12693493.55843  -9831067.06442  21391588.950    21391586.771
  22112312.311   -10330498.64543  -7989247.07642  22112314.498    22112311.704
 04  3 26  2 39 30.0000000  0  6G22G14G31G15G25G11
  22724376.550   -12276065.70543  -9504578.34742  22724377.142    22724373.138
  21079194.727   -13357335.68944 -10319880.64242  21079196.770    21079193.132
  24127466.167      422062.21243    345705.18042  24127468.162    24127466.179
  23062660.535    -3933234.85943  -2903348.52842  23062661.494    23062661.072
  21379730.785   -12755797.19443  -9879615.27742  21379732.918    21379730.745
  22100439.356   -10392891.33043  -8037864.71642  22100441.532    22100438.692
 04  3 26  2 40  0.0000000  0  6G22G14G31G15G25G11
  22735512.992   -12217543.26043  -9458976.44142  22735513.591    22735509.512
  21089891.380   -13301124.31944 -10276079.57142  21089893.401    21089889.774
  24141580.641      496234.17843    403501.42942  24141582.399    24141580.719
  23083365.461    -3824430.32343  -2818565.83542  23083366.445    23083366.009
  21367957.571   -12817665.76144  -9927824.48342  21367959.683    21367957.455
  22088646.079   -10454865.41943  -8086156.15942  22088648.288    22088645.430
 04  3 26  2 40 30.0000000  0  6G22G14G31G15G25G11
  22746679.209   -12158864.11243  -9413252.42342  22746679.828    22746675.731
  21100635.899   -13244661.47744 -10232082.53942  21100637.958    21100634.301
  24155724.789      570563.47643    461420.27642  24155726.790    24155725.562
  23104112.282    -3715405.64743  -2733611.59142  23104113.327    23104112.801
  21356267.745   -12879096.04944  -9975692.17142  21356269.881    21356267.572
  22076933.075   -10516417.46043  -8134118.74142  22076935.330    22076932.402
 04  3 26  2 41  0.0000000  0  6G22G14G31G15G25G11
  22757874.039   -12100034.96643  -9367411.52442  22757874.618    22757870.491
  21111426.532   -13187955.99444 -10187896.44242  21111428.614    21111424.984
  24169897.463      645039.98243    519453.81842  24169899.181    24169898.165
  23124899.191    -3606169.90243  -2648492.88342  23124900.276    23124899.672
  21344660.333   -12940093.37444 -10023222.48642  21344662.455    21344660.069
  22065299.418   -10577552.40243  -8181756.30342  22065301.706    22065298.791
 04  3 26  2 41 30.0000000  0  6G22G14G31G15G25G11
  22769098.449   -12041050.20943  -9321449.37342  22769098.999    22769094.884
  21122263.981   -13131004.74944 -10143518.83742  21122266.064    21122262.408
  24184098.413      719666.01343    577603.87642  24184099.953    24184099.185
  23145726.932    -3496720.42443  -2563207.65242  23145727.895    23145727.204
  21333136.659   -13000650.54644 -10070409.82342  21333138.803    21333136.336
  22053746.520   -10638263.20843  -8229063.37842  22053748.801    22053745.862
 04  3 26  2 42  0.0000000  0  6G22G14G31G15G25G11
  22780352.558   -11981909.29743  -9275365.54042  22780353.101    22780349.050
  21133147.883   -13073809.19044 -10098950.86242  21133149.933    21133146.356
  24198327.269      794438.66843    635868.16942  24198328.506    24198328.209
  23166594.663    -3387059.30743  -2477757.48442  23166595.740    23166595.089
  21321697.156   -13060765.03444 -10117252.21642  21321699.361    21321696.895
  22042274.722   -10698547.51743  -8276038.10742  22042277.030    22042274.150
 04  3 26  2 42 30.0000000  0  6G22G14G31G15G25G11
  22791636.098   -11922613.72643  -9229161.19742  22791636.673    22791632.633
  21144077.613   -13016372.76043 -10054195.18742  21144079.662    21144076.116
  24212583.268      869353.55643    694243.28842  24212584.386    24212584.170
  23187502.041    -3277190.11643  -2392145.18342  23187503.199    23187502.592
  21310341.984   -13120436.54244 -10163749.43142  21310344.173    21310341.754
  22030884.292   -10758404.47043  -8322679.82842  22030886.608    22030883.746
 04  3 26  2 43  0.0000000  0  6G22G14G31G15G25G11
  22802948.934   -11863164.40743  -9182837.05842  22802949.490    22802945.506
  21155052.546   -12958698.57044 -10009254.24742  21155054.611    21155051.105
  24226865.764      944406.82543    752726.24442  24226866.805    24226866.643
  23208448.291    -3167116.49843  -2306373.56742  23208449.441    23208449.082
  21299071.304   -13179663.80844 -10209900.48442  21299073.518    21299071.171
  22019575.280   -10817833.32843  -8368987.96542  22019577.620    22019574.810
 04  3 26  2 43 30.0000000  0  6G22G14G31G15G25G11
  22814291.807   -11803556.83143  -9136389.59342  22814292.440    22814288.446
  21166073.298   -12900784.21244  -9964126.15442  21166075.348    21166071.802
  24241174.396     1019599.06143    811317.49842  24241175.516    24241175.633
  23229433.861    -3056836.17043  -2220440.90342  23229434.904    23229434.751
  21287886.403   -13238440.75644 -10255700.63842  21287888.559    21287886.256
  22008348.986   -10876827.93443  -8414957.73042  22008351.275    22008348.479
 04  3 26  2 44  0.0000000  0  6G22G14G31G15G25G11
  22825664.442   -11743793.12243  -9089820.48242  22825665.085    22825661.090
  21177138.948   -12842633.88044  -9918814.19042  21177140.995    21177137.418
  24255508.424     1094925.45143    870013.26742  24255509.647    24255510.196
  23250457.903    -2946354.36943  -2134351.24542  23250458.816    23250458.870
  21276786.922   -13296768.35944 -10301150.65442  21276789.129    21276786.830
  21997205.067   -10935388.98143  -8460589.65742  21997207.393    21997204.673
 04  3 26  2 44 30.0000000  0  6G22G14G31G15G25G11
  22837066.398   -11683875.91443  -9043131.75242  22837067.051    22837062.928
  21188248.619   -12784252.24844  -9873321.99242  21188250.710    21188247.071
  24269866.911     1170380.00643    928808.92242  24269867.930    24269869.080
  23271519.248    -2835675.93843  -2048108.37442  23271520.032    23271520.406
  21265772.872   -13354647.11844 -10346250.91842  21265775.080    21265772.786
  21986143.708   -10993516.85343  -8505884.04542  21986146.011    21986143.253
 04  3 26  2 45  0.0000000  0  6G22G14G31G15G25G11
  22848498.208   -11623801.47643  -8996320.50042  22848498.904    22848494.687
  21199402.531   -12725637.75244  -9827648.34042  21199404.644    21199401.014
  24284249.728     1245963.12943    987704.74842  24284250.735    24284252.337
  23292618.171    -2724799.70943  -1961711.35442  23292618.888    23292619.535
  21254845.229   -13412071.84244 -10390997.39542  21254847.413    21254845.129
  21975165.678   -11051206.48143  -8550836.94742  21975167.983    21975165.219
 04  3 26  2 45 30.0000000  0  6G22G14G31G15G25G11
  22859959.837   -11563570.03643  -8949386.91742  22859960.538    22859956.289
  21210600.392   -12666792.64144  -9781794.99442  21210602.494    21210598.859
  24298656.421     1321671.57043   1046698.23742  24298657.353    24298659.402
  23313754.389    -2613728.36743  -1875162.32142  23313754.978    23313755.783
  21244004.308   -13469040.93344 -10435388.83342  21244006.464    21244004.190
  21964271.501   -11108455.89343  -8595446.82542  21964273.759    21964270.973
 04  3 26  2 46  0.0000000  0  6G22G14G31G15G25G11
  22871450.671   -11503185.15343  -8902333.76042  22871451.359    22871447.059
  21221841.067   -12607722.48544  -9735766.28642  21221843.161    21221839.561
  24313085.625     1397498.65243   1105784.13342  24313086.624    24313088.904
  23334926.682    -2502468.11143  -1788466.07542  23334926.945    23334927.892
  21233249.751   -13525556.25944 -10479426.69142  21233251.886    21233249.603
  21953460.764   -11165266.99544  -8639715.16542  21953462.989    21953460.106
 04  3 26  2 46 30.0000000  0  6G22G14G31G15G25G11
  22882971.934   -11442640.35143  -8855155.98542  22882972.636    22882968.302
  21233125.432   -12548422.98644  -9689558.87042  21233127.497    21233123.924
  24327538.297     1473447.51543   1164964.95842  24327539.446    24327541.619
  23356135.752    -2391014.87643  -1701619.44242  23356135.791    23356136.795
  21222583.105   -13581609.87544 -10523104.77242  21222585.213    21222582.930
  21942734.886   -11221631.79944  -8683635.74742  21942737.181    21942734.128
 04  3 26  2 47  0.0000000  0  6G22G14G31G15G25G11
  22894522.881   -11381939.53443  -8807856.63942  22894523.617    22894519.247
  21244452.251   -12488900.25644  -9643177.50642  21244454.297    21244450.714
  24342012.903     1549511.03643   1224235.11242  24342014.137    24342015.849
  23377379.887    -2279375.12643  -1614627.48842  23377380.088    23377381.229
  21212003.852   -13637204.02344 -10566424.82842  21212005.974    21212003.707
  21932093.462   -11277552.61444  -8727210.35642  21932095.756    21932092.616
 04  3 26  2 47 30.0000000  0  6G22G14G31G15G25G11
  22906103.251   -11321084.34443  -8760437.01242  22906103.985    22906099.582
  21255820.854   -12429157.60444  -9596624.78142  21255822.887    21255819.320
  24356508.916     1625684.43043   1283590.86342  24356509.526    24356511.149
  23398658.784    -2167552.93743  -1527493.36842  23398659.027    23398660.426
  21201512.016   -13692338.52844 -10609386.72642  21201514.160    21201511.924
  21921536.661   -11333028.88044  -8770438.57442  21921538.962    21921535.735
 04  3 26  2 48  0.0000000  0  5G22G14G15G25G11
  22917718.333   -11260046.47943  -8712875.04342  22917719.074    22917714.648
  21267236.260   -12369169.11344  -9549880.48842  21267238.315    21267234.721
  23419977.434    -2055522.48243  -1440196.95842  23419977.532    23419979.168
  21191113.281   -13746983.85644 -10651967.44942  21191115.411    21191113.193
  21911070.107   -11388030.85044  -8813297.21042  21911072.406    21911069.097
 04  3 26  2 48 30.0000000  0  5G22G14G15G25G11
  22929358.917   -11198874.78943  -8665208.78542  22929359.679    22929355.169
  21278688.838   -12308985.59344  -9502984.23342  21278690.889    21278687.264
  23441325.399    -1943335.52343  -1352778.59442  23441325.761    23441327.614
  21180798.679   -13801187.28344 -10694203.83142  21180800.772    21180798.522
  21900684.859   -11442605.62744  -8855822.96742  21900687.131    21900683.775
 04  3 26  2 49  0.0000000  0  5G22G14G15G25G11
  22941029.678   -11137544.64043  -8617419.06542  22941030.455    22941025.773
  21290182.829   -12248584.41644  -9455918.37642  21290184.919    21290181.219
  23462707.991    -1830969.57243  -1265220.75442  23462708.105    23462710.114
  21170573.264   -13854922.19444 -10736075.12842  21170575.325    21170573.039
  21890385.890   -11496726.94944  -8897995.38042  21890388.165    21890384.744
 04  3 26  2 49 30.0000000  0  5G22G14G15G25G11
  22952730.317   -11076057.72943  -8569507.18642  22952731.041    22952726.283
  21301717.413   -12187969.53944  -9408685.99842  21301719.491    21301715.788
  23484123.356    -1718429.14043  -1177526.98342  23484123.624    23484125.935
  21160436.859   -13908189.22544 -10777581.85242  21160438.932    21160436.604
  21880173.238   -11550394.91444  -8939814.53542  21880175.519    21880171.962
 04  3 26  2 50  0.0000000  0  5G22G14G15G25G11
  22964460.547   -11014415.23743  -8521474.08242  22964461.295    22964456.507
  21313292.128   -12127143.91444  -9361289.39642  21313294.216    21313290.488
  23505571.693    -1605718.00943  -1089700.21842  23505571.710    23505574.304
  21150389.563   -13960987.95544 -10818723.66242  21150391.611    21150389.290
  21870046.840   -11603609.19544  -8981280.16342  21870049.136    21870045.549
 04  3 26  2 50 30.0000000  0  5G22G14G15G25G11
  22976221.386   -10952611.56943  -8473315.38342  22976222.200    22976217.301
  21324907.631   -12066103.89544  -9313725.73242  21324909.719    21324906.051
  23527052.971    -1492833.00343  -1001737.92842  23527052.951    23527055.819
  21140432.731   -14013311.15044 -10859494.92842  21140434.785    21140432.467
  21860008.221   -11656362.45144  -9022386.55642  21860010.509    21860006.877
 04  3 26  2 51  0.0000000  0  5G22G14G15G25G11
  22988011.549   -10890653.59643  -8425036.45642  22988012.315    22988007.543
  21336562.182   -12004858.27543  -9266001.86342  21336564.255    21336560.668
  23548565.976    -1379783.54143   -913647.50642  23548565.632    23548568.498
  21130565.378   -14065164.02544 -10899899.71242  21130567.424    21130565.107
  21850056.368   -11708659.67944  -9063137.60242  21850058.614    21850054.911
 04  3 26  2 51 30.0000000  0  5G22G14G15G25G11
  22999832.181   -10828535.70943  -8376632.92142  22999832.886    22999828.174
  21348256.621   -11943403.66744  -9218115.14342  21348258.626    21348255.093
  23570110.890    -1266566.49543   -825426.49342  23570110.388    23570113.319
  21120788.861   -14116539.75444 -10939932.69242  21120790.907    21120788.511
  21840192.682   -11760493.81244  -9103527.79842  21840194.874    21840191.171
 04  3 26  2 52  0.0000000  0  5G22G14G15G25G11
  23011683.432   -10766256.52443  -8328103.69342  23011684.089    23011679.516
  21359990.655   -11881740.71944  -9170066.08042  21359992.682    21359989.158
  23591686.977    -1153183.03243   -737075.81042  23591686.860    23591689.521
  21111103.738   -14167435.21744 -10979591.43642  21111105.797    21111103.324
  21830417.622   -11811861.88244  -9143554.82842  21830419.812    21830416.104
 04  3 26  2 52 30.0000000  0  6G22G14G31G15G25G11
  23023563.026   -10703827.99943  -8279458.09442  23023563.716    23023559.238
  21371761.711   -11819883.32543  -9121865.51042  21371763.716    21371760.248
  24502526.945
  23613292.006    -1039647.72743   -648606.80342  23613292.166    23613294.638
  21101507.942   -14217861.16644 -11018884.33142  21101509.987    21101507.476
  21820729.304   -11862774.21144  -9183226.73242  21820731.505    21820727.765
 04  3 26  2 53  0.0000000  0  6G22G14G31G15G25G11
  23035473.813   -10641237.14943  -8230686.02242  23035474.387    23035469.810
  21383571.968   -11757820.15744  -9073504.59342  21383573.951    21383570.472
  24517216.533
  23634927.674     -925950.23643   -560011.39242  23634928.216    23634930.632
  21092004.165   -14267803.15944 -11057800.11642  21092006.238    21092003.736
  21811130.480   -11913216.21444  -9222532.15042  21811132.691    21811128.937
 04  3 26  2 53 30.0000000  0  6G22G14G31G15G25G11
  23047415.319   -10578484.10443  -8181787.56042  23047415.959    23047411.396
  21395420.870   -11695553.75744  -9024985.30242  21395422.923    21395419.332
  24531923.541
  23656594.009     -812093.13843   -471291.63942  23656594.638    23656596.952
  21082592.888   -14317259.89444 -11096337.77342  21082594.895    21082592.362
  21801621.539   -11963186.12244  -9261469.71142  21801623.731    21801619.896
 04  3 26  2 54  0.0000000  0  6G22G14G31G15G25G11
  23059386.218   -10515577.20443  -8132769.20942  23059386.838    23059382.203
  21407306.509   -11633094.24943  -8976315.53642  21407308.562    21407304.965
  24546643.911     -943181.29953   -839579.34852  24546645.597    24546650.105
  23678288.394     -698087.39643   -382456.04942  23678289.141    23678291.435
  21073272.594   -14366238.32444 -11134502.72342  21073274.624    21073271.962
  21792201.027   -12012691.14944  -9300045.01842  21792203.236    21792199.377
 04  3 26  2 54 30.0000000  0  6G22G14G31G15G25G11
  23071389.132   -10452501.83343  -8083619.59342  23071389.730    23071385.027
  21419231.277   -11570429.03243  -8927485.48142  21419233.278    21419229.780
  24561379.759     -865742.38943   -779237.52242  24561380.134    24561386.841
  23700013.476     -583920.81943   -293495.15242  23700014.368    23700016.607
  21064046.366   -14414722.43844 -11172282.49342  21064048.401    21064045.682
  21782872.034   -12061715.11744  -9338245.48342  21782874.265    21782870.361
 04  3 26  2 55  0.0000000  0  6G22G14G31G15G25G11
  23083423.161   -10389263.16243  -8034342.72042  23083423.747    23083418.945
  21431193.812   -11507565.10543  -8878500.58742  21431195.802    21431192.391
  24576129.122     -788231.81843   -718839.83442  24576130.261    24576137.176
  23721768.097     -469601.14643   -204414.95342  23721768.660    23721771.011
  21054913.415   -14462716.13844 -11209680.12142  21054915.487    21054912.728
  21773633.883   -12110261.63444  -9376073.90942  21773636.129    21773632.200
 04  3 26  2 55 30.0000000  0  6G22G14G31G15G25G11
  23095485.582   -10325874.94043  -7984949.32042  23095486.195    23095481.261
  21443191.235   -11444518.41043  -8829373.28042  21443193.212    21443189.822
  24590889.361     -710666.59643   -658399.54442  24590890.266    24590897.015
  23743548.718     -355144.63743   -115228.10742  23743549.199    23743551.362
  21045871.475   -14510231.64344 -11246705.13342  21045873.554    21045870.784
  21764484.249   -12158342.74844  -9413539.67742  21764486.525    21764482.631
 04  3 26  2 56  0.0000000  0  6G22G14G31G15G25G11
  23107579.074   -10262324.18643  -7935429.26542  23107579.617    23107574.593
  21455225.584   -11381277.59643  -8780094.71142  21455227.563    21455224.176
  24605662.281     -633036.73343   -597908.91142  24605662.660    24605668.748
  23765357.059     -240540.64743    -25926.35642  23765357.772    23765359.848
  21036923.272   -14557254.66544 -11283346.39042  21036925.338    21036922.555
  21755425.986   -12205943.98944  -9450631.53042  21755428.260    21755424.322
 04  3 26  2 56 30.0000000  0  6G22G14G31G15G25G11
  23119703.216   -10198611.15543  -7885782.76442  23119703.838    23119698.781
  21467296.375   -11317844.91543  -8730666.63942  21467298.379    21467295.004
  24620446.367     -555345.48643   -537370.43442  24620447.302    24620452.528
  23787193.246     -125792.14843     63488.02142  23787193.849    23787195.901
  21028068.912   -14603784.31644 -11319603.20342  21028070.975    21028068.243
  21746459.287   -12253064.25744  -9487348.59942  21746461.540    21746457.646
 04  3 26  2 57  0.0000000  0  6G22G14G31G15G25G11
  23131857.353   -10134741.01443  -7836013.83642  23131857.923    23131852.913
  21479402.341   -11254227.50143  -8681094.61642  21479404.294    21479401.005
  24635241.339     -477601.16743   -476790.58942  24635241.644    24635246.300
  23809055.351      -10906.92343    153008.91342  23809055.920    23809057.801
  21019307.658   -14649824.52844 -11355478.63242  21019309.709    21019307.009
  21737583.388   -12299707.15244  -9523693.68942  21737585.623    21737581.761
 04  3 26  2 57 30.0000000  0  6G22G14G31G15G25G11
  23144043.488   -10070702.20943  -7786113.48742  23144044.099    23144039.066
  21491545.190   -11190415.73643  -8631371.15242  21491547.173    21491544.012
  24650047.619     -399795.45253   -416162.92552  24650048.277    24650051.763
  23830945.162      104123.91343    242643.28342  23830945.811    23830947.464
  21010642.127   -14695362.17244 -11390962.45442  21010644.146    21010641.415
  21728800.882   -12345859.59543  -9559656.61242  21728803.050    21728799.225
 04  3 26  2 58  0.0000000  0  5G22G14G15G25G11
  23156262.296   -10006492.17443  -7736079.71542  23156262.876    23156257.862
  21503725.294   -11126408.84343  -8581495.63442  21503727.274    21503724.122
  23852862.640      219300.45343    332391.17342  23852863.291    23852864.893
  21002072.948   -14740393.68444 -11426051.88442  21002074.964    21002072.121
  21720112.451   -12391517.58344  -9595234.23642  21720114.612    21720110.796
 04  3 26  2 58 30.0000000  0  5G22G14G15G25G11
  23168508.539    -9942137.90243  -7685933.53642  23168509.161    23168504.154
  21515937.104   -11062235.75743  -8531490.62442  21515939.099    21515935.819
  23874802.336      334593.41243    422229.76242  23874803.027    23874804.504
  20993595.117   -14784944.86444 -11460767.03642  20993597.202    20993594.237
  21711513.228   -12436706.64844  -9630446.47242  21711515.408    21711511.588
 04  3 26  2 59  0.0000000  0  5G22G14G15G25G11
  23180785.469    -9877622.25643  -7635661.60442  23180786.168    23180781.042
  21528183.308   -10997881.26043  -8481344.25642  21528185.395    21528182.048
  23896766.666      450017.21543    512170.34142  23896767.513    23896769.029
  20985212.206   -14828997.09844 -11495093.40442  20985214.307    20985211.334
  21703006.805   -12481408.20944  -9665278.83942  21703008.980    21703005.087
 04  3 26  2 59 30.0000000  0  5G22G14G15G25G11
  23193093.631    -9812942.67843  -7585261.95642  23193094.340    23193089.178
  21540464.226   -10933344.53043  -8431055.89042  21540466.310    21540462.945
  23918755.907      565571.68743    602212.72542  23918756.869    23918758.442
  20976924.970   -14872546.61844 -11529028.04742  20976927.040    20976924.115
  21694593.798   -12525618.38844  -9699728.30342  21694596.006    21694592.135
 04  3 26  3  0  0.0000000  0  5G22G14G15G25G11
  23205431.449    -9748107.11143  -7534740.75542  23205432.190    23205427.040
  21552777.846   -10868635.49843  -8380633.26042  21552779.938    21552776.625
  23940768.293      681246.54043    692348.91342  23940769.316    23940770.770
  20968732.102   -14915600.26044 -11562576.28442  20968734.132    20968731.239
  21686273.070   -12569343.70144  -9733799.95142  21686275.271    21686271.443
 04  3 26  3  0 30.0000000  0  5G22G14G15G25G11
  23217799.728    -9683111.22743  -7484094.62042  23217800.535    23217795.476
  21565124.868   -10803751.64543  -8330074.40842  21565126.892    21565123.613
  23962804.165      797043.56543    782580.26242  23962805.044    23962806.549
  20960634.623   -14958152.54444 -11595733.85542  20960636.655    20960633.792
  21678045.825   -12612578.27144  -9767489.20142  21678047.999    21678044.175
 04  3 26  3  1  0.0000000  0  5G22G14G15G25G11
  23230199.434    -9617950.09143  -7433319.71042  23230200.309    23230195.292
  21577505.745   -10738689.71343  -8279376.79442  21577507.759    21577504.476
  23984863.361      912965.23143    872908.77442  23984864.363    23984865.911
  20952633.759   -15000197.32544 -11628495.96742  20952635.784    20952632.925
  21669913.182   -12655315.63444  -9800791.01642  21669915.340    21669911.526
 04  3 26  3  1 30.0000000  0  5G22G14G15G25G11
  23242629.227    -9552630.61443  -7382421.45642  23242630.073    23242625.194
  21589918.810   -10673458.54743  -8228547.30942  21589920.823    21589917.546
  24006944.550     1029002.29743    963327.19842  24006945.479    24006947.214
  20944728.388   -15041740.16744 -11660866.96242  20944730.406    20944727.513
  21661874.089   -12697561.44144  -9833709.80042  21661876.240    21661872.392
 04  3 26  3  2  0.0000000  0  5G22G14G15G25G11
  23255090.149    -9487147.98943  -7331396.03942  23255090.965    23255086.215
  21602364.673   -10608055.23743  -8177583.68842  21602366.702    21602363.430
  24029048.248     1145156.88543   1053837.21042  24029049.246    24029050.619
  20936919.553   -15082775.31544 -11692842.35142  20936921.638    20936918.711
  21653929.627   -12739309.65544  -9866240.85242  21653931.780    21653927.915
 04  3 26  3  2 30.0000000  0  5G22G14G15G25G11
  23267581.959    -9421502.62243  -7280243.82042  23267582.776    23267578.124
  21614842.858   -10542482.08143  -8126487.72442  21614844.893    21614841.622
  24051173.613     1261425.97443   1144436.42742  24051174.726    24051175.534
  20929207.579   -15123302.06844 -11724421.58442  20929209.617    20929206.625
  21646080.001   -12780559.40244  -9898383.47742  21646082.171    21646078.306
 04  3 26  3  3  0.0000000  0  5G22G14G15G25G11
  23280104.529    -9355696.15643  -7228966.07142  23280105.314    23280100.708
  21627352.669   -10476742.28243  -8075261.91142  21627354.746    21627351.520
  24073320.137     1377805.66943   1235121.83942  24073321.170    24073321.531
  20921592.184   -15163321.00244 -11755605.11342  20921594.217    20921591.207
  21638325.242   -12821310.85044  -9930137.82342  21638327.412    21638323.533
 04  3 26  3  3 30.0000000  0  5G22G14G15G25G11
  23292657.981    -9289727.11843  -7177561.63242  23292658.723    23292654.169
  21639894.200   -10410836.21143  -8023906.53142  21639896.290    21639893.026
  24095487.330     1494294.62643   1325892.39642  24095488.249    24095488.276
  20914073.825   -15202829.69244 -11786391.05342  20914075.891    20914072.922
  21630665.875   -12861560.89944  -9961501.46742  21630668.033    21630664.147
 04  3 26  3  4  0.0000000  0  5G22G14G15G25G11
  23305241.757    -9223598.38943  -7126032.76342  23305242.526    23305237.903
  21652466.565   -10344768.38143  -7972425.10342  21652468.625    21652465.305
  24117674.270     1610887.62543   1416744.02242  24117675.204    24117674.859
  20906652.287   -15241829.85444 -11816780.73942  20906654.371    20906651.388
  21623101.571   -12901311.14744  -9992475.65242  21623103.761    21623099.940
 04  3 26  3  4 30.0000000  0  5G22G14G15G25G11
  23317856.589    -9157306.81043  -7074377.00342  23317857.325    23317852.637
  21665069.839   -10278537.82543  -7920816.87542  21665071.933    21665068.526
  24139881.450     1727585.15143   1507677.05042  24139882.352    24139881.537
  20899328.368   -15280317.18544 -11846770.80842  20899330.448    20899327.438
  21615633.182   -12940557.76144 -10023057.39842  21615635.351    21615631.568
 04  3 26  3  5  0.0000000  0  6G22G14G15G25G11G20
  23330502.208    -9090853.35043  -7022595.10542  23330502.919    23330498.192
  21677703.613   -10212146.95143  -7869083.72342  21677705.734    21677702.244
  24162107.916     1844383.97243   1598689.06542  24162108.680    24162107.563
  20892102.015   -15318291.82444 -11876361.38842  20892104.105    20892101.042
  21608260.729   -12979300.20744 -10053246.28742  21608262.881    21608259.136
  24265797.804
 04  3 26  3  5 30.0000000  0  6G22G14G15G25G11G20
  23343178.566    -9024238.96443  -6970687.77942  23343179.257    23343174.428
  21690367.408   -10145598.34943  -7817227.66342  21690369.554    21690365.930
  24184352.705     1961280.43743   1689777.15742  24184353.398    24184352.158
  20884973.243   -15355753.59744 -11905552.32242  20884975.335    20884972.238
  21600984.327   -13017537.86144 -10083041.82742  21600986.475    21600982.759
  24249445.064
 04  3 26  3  6  0.0000000  0  6G22G14G15G25G11G20
  23355885.394    -8957465.28643  -6918656.35842  23355885.990    23355881.005
  21703060.566   -10078895.58243  -7765251.48442  21703062.660    21703058.965
  24206615.062     2078270.64743   1780938.25442  24206616.303    24206614.480
  20877941.935   -15392703.16344 -11934344.13942  20877944.035    20877940.889
  21593803.853   -13055271.16644 -10112444.37042  21593806.033    21593802.330
  24233089.269
 04  3 26  3  6 30.0000000  0  6G22G14G15G25G11G20
  23368624.483    -8890521.63343  -6866492.47442  23368625.158    23368620.059
  21715784.596   -10012029.79643  -7713148.27442  21715786.750    21715783.047
  24228896.728     2195362.64843   1872178.72742  24228898.007    24228896.631
  20871010.299   -15429128.99044 -11962727.85442  20871012.370    20871009.209
  21586721.630   -13092488.44944 -10141444.82242  21586723.792    21586720.076
  24216731.478
 04  3 26  3  7  0.0000000  0  6G22G14G15G25G11G20
  23381394.991    -8823412.07443  -6814199.30042  23381395.777    23381390.630
  21728538.731    -9945006.73843  -7660922.51442  21728540.835    21728537.052
  24251196.723     2312549.97543   1963493.47942  24251198.218    24251196.713
  20864177.784   -15465033.90544 -11990705.65542  20864179.853    20864176.665
  21579737.043   -13129192.18444 -10170045.10742  21579739.232    21579735.514
  24200371.373
 04  3 26  3  7 30.0000000  0  6G22G14G15G25G11G20
  23394194.439    -8756150.14943  -6761787.42042  23394195.255    23394190.184
  21741319.914    -9877841.30643  -7608585.81142  21741321.979    21741318.186
  24273511.959     2429816.51443   2054869.94642  24273513.288    24273511.829
  20857441.930   -15500430.82144 -12018287.61642  20857444.037    20857440.791
  21572847.834   -13165394.93444 -10198255.01642  21572850.037    21572846.312
  24184006.827
 04  3 26  3  8  0.0000000  0  6G22G14G15G25G11G20
  23407026.093    -8688718.53643  -6709243.30142  23407026.925    23407022.056
  21754131.121    -9810518.14243  -7556126.19842  21754133.163    21754129.321
  24295844.796     2547177.10343   2146319.72642  24295846.075    24295844.846
  20850806.179   -15535301.69444 -12045459.66942  20850808.301    20850805.012
  21566057.483   -13201078.26144 -10226060.18042  21566059.670    21566056.000
  24167640.693    -1519308.39953   -557181.78652  24167641.502    24167644.799
 04  3 26  3  8 30.0000000  0  6G22G14G15G25G11G20
  23419888.191    -8621126.45843  -6656574.14542  23419889.013    23419884.508
  21766970.239    -9743048.04243  -7503552.08142  21766972.348    21766968.327
  24318193.518     2664620.01143   2237833.65842  24318194.739    24318193.246
  20844268.998   -15569654.45444 -12072227.99742  20844271.146    20844267.815
  21559364.537   -13236250.02444 -10253466.72242  21559366.701    21559363.048
  24151271.861    -1605326.40043   -624208.63342  24151272.095    24151275.955
 04  3 26  3  9  0.0000000  0  6G22G14G15G25G11G20
  23432782.101    -8553367.55943  -6603775.00042  23432782.846    23432778.638
  21779838.240    -9675426.43143  -7450859.89942  21779840.361    21779836.151
  24340558.495     2782149.17343   2329414.79242  24340559.934    24340558.370
  20837831.815   -15603481.91444 -12098587.00042  20837833.940    20837830.565
  21552770.308   -13270902.71744 -10280468.79342  21552772.505    21552768.847
  24134901.106    -1691352.21443   -691241.60042  24134901.988    24134905.392
 04  3 26  3  9 30.0000000  0  6G22G14G15G25G11G20
  23445705.983    -8485452.54443  -6550854.21342  23445706.551    23445702.462
  21792732.669    -9607665.59343  -7398059.23642  21792734.811    21792730.498
  24362937.862     2899751.42343   2421052.89542  24362938.953    24362936.939
  20831492.683   -15636794.08544 -12124544.47942  20831494.798    20831491.444
  21546273.113   -13305045.95944 -10307073.89942  21546275.279    21546271.578
  24118527.814    -1777396.01843   -758288.51242  24118528.877    24118531.648
 04  3 26  3 10  0.0000000  0  6G22G14G15G25G11G20
  23458661.209    -8417373.32443  -6497805.45842  23458661.717    23458657.541
  21805654.832    -9539759.09143  -7345145.06442  21805656.972    21805652.581
  24385332.449     3017432.60243   2512752.45842  24385333.458    24385330.970
  20825253.343   -15669581.76744 -12150093.26942  20825255.482    20825252.152
  21539874.620   -13338670.30144 -10333274.66042  21539876.796    21539873.098
  24102152.501    -1863448.97743   -825342.51042  24102154.060    24102156.191
 04  3 26  3 10 30.0000000  0  6G22G14G15G25G11G20
  23471647.503    -8349130.75043  -6444629.43542  23471647.956    23471643.666
  21818604.272    -9471709.40343  -7292119.31942  21818606.378    21818601.958
  24407740.980     3135189.20443   2604510.82242  24407741.992    24407739.423
  20819113.795   -15701845.12444 -12175233.49542  20819115.923    20819112.615
  21533574.872   -13371775.60644 -10359070.98542  21533577.055    21533573.302
  24085775.734    -1949511.03743   -892403.57742  24085777.634    24085778.753
 04  3 26  3 11  0.0000000  0  6G22G14G15G25G11G20
  23484665.313    -8280721.61443  -6391323.62742  23484665.791    23484661.577
  21831581.215    -9403514.76343  -7238980.62942  21831583.299    21831578.975
  24430163.497     3253021.97643   2696328.55842  24430165.150    24430162.676
  20813074.802   -15733580.00044 -12199961.92242  20813076.934    20813073.616
  21527374.746   -13404357.43744 -10384459.40042  21527376.920    21527373.191
  24069397.270    -2035578.35343   -959468.81242  24069399.618    24069400.328
 04  3 26  3 11 30.0000000  0  6G22G14G15G25G11G20
  23497713.392    -8212152.94543  -6337893.48542  23497713.928    23497709.898
  21844583.970    -9335184.15143  -7185735.98242  21844586.088    21844581.901
  24452599.371     3370921.26243   2788198.06842  24452600.853    24452598.663
  20807135.200   -15764792.82644 -12224283.55342  20807137.310    20807133.926
  21521273.026   -13436422.01344 -10409444.76342  21521275.216    21521271.484
  24053016.869    -2121657.44643  -1026543.23042  24053019.363    24053019.641
 04  3 26  3 12  0.0000000  0  6G22G14G15G25G11G20
  23510793.338    -8143417.01043  -6284333.02642  23510793.847    23510789.968
  21857613.982    -9266711.33043  -7132380.52042  21857616.046    21857611.882
  24475048.249     3488892.47143   2880123.65642  24475050.372    24475048.322
  20801296.565   -15795475.02944 -12248191.71542  20801298.657    20801295.247
  21515271.468   -13467960.46144 -10434020.16042  21515273.653    21515269.876
  24036635.836    -2207739.60043  -1093620.06142  24036638.263    24036638.584
 04  3 26  3 12 30.0000000  0  6G22G14G15G25G11G20
  23523903.832    -8074520.86743  -6230647.71942  23523904.266    23523900.405
  21870669.336    -9198104.87143  -7078920.92742  21870671.422    21870667.359
  24497509.221     3606926.13243   2972097.89842  24497511.182    24497509.853
  20795557.720   -15825632.79344 -12271691.22342  20795559.788    20795556.383
  21509368.929   -13498978.73244 -10458190.21942  21509371.082    21509367.276
  24020253.097    -2293831.35943  -1160704.37942  24020255.450    24020255.709
 04  3 26  3 13  0.0000000  0  6G22G14G15G25G11G20
  23537045.514    -8005461.47243  -6176835.21442  23537045.846    23537041.975
  21883750.450    -9129363.09843  -7025355.89842  21883752.560    21883748.567
  24519982.022     3725023.10343   3064121.43742  24519984.456    24519983.600
  20789919.361   -15855262.34144 -12294779.13842  20789921.439    20789918.027
  21503566.236   -13529472.34344 -10481951.45542  21503568.394    21503564.531
  24003869.180    -2379928.57643  -1227792.96242  24003871.379    24003871.343
 04  3 26  3 13 30.0000000  0  6G22G14G15G25G11G20
  23550220.260    -7936228.00543  -6122887.07042  23550220.530    23550216.586
  21896859.112    -9060476.84343  -6971678.28642  21896861.177    21896857.214
  24542470.751   -16637268.42353 -12802599.29852  24542470.822    24542470.989
  20784383.752   -15884352.05644 -12317446.39742  20784385.812    20784382.393
  21497865.455   -13559430.16444 -10505295.18942  21497867.639    21497863.763
  23987486.361    -2466019.89043  -1294876.94342  23987488.348    23987487.888
 04  3 26  3 14  0.0000000  0  6G22G14G15G25G11G20
  23563422.938    -7866847.24443  -6068824.15442  23563423.302    23563419.265
  21909989.789    -8991474.58143  -6917910.27342  21909991.847    21909987.928
  24564964.095   -16519057.55043 -12710486.95642  24564965.346    24564966.287
  20778945.881   -15912928.08144 -12339713.38642  20778947.944    20778944.526
  21492261.838   -13588877.32844 -10528241.01042  21492264.015    21492260.126
  23971099.876    -2552131.07843  -1361976.44742  23971101.769    23971101.175
 04  3 26  3 14 30.0000000  0  7G22G14G 1G15G25G11G20
  23576657.174    -7797301.29843  -6014632.53042  23576657.434    23576653.320
  21923145.692    -8922339.99643  -6864039.15442  21923147.749    21923143.819
  24517941.115
  24587470.178   -16400788.96543 -12618329.66842  24587471.104    24587471.774
  20773609.248   -15940972.21644 -12361565.91642  20773611.282    20773607.880
  21486758.977   -13617795.10444 -10550774.31342  21486761.157    21486757.236
  23954712.893    -2638243.78443  -1429077.14442  23954714.821    23954714.491
 04  3 26  3 15  0.0000000  0  7G22G14G 1G15G25G11G20
  23589921.938    -7727592.84143  -5960314.25542  23589922.400    23589918.294
  21936326.042    -8853076.98643  -6810067.96742  21936328.077    21936324.122
  24502421.242
  24609985.699   -16282467.64943 -12526131.30642  24609986.828    24609987.649
  20768373.531   -15968485.90844 -12383005.11542  20768375.591    20768372.210
  21481356.566   -13646185.06444 -10572896.33442  21481358.730    21481354.784
  23938325.614    -2724359.38143  -1496180.12042  23938327.279    23938327.312
 04  3 26  3 15 30.0000000  0  6G22G14G 1G25G11G20
  23603219.701    -7657712.55843  -5905862.10242  23603220.107    23603216.073
  21949532.207    -8783677.92043  -6755990.76342  21949534.262    21949530.276
  24486933.290
  20763240.594   -15995459.53044 -12404023.47642  20763242.666    20763239.292
  21476056.488   -13674037.01844 -10594599.12742  21476058.672    21476054.700
  23921939.397    -2810468.03043  -1563277.68142  23921940.976    23921941.912
 04  3 26  3 16  0.0000000  0  6G22G14G 1G25G11G20
  23616546.643    -7587677.91243  -5851289.67442  23616547.022    23616543.307
  21962760.660    -8714161.92343  -6701822.44442  21962762.684    21962758.692
  24471474.486
  20758207.207   -16021909.91344 -12424634.12242  20758209.259    20758205.950
  21470855.652   -13701367.59644 -10615895.65842  21470857.821    21470853.777
  23905551.081    -2896586.33943  -1630382.77942  23905552.737    23905554.561
 04  3 26  3 16 30.0000000  0  5G22G14G25G11G20
  23629910.555    -7517450.29143  -5796566.85042  23629910.741    23629907.457
  21976018.509    -8644491.74443  -6647533.97642  21976020.515    21976016.499
  20753280.889   -16047797.50444 -12444806.23442  20753282.934    20753279.658
  21465761.586   -13728137.31344 -10636755.16042  21465763.706    21465759.633
  23889168.960    -2982674.83643  -1697464.59442  23889170.312    23889172.240
 04  3 26  3 17  0.0000000  0  5G22G14G25G11G20
  23643301.790    -7447078.90143  -5741732.00242  23643301.976    23643298.795
  21989296.033    -8574718.03143  -6593164.84242  21989298.102    21989294.116
  20748452.410   -16073171.13744 -12464577.85442  20748454.422    20748451.180
  21460765.072   -13754394.38744 -10657215.19142  21460767.184    21460763.007
  23872783.323    -3068781.83043  -1764560.79342  23872784.835    23872786.356
 04  3 26  3 17 30.0000000  0  5G22G14G25G11G20
  23656722.960    -7376550.68243  -5686774.96042  23656723.132    23656720.040
  22002595.411    -8504829.28043  -6538706.06342  22002597.511    22002593.660
  20743724.285   -16098017.38144 -12483938.51742  20743726.312    20743723.039
  21455868.710   -13780124.77244 -10677264.81842  21455870.871    21455866.613
  23856396.939    -3154893.32743  -1831660.54742  23856398.513    23856400.093
 04  3 26  3 18  0.0000000  0  5G22G14G25G11G20
  23670175.482    -7305857.55143  -5631689.41042  23670175.706    23670172.768
  22015917.910    -8434818.95243  -6484152.54742  22015920.019    22015916.265
  20739098.161   -16122327.70344 -12502881.58242  20739100.185    20739096.922
  21451074.309   -13805319.44644 -10696897.01142  21451076.483    21451072.149
  23840011.645    -3241000.45843  -1898756.89242  23840013.333    23840014.448
 04  3 26  3 18 30.0000000  0  5G22G14G25G11G20
  23683658.925    -7235002.90943  -5576478.00942  23683659.090    23683656.126
  22029262.627    -8364691.70943  -6429507.93442  22029264.726    22029261.068
  20734573.482   -16146104.79744 -12521409.14242  20734575.540    20734572.281
  21446381.330   -13829980.96844 -10716113.76142  21446383.522    21446379.176
  23823626.497    -3327105.50243  -1965851.63642  23823628.293    23823629.254
 04  3 26  3 19  0.0000000  0  5G22G14G25G11G20
  23697173.781    -7163981.99943  -5521137.04742  23697174.020    23697170.899
  22042630.244    -8294444.03743  -6374769.48442  22042632.280    22042628.782
  20730151.408   -16169342.99744 -12539516.78542  20730153.441    20730150.180
  21441790.922   -13854103.48344 -10734910.49842  21441793.107    21441788.799
  23807242.538    -3413202.63743  -2032940.22342  23807244.487    23807245.353
 04  3 26  3 19 30.0000000  0  5G22G14G25G11G20
  23710719.105    -7092800.66643  -5465671.08242  23710719.469    23710716.066
  22056019.357    -8224083.27443  -6319942.91442  22056021.403    22056018.049
  20725830.830   -16192047.59044 -12557208.63042  20725832.874    20725829.602
  21437302.180   -13877691.94644 -10753291.09942  21437304.337    21437300.048
  23790859.413    -3499296.91343  -2100026.57742  23790861.218    23790861.944
 04  3 26  3 20  0.0000000  0  5G22G14G25G11G20
  23724296.325    -7021452.36643  -5410075.01542  23724296.685    23724292.998
  22069430.992    -8153604.50443  -6265024.38942  22069433.046    22069429.750
  20721613.071   -16214211.76644 -12574479.37442  20721615.127    20721611.835
  21432916.345   -13900739.43244 -10771250.15942  21432918.511    21432914.238
  23774477.956    -3585381.03743  -2167104.99142  23774479.780    23774479.990
 04  3 26  3 20 30.0000000  0  5G22G14G25G11G20
  23737904.297    -6949942.20043  -5354352.81842  23737904.700    23737900.717
  22082863.961    -8083013.76343  -6210018.61542  22082865.986    22082862.753
  20717497.303   -16235840.20744 -12591332.66042  20717499.328    20717496.012
  21428632.693   -13923250.04244 -10788790.88042  21428634.887    21428630.612
  23758097.873    -3671458.91443  -2234178.55642  23758099.566    23758099.409
 04  3 26  3 21  0.0000000  0  5G22G14G25G11G20
  23751543.241    -6878270.27543  -5298504.58242  23751543.663    23751539.311
  22096317.867    -8012312.86543  -6154927.00342  22096319.924    22096316.704
  20713483.532   -16256932.58644 -12607768.23642  20713485.548    20713482.229
  21424451.317   -13945223.19044 -10805912.80142  21424453.517    21424449.221
  23741718.926    -3757529.78843  -2301246.66242  23741720.738    23741720.254
 04  3 26  3 21 30.0000000  0  5G22G14G25G11G20
  23765213.596    -6806432.33643  -5242526.98542  23765214.078    23765209.729
  22109793.340    -7941498.96543  -6099747.34242  22109795.411    22109792.146
  20709572.671   -16277484.16244 -12623782.40942  20709574.686    20709571.361
  21420373.207   -13966653.38044 -10822611.63542  21420375.454    21420371.166
  23725342.178    -3843588.39643  -2368305.21342  23725344.062    23725343.316
 04  3 26  3 22  0.0000000  0  5G22G14G25G11G20
  23778914.954    -6734431.90143  -5186422.74542  23778915.513    23778911.015
  22123289.405    -7870576.78043  -6044483.29942  22123291.520    22123288.184
  20705764.138   -16297498.01144 -12639377.57042  20705766.144    20705762.807
  21416397.861   -13987543.92944 -10838889.97142  21416400.087    21416395.790
  23708967.411    -3929637.29943  -2435356.21242  23708969.334    23708968.230
 04  3 26  3 22 30.0000000  0  5G22G14G25G11G20
  23792647.253    -6662267.37343  -5130190.64542  23792647.820    23792643.593
  22136806.170    -7799545.88343  -5989134.54442  22136808.287    22136804.904
  20702058.350   -16316971.79944 -12654551.91242  20702060.367    20702057.019
  21412525.757   -14007892.04544 -10854745.63142  21412527.967    21412523.652
  23692595.199    -4015673.67443  -2502397.43642  23692596.911    23692595.671
 04  3 26  3 23  0.0000000  0  6G22G14G 1G25G11G20
  23806409.837    -6589944.03643  -5073834.79342  23806410.427    23806406.443
  22150342.264    -7728413.35043  -5933706.58742  22150344.374    22150340.982
  24258341.022
  20698454.265   -16335911.10844 -12669309.77442  20698456.282    20698452.917
  21408755.866   -14027702.52344 -10870182.35342  21408758.107    21408753.815
  23676224.575    -4101701.93843  -2569432.32742  23676226.242    23676224.603
 04  3 26  3 23 30.0000000  0  6G22G14G 1G25G11G20
  23820201.590    -6517466.82443  -5017359.05342  23820202.212    23820198.379
  22163896.608    -7657185.01843  -5878203.98442  22163898.687    22163895.265
  24243344.803
  20694951.074   -16354320.09644 -12683654.40842  20694953.100    20694949.758
  21405087.653   -14046979.16544 -10885203.10342  21405089.845    21405085.580
  23659854.618    -4187725.75143  -2636463.78742  23659856.651    23659854.185
 04  3 26  3 24  0.0000000  0  6G22G14G 1G25G11G20
  23834025.583    -6444822.94043  -4960753.43142  23834026.197    23834022.011
  22177471.310    -7585849.48443  -5822617.85942  22177473.396    22177469.931
  24228385.116
  20691551.390   -16372185.43944 -12697575.41642  20691553.388    20691550.064
  21401523.454   -14065708.89444 -10899797.68542  21401525.668    21401521.433
  23643488.120    -4273731.31043  -2703481.01542  23643490.176    23643486.947
 04  3 26  3 24 30.0000000  0  6G22G14G 1G25G11G20
  23847882.412    -6372006.40143  -4904013.29842  23847883.016    23847878.447
  22191067.288    -7514401.97443  -5766944.47442  22191069.387    22191065.892
  24213458.738
  20688256.315   -16389501.08944 -12711068.09442  20688258.316    20688255.012
  21398064.590   -14083885.17844 -10913961.01142  21398066.789    21398062.597
  23627126.519    -4359711.74043  -2770478.61842  23627128.351    23627124.808
 04  3 26  3 25  0.0000000  0  6G22G14G 1G25G11G20
  23861769.261    -6299031.04343  -4847149.41642  23861770.029    23861764.949
  22204681.812    -7442857.43843  -5711195.48842  22204683.864    22204680.312
  24198563.604
  20685063.284   -16406280.31744 -12724142.77742  20685065.297    20685062.003
  21394708.631   -14101520.78644 -10927703.03142  21394710.820    21394706.624
  23610767.453    -4445679.72543  -2837466.58242  23610769.311    23610765.851
 04  3 26  3 25 30.0000000  0  6G22G14G 1G25G11G20
  23875687.296    -6225891.42643  -4790157.52542  23875688.210    23875682.878
  22218315.420    -7371212.10943  -5655367.95642  22218317.553    22218313.939
  24183700.822    -1875707.75953  -1132485.51452  24183701.196    24183704.434
  20681973.412   -16422517.45944 -12736795.05842  20681975.436    20681972.163
  21391456.709   -14118609.82644 -10941019.15642  21391458.887    21391454.661
  23594411.822    -4531628.69243  -2904439.71742  23594413.605    23594410.421
 04  3 26  3 26  0.0000000  0  6G22G14G 1G25G11G20
  23889636.813    -6152585.80343  -4733036.27142  23889637.719    23889632.565
  22231968.361    -7299465.27143  -5599461.32242  22231970.483    22231966.869
  24168870.591    -1953637.37543  -1193209.73842  24168871.824    24168875.739
  20678987.161   -16438210.67344 -12749023.49742  20678989.131    20678985.804
  21388309.214   -14135149.99844 -10953907.59042  21388311.403    21388307.156
  23578060.144    -4617555.60143  -2971395.68142  23578062.198    23578059.001
 04  3 26  3 26 30.0000000  0  6G22G14G 1G25G11G20
  23903618.330    -6079110.82243  -4675783.02442  23903619.264    23903614.726
  22245641.001    -7227614.80943  -5543473.94742  22245643.093    22245639.561
  24154072.587    -2031392.14743  -1253797.70342  24154075.296    24154079.302
  20676104.917   -16453356.75244 -12760825.59442  20676106.931    20676103.571
  21385266.973   -14151137.17444 -10966365.12242  21385269.148    21385264.847
  23561713.880    -4703456.07043  -3038331.04542  23561715.798    23561712.807
 04  3 26  3 27  0.0000000  0  6G22G14G 1G25G11G20
  23917628.799    -6005483.61843  -4618411.17242  23917629.619    23917625.824
  22259329.913    -7155678.81143  -5487419.91742  22259331.992    22259328.584
  24139306.271    -2108988.73843  -1314262.42642  24139308.989    24139312.989
  20673323.684   -16467971.90944 -12772213.98642  20673325.729    20673322.370
  21382326.777   -14166587.91244 -10978404.64342  21382328.957    21382324.651
  23545369.485    -4789346.06443  -3105258.22342  23545371.338    23545368.692
 04  3 26  3 27 30.0000000  0  6G22G14G 1G25G11G20
  23931670.469    -5931694.49443  -4560913.15742  23931671.064    23931667.708
  22273036.669    -7083649.11443  -5431292.87842  22273038.707    22273035.413
  24124572.384    -2186417.09743  -1374596.05642  24124574.548    24124578.650
  20670645.373   -16482046.27744 -12783180.98342  20670647.439    20670644.073
  21379490.583   -14181491.78444 -10990018.03942  21379492.791    21379488.493
  23529028.911    -4875214.68743  -3172168.73542  23529030.830    23529028.350
 04  3 26  3 28  0.0000000  0  6G22G14G 1G25G11G20
  23945743.045    -5857743.29143  -4503288.83942  23945743.615    23945740.214
  22286761.138    -7011526.59543  -5375093.51142  22286763.114    22286759.900
  24109870.334    -2263676.69643  -1434798.19642  24109872.335    24109876.321
  20668070.000   -16495579.68144 -12793726.45142  20668072.050    20668068.752
  21376758.586   -14195848.32944 -11001204.94642  21376760.779    21376756.536
  23512692.676    -4961060.81343  -3239061.70642  23512694.580    23512691.897
 04  3 26  3 28 30.0000000  0  6G22G14G 1G25G11G20
  23959846.655    -5783629.07843  -4445537.54242  23959847.231    23959843.606
  22300503.155    -6939311.50843  -5318822.00442  22300505.168    22300501.954
  24095200.609    -2340766.41643  -1494867.92542  24095202.567    24095206.154
  20665597.802   -16508571.01244 -12803849.52442  20665599.854    20665596.596
  21374131.104   -14209655.90944 -11011964.09042  21374133.281    21374129.033
  23496361.497    -5046882.09143  -3305935.31542  23496363.162    23496360.417
 04  3 26  3 29  0.0000000  0  6G22G14G 1G25G11G20
  23973981.377    -5709351.51543  -4387658.95942  23973981.889    23973978.097
  22314262.756    -6867004.37443  -5262478.77742  22314264.753    22314261.537
  24080562.938    -2417685.42643  -1554804.62442  24080565.311    24080568.591
  20663228.934   -16521019.19144 -12813549.36042  20663230.984    20663227.793
  21371608.260   -14222913.36744 -11022294.56542  21371610.439    21371606.237
  23480035.218    -5132676.81343  -3372788.22542  23480036.919    23480034.263
 04  3 26  3 29 30.0000000  0  6G22G14G 1G25G11G20
  23988146.870    -5634910.69843  -4329653.14342  23988147.391    23988143.565
  22328039.549    -6794606.77743  -5206065.05842  22328041.541    22328038.356
  24065957.897    -2494433.30253  -1614608.01752  24065960.377    24065963.758
  20660963.340   -16532924.69644 -12822826.33442  20660965.379    20660962.213
  21369190.176   -14235620.57744 -11032196.27642  21369192.334    21369188.119
  23463714.117    -5218444.17443  -3439619.83842  23463715.699    23463713.601
 04  3 26  3 30  0.0000000  0  6G22G14G 1G25G11G20
  24002343.985    -5560304.06643  -4271518.11342  24002344.531    24002340.640
  22341833.761    -6722117.21143  -5149579.67942  22341835.788    22341832.683
  24051385.788    -2571007.32153  -1674275.88252  24051388.640    24051391.899
  20658801.631   -16544284.51544 -12831678.09442  20658803.637    20658800.460
  21366877.330   -14247774.49844 -11041666.85242  21366879.498    21366875.254
  23447399.187    -5304180.08943  -3506426.94542  23447400.779    23447398.714
 04  3 26  3 30 30.0000000  0  6G22G14G 1G25G11G20
  24016569.900    -5485545.09643  -4213264.35942  24016570.570    24016566.826
  22355642.828    -6649550.25343  -5093033.98342  22355644.834    22355641.714
  24036844.692    -2647420.62253  -1733818.53852  24036847.641    24036851.081
  20656741.170   -16555112.37744 -12840115.35042  20656743.176    20656739.940
  21364667.309   -14259388.14144 -11050716.43542  21364669.462    21364665.207
  23431087.643    -5389896.99743  -3573219.26242  23431089.418    23431087.036
 04  3 26  3 31  0.0000000  0  6G22G14G 1G25G11G20
  24030827.003    -5410624.37543  -4154884.58242  24030827.722    24030823.783
  22369468.189    -6576897.58343  -5036421.51342  22369470.228    22369467.023
  24022336.498    -2723663.42453  -1793228.35452  24022339.083    24022342.344
  20654783.745   -16565398.60444 -12848130.55242  20654785.770    20654782.490
  21362561.965   -14270451.56744 -11059337.26942  21362564.094    21362559.907
  23414781.800    -5475584.36543  -3639988.53342  23414783.493    23414781.117
 04  3 26  3 31 30.0000000  0  6G22G14G 1G25G11G20
  24045115.151    -5335540.12143  -4096377.37542  24045115.925    24045111.869
  22383310.073    -6504158.28143  -4979741.53142  22383312.094    22383308.863
  24007861.058    -2799733.34253  -1852503.49452  24007863.209    24007866.556
  20652929.740   -16575141.18444 -12855722.13942  20652931.785    20652928.486
  21360561.750   -14280962.45844 -11067527.55742  21360563.871    21360559.726
  23398482.215    -5561238.68643  -3706732.04542  23398483.990    23398481.625
 04  3 26  3 32  0.0000000  0  6G22G14G 1G25G11G20
  24059433.880    -5260294.37343  -4037744.34142  24059434.627    24059430.545
  22397167.796    -6431335.74343  -4922996.68942  22397169.845    22397166.538
  23993418.120    -2875632.44343  -1911645.48242  23993420.196    23993423.210
  20651178.829   -16584342.32444 -12862891.82242  20651180.867    20651177.533
  21358666.426   -14290922.59744 -11075288.68942  21358668.496    21358664.361
  23382188.671    -5646860.98743  -3773450.60342  23382190.395    23382188.189
 04  3 26  3 32 30.0000000  0  6G22G14G 1G25G11G20
  24073783.278    -5184886.83543  -3978985.22942  24073784.076    24073780.024
  22411041.240    -6358430.67643  -4866187.53942  22411043.287    22411039.888
  23979007.823    -2951360.03143  -1970653.83342  23979009.818    23979012.478
  20649531.009   -16593001.72844 -12869639.37842  20649533.073    20649529.672
  21356876.031   -14300331.17744 -11082620.03542  21356878.073    21356873.950
  23365901.655    -5732449.55143  -3840142.87642  23365903.333    23365901.218
 04  3 26  3 33  0.0000000  0  6G22G14G 1G25G11G20
  24088163.157    -5109319.07943  -3920101.26242  24088163.929    24088159.795
  22424929.836    -6285445.51443  -4809315.98642  22424931.917    22424928.463
  23964629.664    -3026917.18043  -2029529.39642  23964631.990    23964634.094
  20647986.017   -16601120.58644 -12875965.73142  20647988.097    20647984.659
  21355190.449   -14309189.05144 -11089522.25742  21355192.451    21355188.334
  23349621.275    -5818004.55443  -3906809.00842  23349622.936    23349620.700
 04  3 26  3 33 30.0000000  0  6G22G14G 1G25G11G20
  24102573.622    -5033591.61843  -3861092.84642  24102574.252    24102570.176
  22438833.350    -6212382.05943  -4752383.41842  22438835.412    22438831.954
  23950283.992    -3102304.22443  -2088272.38142  23950286.272    23950288.280
  20646543.729   -16608699.46844 -12881871.32542  20646545.838    20646542.404
  21353609.442   -14317496.97244 -11095995.94142  21353611.479    21353607.339
  23333347.170    -5903525.43743  -3973448.55342  23333349.051    23333346.738
 04  3 26  3 34  0.0000000  0  6G22G14G 1G25G11G20
  24117015.025    -4957702.13343  -3801958.18342  24117015.438    24117011.486
  22452752.008    -6139238.96643  -4695388.79542  22452754.056    22452750.608
  23935971.075    -3177518.32443  -2146880.62742  23935973.294    23935975.007
  20645204.657   -16615736.21944 -12887354.47542  20645206.735    20645203.321
  21352133.692   -14325252.01544 -11102038.81142  21352135.715    21352131.584
  23317080.073    -5989008.53643  -4040058.66342  23317082.019    23317079.903
 04  3 26  3 34 30.0000000  0  6G22G14G 1G25G11G20
  24131486.742    -4881652.65243  -3742698.86142  24131487.244    24131483.163
  22466685.329    -6066018.84043  -4638334.14742  22466687.349    22466683.874
  23921690.674    -3252561.12243  -2205355.38542  23921692.851    23921694.776
  20643968.482   -16622232.42044 -12892416.42442  20643970.514    20643967.105
  21350762.876   -14332455.66844 -11107652.02842  21350764.912    21350760.714
  23300820.194    -6074454.12543  -4106639.53942  23300822.151    23300820.208
 04  3 26  3 35  0.0000000  0  6G22G14G 1G25G11G20
  24145988.891    -4805443.29943  -3683314.92442  24145989.453    24145985.164
  22480632.982    -5992722.96243  -4581220.46842  22480635.036    22480631.550
  23907443.142    -3327432.46243  -2263696.49942  23907445.368    23907446.997
  20642834.997   -16628188.72044 -12897057.66942  20642837.051    20642833.633
  21349497.034   -14339107.69044 -11112835.39942  21349499.066    21349494.824
  23284567.831    -6159861.14043  -4173190.37842  23284569.782    23284567.893
 04  3 26  3 35 30.0000000  0  6G22G14G 1G25G11G20
  24160521.312    -4729073.47643  -3623805.96442  24160522.075    24160517.655
  22494595.016    -5919351.72843  -4524048.07642  22494597.036    22494593.593
  23893228.381    -3402131.30443  -2321903.20942  23893230.489    23893231.834
  20641804.510   -16633604.07244 -12901277.39642  20641806.515    20641803.099
  21348336.344   -14345207.33344 -11117588.35042  21348338.332    21348334.060
  23268323.088    -6245227.64743  -4239709.65942  23268324.979    23268323.177
 04  3 26  3 36  0.0000000  0  6G22G14G 1G25G11G20
  24175084.500    -4652543.68343  -3564172.37742  24175084.971    24175080.555
  22508571.152    -5845906.66143  -4466818.14942  22508573.142    22508569.699
  23879046.121    -3476657.91243  -2379975.70542  23879048.530    23879049.651
  20640876.716   -16638479.46044 -12905076.37042  20640878.736    20640875.269
  21347280.767   -14350754.66244 -11121910.92642  21347282.754    21347278.445
  23252086.056    -6330552.77543  -4306196.68242  23252088.036    23252086.188
 04  3 26  3 36 30.0000000  0  6G22G14G 1G25G11G20
  24189677.913    -4575852.37943  -3504412.89742  24189678.440    24189673.698
  22522561.416    -5772387.22743  -4409530.27142  22522563.452    22522559.946
  23864897.061    -3551010.41943  -2437912.53342  23864899.485    23864900.289
  20640052.021   -16642813.06944 -12908453.17542  20640054.068    20640050.583
  21346330.593   -14355747.89844 -11125801.74142  21346332.600    21346328.253
  23235857.810    -6415833.18043  -4372648.86542  23235859.648    23235857.636
 04  3 26  3 37  0.0000000  0  6G22G14G 1G25G11G20
  24204301.702    -4499004.79743  -3444531.70142  24204302.043    24204297.059
  22536564.651    -5698799.63743  -4352189.28742  22536566.699    22536563.213
  23850779.899    -3625193.87143  -2495717.65542  23850782.548    23850783.115
  20639329.301   -16646610.78644 -12911412.40042  20639331.343    20639327.835
  21345484.899   -14360192.07344 -11129264.71642  21345486.916    21345482.532
  23219637.230    -6501073.15443  -4439069.53842  23219639.034    23219636.944
 04  3 26  3 37 30.0000000  0  6G22G14G 1G25G11G20
  24218955.776    -4421996.60843  -3384525.31042  24218956.311    24218951.337
  22550581.546    -5625140.27143  -4294792.36642  22550583.548    22550580.161
  23836696.096    -3699203.38943  -2553387.21142  23836698.620    23836699.224
  20638709.446   -16649867.86144 -12913950.34842  20638711.487    20638707.985
  21344744.586   -14364082.56044 -11132296.25242  21344746.622    21344742.201
  23203425.489    -6586266.47043  -4505453.86942  23203427.369    23203425.318
 04  3 26  3 38  0.0000000  0  6G22G14G 1G25G11G20
  24233640.097    -4344831.62543  -3324396.77242  24233640.342    24233635.955
  22564611.238    -5551413.70943  -4237343.09842  22564613.206    22564609.839
  23822645.039    -3773042.56243  -2610924.03942  23822647.384    23822647.851
  20638191.714   -16652588.40144 -12916070.20942  20638193.731    20638190.240
  21344108.946   -14367422.98644 -11134899.16342  21344110.974    21344106.500
  23187222.085    -6671415.65043  -4571803.79042  23187224.027    23187221.993
 04  3 26  3 38 30.0000000  0  6G22G14G 1G25G11G20
  24248354.119    -4267508.95043  -3264145.32842  24248354.463    24248350.380
  22578653.723    -5477620.12743  -4179841.60542  22578655.686    22578652.285
  23808626.815    -3846710.03943  -2668327.06942  23808628.910    23808629.494
  20637776.225   -16654771.43944 -12917771.24542  20637778.272    20637774.790
  21343578.188   -14370212.13944 -11137072.51442  21343580.238    21343575.736
  23171027.581    -6756518.18543  -4638117.36742  23171029.547    23171027.472
 04  3 26  3 39  0.0000000  0  6G22G14G 1G25G11G20
  24263098.843    -4190023.25343  -3203766.82042  24263099.349    24263096.019
  22592709.737    -5403755.00143  -4122284.35942  22592711.798    22592708.321
  23794641.839    -3920200.10943  -2725591.86742  23794644.333    23794644.763
  20637464.013   -16656412.02544 -12919049.58642  20637466.039    20637462.563
  21343153.341   -14372444.66744 -11138812.12742  21343155.407    21343150.898
  23154843.151    -6841567.39443  -4704389.41142  23154845.165    23154842.963
 04  3 26  3 39 30.0000000  0  6G22G14G 1G25G11G20
  24277873.650    -4112382.97743  -3143267.92042  24277873.877    24277870.745
  22606777.704    -5329827.75843  -4064678.71242  22606779.775    22606776.156
  23780688.937    -3993520.87343  -2782724.77042  23780691.935    23780692.111
  20637253.380   -16657518.52244 -12919911.75442  20637255.443    20637251.972
  21342832.846   -14374128.77844 -11140124.41042  21342834.956    21342830.392
  23138667.691    -6926569.96843  -4770625.10442  23138669.626    23138667.258
 04  3 26  3 40  0.0000000  0  6G22G14G 1G25G11G20
  24292678.753    -4034582.02643  -3082643.81342  24292678.969    24292675.918
  22620858.553    -5255832.91043  -4007020.38942  22620860.645    22620856.852
  23766769.380    -4066665.99543  -2839720.79942  23766772.605    23766772.653
  20637145.579   -16658084.92044 -12920353.06942  20637147.618    20637144.130
  21342617.912   -14375258.18544 -11141004.44942  21342620.049    21342615.469
  23122502.432    -7011518.42343  -4836818.61142  23122504.289    23122501.912
 04  3 26  3 40 30.0000000  0  6G22G14G 1G25G11G20
  24307513.287    -3956625.62743  -3021898.57042  24307513.566    24307510.591
  22634951.095    -5181776.50743  -3949314.10442  22634953.277    22634949.287
  23752883.102    -4139640.31543  -2896583.76642  23752885.674    23752885.987
  20637139.437   -16658116.82644 -12920377.89742  20637141.491    20637138.002
  21342507.600   -14375837.86044 -11141456.13042  21342509.753    21342505.167
  23106346.792    -7096416.39543  -4902972.78642  23106348.639    23106346.365
 04  3 26  3 41  0.0000000  0  6G22G14G 1G25G11G20
  24322377.618    -3878512.87443  -2961031.50042  24322377.850    24322375.001
  22649055.229    -5107658.69943  -3891559.96742  22649057.440    22649053.413
  23739029.638    -4212442.76043  -2953312.78442  23739031.807    23739031.650
  20637235.199   -16657613.52944 -12919985.68242  20637237.218    20637233.721
  21342502.083   -14375866.76844 -11141478.64042  21342504.261    21342499.667
  23090201.148    -7181261.44843  -4969085.73242  23090202.997    23090200.842
 04  3 26  3 41 30.0000000  0  6G22G14G 1G25G11G20
  24337272.398    -3800242.08443  -2900041.23542  24337272.688    24337269.468
  22663171.326    -5033478.27243  -3833757.04842  22663173.461    22663169.511
  23725209.038    -4285071.06343  -3009906.12742  23725211.333    23725210.728
  20637433.046   -16656573.63644 -12919175.34342  20637435.048    20637431.556
  21342601.709   -14375343.09944 -11141070.57242  21342603.893    21342599.285
  23074066.329    -7266050.25343  -5035154.83342  23074068.166    23074065.795
 04  3 26  3 42  0.0000000  0  6G22G14G 1G25G11G20
  24352197.447    -3721813.66243  -2838928.22142  24352197.746    24352193.995
  22677298.961    -4959236.58943  -3775906.38042  22677301.134    22677297.364
  23711421.236    -4357525.27243  -3066363.82342  23711423.663    23711423.013
  20637732.921   -16654997.72944 -12917947.33142  20637734.889    20637731.401
  21342806.401   -14374267.49844 -11140232.42942  21342808.541    21342803.901
  23057942.255    -7350781.77043  -5101179.28142  23057944.083    23057941.677
 04  3 26  3 42 30.0000000  0  6G22G14G 1G25G11G20
  24367152.116    -3643229.41343  -2777693.75642  24367152.423    24367148.251
  22691437.935    -4884936.15343  -3718009.93542  22691440.067    22691436.309
  23697666.051    -4429806.84643  -3122687.00942  23697668.831    23697668.205
  20638134.395   -16652887.99244 -12916303.35042  20638136.366    20638132.818
  21343115.855   -14372641.27644 -11138965.22842  21343117.978    21343113.345
  23041829.202    -7435456.09243  -5167159.17442  23041830.935    23041828.608
 04  3 26  3 43  0.0000000  0  6G22G14G 1G25G11G20
  24382136.535    -3564487.91843  -2716336.80042  24382137.046    24382132.221
  22705588.258    -4810576.02543  -3660066.98542  22705590.374    22705586.582
  23683944.383    -4501913.90643  -3178874.21242  23683947.254    23683946.301
  20638637.731   -16650242.81644 -12914242.14542  20638639.727    20638636.142
  21343530.307   -14370463.13744 -11137267.96442  21343532.445    21343527.824
  23025727.665    -7520070.00643  -5233091.99742  23025729.437    23025727.228
 04  3 26  3 43 30.0000000  0  6G22G14G 1G25G11G20
  24397149.828    -3485591.95243  -2654859.42142  24397150.797    24397145.547
  22719749.124    -4736160.17343  -3602080.61042  22719751.245    22719747.487
  23670255.662    -4573849.13743  -3234927.49842  23670258.257    23670256.861
  20639242.299   -16647065.67844 -12911766.42142  20639244.291    20639240.680
  21344049.299   -14367735.82844 -11135142.77742  21344051.417    21344046.816
  23009637.188    -7604624.77643  -5298978.73642  23009639.069    23009637.119
 04  3 26  3 44  0.0000000  0  6G22G14G 1G25G11G20
  24412193.311    -3406537.96943  -2593258.88842  24412194.042    24412189.400
  22733921.110    -4661685.53043  -3544048.42042  22733923.263    22733919.528
  23656600.373    -4645608.74043  -3290843.93242  23656602.841    23656600.884
  20639948.694   -16643353.33244 -12908873.66142  20639950.649    20639947.067
  21344673.380   -14364455.96044 -11132587.02342  21344675.513    21344671.021
  22993559.132    -7689115.35443  -5364815.45342  22993561.050    22993559.094
 04  3 26  3 44 30.0000000  0  6G22G14G 1G25G11G20
  24427266.429    -3327327.75343  -2531536.63442  24427267.248    24427262.996
  22748103.761    -4587154.76643  -3485972.50642  22748105.898    22748102.232
  23642978.156    -4717194.20843  -3346624.70642  23642980.545    23642978.202
  20640756.483   -16639108.08544 -12905565.64942  20640758.470    20640754.900
  21345402.245   -14360625.24544 -11129602.03642  21345404.394    21345400.021
  22977493.374    -7773541.69743  -5430602.13242  22977495.252    22977493.099
 04  3 26  3 45  0.0000000  0  6G22G14G 1G25G11G20
  24442369.078    -3247963.83743  -2469694.61342  24442369.923    24442365.451
  22762296.635    -4512570.87243  -3427855.18742  22762298.675    22762295.065
  23629388.601    -4788607.50443  -3402271.31542  23629390.851    23629388.747
  20641665.308   -16634332.42744 -12901844.33042  20641667.263    20641663.683
  21346235.551   -14356246.00044 -11126189.62442  21346237.660    21346233.386
  22961439.494    -7857904.67043  -5496339.42142  22961441.333    22961439.154
 04  3 26  3 45 30.0000000  0  6G22G14G 1G25G11G20
  24457500.982    -3168446.18943  -2407732.74642  24457501.925    24457497.430
  22776499.448    -4437934.64943  -3369697.08642  22776501.482    22776497.874
  23615831.797    -4859848.19443  -3457783.42542  23615834.032    23615832.550
  20642674.944   -16629026.55144 -12897709.84942  20642676.934    20642673.361
  21347173.305   -14351318.22744 -11122349.79042  21347175.381    21347171.093
  22945397.977    -7942202.41143  -5562025.88242  22945399.710    22945397.674
 04  3 26  3 46  0.0000000  0  6G22G14G 1G25G11G20
  24472662.879    -3088769.06643  -2345646.68742  24472663.930    24472660.489
  22790713.256    -4363240.69443  -3311494.00442  22790715.300    22790711.727
  23602309.173    -4930910.17843                                  23602311.259
  20643786.557   -16623185.09444 -12893158.04142  20643788.511    20643784.921
  21348216.447   -14345836.22644 -11118078.08742  21348218.550    21348214.242
  22929370.441    -8026427.60343  -5627655.83142  22929372.009    22929370.011
 04  3 26  3 46 30.0000000  0  6G22G14G 1G25G11G20
  24487853.341    -3008942.25843  -2283444.00742  24487854.208    24487851.598
  22804936.212    -4288499.37843  -3253254.02942  22804938.246    22804934.532
  23588818.750    -5001802.89543  -3568397.24942  23588820.794    23588819.925
  20644998.073   -16616818.46544 -12888197.00642  20645000.040    20644996.420
  21349363.224   -14339809.87344 -11113382.21542  21349365.320    21349360.991
  22913355.193    -8110588.19543  -5693235.43942  22913356.723    22913354.704
 04  3 26  3 47  0.0000000  0  6G22G14G 1G25G11G20
  24503073.442    -2928959.86643  -2221120.02242  24503073.937    24503072.141
  22819168.988    -4213706.00043  -3194973.48042  22819170.964    22819167.258
  23575361.568    -5072520.30543  -3623501.61842  23575363.861    23575362.643
  20646310.603   -16609921.21644 -12882822.49342  20646312.576    20646308.891
  21350614.641   -14333233.43044 -11108257.69542  21350616.794    21350612.418
  22897353.666    -8194676.63343  -5758758.81142  22897355.266    22897353.101
 04  3 26  3 47 30.0000000  0  6G22G14G 1G25G11G20
  24518323.777    -2848819.56743  -2158673.06242  24518324.334    24518323.174
  22833411.948    -4138858.49543  -3136650.76442  22833413.918    22833410.257
  23561938.290    -5143059.66643  -3678467.22642  23561940.551    23561939.108
  20647724.509   -16602491.25844 -12877032.88742  20647726.494    20647722.763
  21351971.246   -14326104.43044 -11102702.61142  21351973.410    21351969.045
  22881366.713    -8278688.84443  -5824222.80142  22881368.392    22881365.961
 04  3 26  3 48  0.0000000  0  6G22G14G 1G25G11G20
  24533602.540    -2768530.62643  -2096110.33442  24533603.151    24533600.930
  22847663.339    -4063966.53743  -3078293.39142  22847665.295    22847661.729
  23548547.283    -5213429.66843  -3733300.89942  23548549.488    23548547.518
  20649237.882   -16594538.42044 -12870835.84442  20649239.908    20649236.154
  21353431.170   -14318432.44944 -11096724.42742  21353433.341    21353428.995
  22865392.779    -8362632.09343  -5889633.04342  22865394.516    22865392.104
 04  3 26  3 48 30.0000000  0  6G22G14G 1G25G11G20
  24548910.271    -2688088.15843  -2033427.90742  24548910.942    24548908.080
  22861924.049    -3989026.00843  -3019898.17842  22861925.966    22861922.450
  23535189.432    -5283625.35743  -3787998.71342  23535191.633    23535189.505
  20650851.634   -16586058.02644 -12864227.72242  20650853.666    20650849.909
  21354995.306   -14310212.83044 -11090319.50942  21354997.449    21354993.165
  22849433.313    -8446499.79543  -5954984.44042  22849434.994    22849432.691
 04  3 26  3 49  0.0000000  0  6G22G14G 1G25G11G20
  24564246.736    -2607493.87143  -1970627.15342  24564247.206    24564244.394
  22876193.556    -3914039.11243  -2961466.83942  22876195.519    22876192.090
  23521864.506    -5353647.84343  -3842561.57642  23521866.728    23521864.693
  20652565.468   -16577051.91944 -12857209.94942  20652567.504    20652563.697
  21356663.338   -14301447.14644 -11083489.08542  21356665.485    21356661.206
  22833488.141    -8530291.64543  -6020276.73342  22833489.839    22833487.692
 04  3 26  3 49 30.0000000  0  6G22G14G 1G25G11G20
  24579611.898    -2526748.01343  -1907708.24542  24579612.616    24579609.726
  22890471.736    -3839006.73343  -2903000.05542  22890473.694    22890470.336
  23508572.558    -5423497.15943  -3896989.53142  23508574.792    23508573.187
  20654379.097   -16567521.09644 -12849783.30442  20654381.152    20654377.325
  21358435.227   -14292135.92444 -11076233.57642  21358437.352    21358433.104
  22817557.723    -8614006.37843  -6085508.94642  22817559.293    22817557.350
 04  3 26  3 50  0.0000000  0  6G22G14G 1G25G11G20
  24595007.308    -2445845.60543  -1844667.38042  24595007.908    24595004.874
  22904759.462    -3763924.35843  -2844494.31142  22904761.475    22904758.014
  23495314.486    -5493167.97343  -3951278.37942  23495316.757    23495315.460
  20656293.463   -16557460.95844 -12841944.21142  20656295.548    20656291.675
  21360311.744   -14282274.25144 -11068549.13542  21360313.904    21360309.679
  22801643.120    -8697636.90943  -6150675.52242  22801644.680    22801642.893
 04  3 26  3 50 30.0000000  0  6G22G14G 1G25G11G20
  24610430.550    -2364795.12743  -1781511.17842  24610431.268    24610428.366
  22919054.911    -3688801.12043  -2785956.72842  22919056.989    22919053.457
  23482088.863    -5562668.46243  -4005434.49542  23482091.251    23482090.095
  20658306.823   -16546880.75244 -12833699.86842  20658308.884    20658304.988
  21362291.359   -14271871.14844 -11060442.81042  21362293.506    21362289.322
  22785743.467    -8781190.10743  -6215781.85142  22785744.990    22785743.104
 04  3 26  3 51  0.0000000  0  6G22G14G 1G25G11G20
  24625882.626    -2283594.63443  -1718238.10942  24625883.267    24625880.138
  22933358.429    -3613635.42043  -2727386.05642  22933360.589    22933356.904
  23468896.170    -5631996.14643  -4059455.97842  23468898.626    23468897.213
  20660419.410   -16535778.92144 -12825049.06442  20660421.471    20660417.606
  21364374.407   -14260924.70544 -11051913.09942  21364376.516    21364372.376
  22769859.178    -8864662.15643  -6280824.93842  22769860.726    22769858.825
 04  3 26  3 51 30.0000000  0  6G22G14G 1G25G11G20
  24641363.749    -2202241.18543  -1654845.87442  24641364.249    24641360.321
  22947670.520    -3538424.84943  -2668780.42142  22947672.723    22947668.943
  23455737.083    -5701147.82243  -4113340.29142  23455739.506    23455738.065
  20662631.661   -16524153.02344 -12815989.90042  20662633.749    20662629.941
  21366561.348   -14249432.09644 -11042957.80142  21366563.447    21366559.358
  22753991.236    -8948048.01443  -6345800.86642  22753992.750    22753990.990
 04  3 26  3 52  0.0000000  0  6G22G14G 1G25G11G20
  24656872.888    -2120739.21443  -1591337.80842  24656873.585    24656868.949
  22961990.236    -3463174.27143  -2610143.60242  22961992.446    22961988.660
  23442610.605    -5770127.59343  -4167090.65542  23442612.917    23442611.693
  20664942.764   -16512007.92544 -12806526.16142  20664944.826    20664941.027
  21368851.324   -14237398.01244 -11033580.58142  21368853.443    21368849.373
  22738139.271    -9031350.25243  -6410711.64442  22738140.798    22738139.000
 04  3 26  3 52 30.0000000  0  6G22G14G 1G25G11G20
  24672410.917    -2039087.68943  -1527713.21842  24672411.564    24672406.843
  22976317.588    -3387883.06843  -2551475.12242  22976319.861    22976316.055
  23429517.105    -5838934.07543  -4220705.98742  23429519.382    23429518.321
  20667352.783   -16499343.18144 -12796657.50842  20667354.823    20667350.988
  21371244.556   -14224821.79344 -11023780.91842  21371246.630    21371242.551
  22722303.798    -9114566.02543  -6475555.03842  22722305.413    22722303.413
 04  3 26  3 53  0.0000000  0  6G22G14G 1G25G11G20
  24687977.632    -1957284.57843  -1463970.54842  24687978.267    24687973.832
  22990653.117    -3312549.72243  -2492773.81042  22990655.403    22990651.432
  23416456.760    -5907564.71943  -4274184.30442  23416459.221    23416458.501
  20669861.906   -16486157.53944 -12786382.95442  20669863.944    20669860.087
  21373741.216   -14211701.68644 -11013557.44842  21373743.309    21373739.232
  22706485.421    -9197691.43743  -6540328.02542  22706487.099    22706484.949
 04  3 26  3 53 30.0000000  0  6G22G14G 1G25G11G20
  24703571.954    -1875334.96643  -1400113.72742  24703572.698    24703568.677
  23004995.666    -3237179.85843  -2434044.05342  23004997.953    23004993.731
  23403429.217    -5976024.31843  -4327529.33642  23403431.678    23403431.100
  20672469.121   -16472456.36644 -12775706.69442  20672471.141    20672467.295
  21376340.284   -14198043.14944 -11002914.41642  21376342.406    21376338.356
  22690683.708    -9280729.34443  -6605032.81642  22690685.365    22690683.266
 04  3 26  3 54  0.0000000  0  6G22G14G 1G25G11G20
  24719194.649    -1793236.81043  -1336141.07642  24719195.121    24719192.267
  23019345.445    -3161771.78243  -2375284.51042  23019347.738    23019343.369
  23390434.639    -6044310.41743  -4380739.17642  23390437.136    23390436.549
  20675174.655   -16458238.25444 -12764627.62442  20675176.705    20675172.894
  21379042.283   -14183844.07844 -10991850.20442  21379044.376    21379040.335
  22674899.454    -9363675.93643  -6669666.46342  22674901.017    22674899.012
 04  3 26  3 54 30.0000000  0  5G14G 1G25G11G20
  23033703.450    -3086320.60543  -2316491.37942  23033705.733    23033701.287
  23377474.054    -6112417.68643  -4433809.67042  23377476.574    23377475.904
  20677979.502   -16443498.75144 -12753142.27542  20677981.505    20677977.678
  21381848.021   -14169099.75944 -10980361.11742  21381850.124    21381846.081
  22659133.920    -9446524.00443  -6734223.33942  22659135.405    22659133.588
 04  3 26  3 55  0.0000000  0  5G14G 1G25G11G20
  23048067.594    -3010835.91743  -2257672.13042  23048069.934    23048065.526
  23364545.840    -6180354.54443  -4486747.35542  23364548.260    23364547.837
  20680881.747   -16428247.07444 -12741257.82842  20680883.783    20680879.952
  21384755.700   -14153819.66444 -10968454.54042  21384757.804    21384753.767
  22643385.906    -9529280.53343  -6798708.88842  22643387.295    22643385.566
 04  3 26  3 55 30.0000000  0  5G14G 1G25G11G20
  23062438.714    -2935315.44943  -2198825.01042  23062440.987    23062436.494
  23351650.809    -6248118.22543  -4539550.09742  23351652.954    23351652.741
  20683881.822   -16412481.44044 -12728972.89742  20683883.877    20683879.982
  21387765.817   -14138001.29044 -10956128.52742  21387767.919    21387763.902
  22627656.075    -9611940.84343  -6863119.45342  22627657.558    22627655.762
 04  3 26  3 56  0.0000000  0  5G14G 1G25G11G20
  23076817.079    -2859756.45443  -2139947.87942  23076819.379    23076814.782
  23338788.999    -6315705.50343  -4592215.41742  23338791.068    23338791.237
  20686980.150   -16396199.41344 -12716285.57942  20686982.204    20686978.261
  21390878.742   -14121642.57144 -10943381.46842  21390880.853    21390876.864
  22611945.499    -9694500.20743  -6927451.36042  22611947.075    22611945.087
 04  3 26  3 56 30.0000000  0  5G14G 1G25G11G20
  23091201.717    -2784164.26443  -2081044.87842  23091203.988    23091199.415
  23325960.003    -6383121.07743  -4644746.91642  23325961.873    23325962.486
  20690175.599   -16379406.97544 -12703200.53642  20690177.647    20690173.685
  21394093.493   -14104748.91744 -10930217.57642  21394095.591    21394091.602
  22596253.613    -9776961.57243  -6991706.89842  22596255.199    22596253.082
 04  3 26  3 57  0.0000000  0  5G14G 1G25G11G20
  23105592.673    -2708538.48343  -2022115.69142  23105595.014    23105590.436
  23313163.969    -6450363.56543  -4697143.53142  23313165.713    23313166.587
  20693468.282   -16362103.74744 -12689717.48142  20693470.288    20693466.342
  21397410.236   -14087319.27044 -10916636.03242  21397412.322    21397408.363
  22580580.918    -9859321.66543  -7055883.52342  22580582.496    22580580.400
 04  3 26  3 57 30.0000000  0  5G14G 1G25G11G20
  23119989.379    -2632883.06543  -1963163.43242  23119991.680    23119987.117
  23300400.551    -6517436.01643  -4749407.64442  23300402.176    23300403.034
  20696857.291   -16344294.28844 -12675839.95642  20696859.310    20696855.350
  21400828.099   -14069357.98544 -10902640.21142  21400830.201    21400826.291
  22564927.283    -9941582.19343  -7119982.58542  22564928.758    22564926.684
 04  3 26  3 58  0.0000000  0  5G14G 1G25G11G20
  23134392.395    -2557194.67743  -1904185.46442  23134394.649    23134390.073
  23287670.188    -6584334.55643  -4801536.25842  23287671.785    23287672.608
  20700343.218   -16325975.33944 -12661565.43042  20700345.277    20700341.289
  21404347.739   -14050862.00644 -10888227.75242  21404349.821    21404345.986
  22549293.472   -10023737.69543  -7183999.80142  22549294.921    22549292.978
 04  3 26  3 58 30.0000000  0  5G14G 1G25G11G20
  23148801.249    -2481476.06143  -1845183.92742  23148803.418    23148798.824
  23274972.544    -6651061.31243  -4853531.03742  23274974.214    23274974.785
  20703925.611   -16307149.76544 -12646896.12342  20703927.647    20703923.604
  21407968.544   -14031834.36744 -10873401.01142  21407970.636    21407966.794
  22533679.730   -10105788.36643  -7247935.33042  22533681.160    22533679.233
 04  3 26  3 59  0.0000000  0  5G14G 1G25G11G20
  23163216.328    -2405724.52643  -1786156.76242  23163218.490    23163213.868
  23262308.005    -6717613.16443  -4905389.53642  23262309.705    23262310.206
  20707604.736   -16287815.63344 -12631830.54642  20707606.755    20707602.693
  21411691.041   -14012272.44044 -10858157.94542  21411693.096    21411689.313
  22518086.949   -10187729.23643  -7311785.30442  22518088.421    22518086.292
 04  3 26  3 59 30.0000000  0  5G14G 1G25G11G20
  23177636.745    -2329943.96843  -1727106.96042  23177638.931    23177634.428
  23249676.337    -6783993.17143  -4957114.11342  23249678.029    23249678.399
  20711379.776   -16267977.61944 -12616372.32842  20711381.837    20711377.701
  21415514.452   -13992180.42144 -10842501.81942  21415516.432    21415512.680
  22502514.677   -10269561.72643  -7375550.80942  22502516.237    22502514.035
 04  3 26  4  0  0.0000000  0  5G14G 1G25G11G20
  23192062.957    -2254133.90843  -1668034.18442  23192065.067    23192060.560
  23237077.496    -6850200.24043  -5008703.93242  23237079.194    23237079.448
  20715250.831   -16247635.19744 -12600521.06342  20715252.918    20715248.717
  21419438.739   -13971558.00744 -10826432.40042  21419440.700    21419437.003
  22486963.529   -10351283.14443  -7439229.76442  22486965.167    22486962.859
 04  3 26  4  0 30.0000000  0  5G14G 1G25G11G20
  23206494.793    -2178294.50643  -1608938.55342  23206496.854    23206492.236
  23224511.729    -6916233.90243  -5060158.63042  23224513.500    23224513.454
  20719217.656   -16226789.34444 -12584277.51742  20719219.771    20719215.535
  21423463.846   -13950405.64944 -10809950.03642  21423465.823    21423462.133
  22471434.165   -10432890.91243  -7502820.17942  22471435.768    22471433.243
 04  3 26  4  1  0.0000000  0  5G14G 1G25G11G20
  23220931.220    -2102430.75243  -1549823.93342  23220933.286    23220928.638
  23211978.010    -6982098.33643  -5111481.45642  23211979.958    23211979.665
  20723279.254   -16205445.27544 -12567645.75642  20723281.396    20723277.115
  21427588.876   -13928728.37243 -10793058.65042  21427590.818    21427587.191
  22455925.847   -10514387.68243  -7566324.09242  22455927.415    22455924.870
 04  3 26  4  1 30.0000000  0  5G14G 1G25G11G20
  23235373.446    -2026536.02343  -1490685.19842  23235375.467    23235371.031
  23199477.626    -7047786.71843  -5162667.10642  23199479.789    23199479.412
  20727436.853   -16183597.21444 -12550621.26542  20727438.944    20727434.582
  21431814.827   -13906520.40343 -10775753.73242  21431816.810    21431813.205
  22440440.181   -10595764.68343  -7629734.67742  22440441.764    22440439.314
 04  3 26  4  2  0.0000000  0  5G14G 1G25G11G20
  23249820.449    -1950616.31943  -1431526.98442  23249822.509    23249818.108
  23187010.044    -7113304.15843  -5213719.54642  23187012.241    23187011.787
  20731689.123   -16161251.38244 -12533208.90342  20731691.191    20731686.798
  21436140.639   -13883787.81843 -10758040.02342  21436142.665    21436139.081
  22424976.773   -10677025.43043  -7693054.67442  22424978.291    22424975.845
 04  3 26  4  2 30.0000000  0  5G14G 1G25G11G20
  23264272.452    -1874670.47643  -1372348.41142  23264274.543    23264270.148
  23174575.002    -7178649.43243  -5264637.82342  23174577.324    23174576.933
  20736036.112   -16138407.80544 -12515408.69442  20736038.191    20736033.791
  21440566.424   -13860530.19244 -10739917.19342  21440568.427    21440564.862
  22409536.195   -10758166.57243  -7756281.47842  22409537.652    22409535.070
 04  3 26  4  3  0.0000000  0  5G14G 1G25G11G20
  23278728.639    -1798702.47443  -1313152.56542  23278730.742    23278726.478
  23162172.476    -7243825.81543  -5315424.49042  23162174.602    23162174.232
  20740477.002   -16115070.73944 -12497223.94742  20740479.064    20740474.726
  21445091.353   -13836751.40544 -10721388.25942  21445093.358    21445089.849
  22394118.054   -10839189.31843  -7819416.00642  22394119.628    22394116.907
 04  3 26  4  3 30.0000000  0  5G14G 1G25G11G20
  23293189.911    -1722708.05443  -1253936.13242  23293191.974    23293187.776
  23149802.905    -7308828.37743  -5366075.70942  23149805.083    23149804.625
  20745012.473   -16091236.63944 -12478651.90742  20745014.561    20745010.212
  21449716.108   -13812448.24544 -10702450.72342  21449718.110    21449714.605
  22378723.735   -10920087.25243  -7882453.28742  22378725.397    22378722.501
 04  3 26  4  4  0.0000000  0  5G14G 1G25G11G20
  23307655.604    -1646690.15343  -1194701.39842  23307657.683    23307653.594
  23137465.853    -7373659.47043  -5416593.33042  23137468.151    23137467.564
  20749641.815   -16066909.13444 -12459695.38742  20749643.889    20749639.567
  21454440.069   -13787623.72144 -10683106.93042  21454442.082    21454438.596
  22363352.970   -11000861.08143  -7945393.86742  22363354.717    22363351.715
 04  3 26  4  4 30.0000000  0  5G14G 1G25G11G20
  23322126.003    -1570647.40743  -1135447.30242  23322128.140    23322124.133
  23125161.827    -7438317.04843  -5466975.72942  23125164.136    23125163.482
  20754365.295   -16042087.13144 -12440353.54842  20754367.349    20754363.053
  21459263.396   -13762277.20544 -10663356.39242  21459265.399    21459261.869
  22348006.578   -11081506.65243  -8008234.51442  22348008.287    22348005.321
 04  3 26  4  5  0.0000000  0  5G14G 1G25G11G20
  23336600.472    -1494583.70943  -1076176.89142  23336602.560    23336598.669
  23112890.025    -7502804.86643  -5517225.85142  23112892.391    23112891.689
  20759181.902   -16016775.65144 -12420630.30242  20759183.930    20759179.684
  21464185.137   -13736413.19244 -10643202.60542  21464187.163    21464183.603
  22332684.236   -11162025.66543  -8070976.54042  22332685.868    22332682.938
 04  3 26  4  5 30.0000000  0  5G14G 1G25G11G20
  23351078.827    -1418499.26643  -1016890.31942  23351080.849    23351077.243
  23100650.695    -7567122.56143  -5567343.40942  23100652.950    23100652.194
  20764091.458   -15990975.58944 -12400526.34342  20764093.494    20764089.271
  21469205.219   -13710032.32444 -10622646.07942  21469207.267    21469203.661
  22317386.337   -11242415.93343  -8133618.24242  22317387.993    22317385.086
 04  3 26  4  6  0.0000000  0  5G14G 1G25G11G20
  23365561.295    -1342393.28143   -957586.94442  23365563.364    23365559.882
  23088444.100    -7631268.96643  -5617327.48842  23088446.201    23088445.244
  20769093.976   -15964687.22544 -12380041.88442  20769095.970    20769091.758
  21474323.649   -13683134.57944 -10601686.78542  21474325.724    21474322.120
  22302113.673   -11322674.54443  -8196157.35142  22302115.334    22302112.217
 04  3 26  4  6 30.0000000  0  5G14G 1G25G11G20
  23380047.858    -1266264.96343   -898266.18342  23380049.900    23380046.748
  23076270.191    -7695242.87143  -5667177.15242  23076272.368    23076271.222
  20774189.392   -15937910.38144 -12359176.79842  20774191.394    20774187.179
  21479540.448   -13655720.07744 -10580324.83242  21479542.492    21479538.870
  22286866.763   -11402797.94143  -8258591.10642  22286868.460    22286865.125
 04  3 26  4  7  0.0000000  0  5G14G 1G25G11G20
  23394538.130    -1190117.97043   -838930.86842  23394540.110    23394537.061
  23064128.504    -7759047.25443  -5716894.71642  23064130.740    23064129.396
  20779376.947   -15910649.42844 -12337934.48142  20779378.954    20779374.746
  21484854.817   -13627792.63643 -10558563.18342  21484856.878    21484853.270
  22271645.235   -11482787.44343  -8320920.52842  22271646.995    22271643.588
 04  3 26  4  7 30.0000000  0  5G14G 1G25G11G20
  23409031.700    -1113953.64643   -779582.05542  23409033.685    23409030.733
  23052018.933    -7822683.14243  -5766481.00242  23052021.227    23052019.743
  20784656.252   -15882906.58944 -12316316.67142  20784658.223    20784654.094
  21490266.426   -13599354.65244 -10536403.71542  21490268.461    21490264.814
  22256449.257   -11562642.42043  -8383145.12542  22256450.980    22256447.740
 04  3 26  4  8  0.0000000  0  5G14G 1G25G11G20
  23423529.303    -1037768.71643   -720217.19042  23423531.242    23423528.358
  23039941.952    -7886146.83943  -5815933.12942  23039944.300    23039942.858
  20790027.724   -15854679.51644 -12294321.53542  20790029.672    20790025.556
  21495775.657   -13570403.58044 -10513844.43742  21495777.667    21495774.029
  22241280.015   -11642356.87643  -8445260.24242  22241281.682    22241278.611
 04  3 26  4  8 30.0000000  0  5G14G 1G25G11G20
  23438030.213     -961565.84043   -660838.33542  23438032.175    23438029.389
  23027897.449    -7949440.72243  -5865252.90242  23027899.665    23027898.255
  20795490.594   -15825971.71744 -12271951.81142  20795492.569    20795488.480
  21501381.868   -13540942.77044 -10490887.95542  21501383.905    21501380.248
  22226137.555   -11721931.12843  -8507266.10942  22226139.136    22226136.113
 04  3 26  4  9  0.0000000  0  5G14G 1G25G11G20
  23452534.386     -885346.04843   -601446.28442  23452536.402    23452533.656
  23015885.225    -8012565.25443  -5914440.74142  23015887.303    23015885.843
  20801044.511   -15796785.35344 -12249209.17442  20801046.518    20801042.448
  21507084.727   -13510973.95844 -10467535.63042  21507086.767    21507083.149
  22211022.092   -11801363.59043  -8569161.46842  22211023.664    22211020.625
 04  3 26  4  9 30.0000000  0  5G14G 1G25G11G20
  23467041.914     -809108.89043   -542040.71842  23467043.873    23467041.051
  23003905.264    -8075519.45043  -5963495.84542  23003907.308    23003905.858
  20806689.534   -15767120.64844 -12226093.80842  20806691.518    20806687.435
  21512884.168   -13480497.43643 -10443787.68242  21512886.243    21512882.655
  22195934.108   -11880651.63743  -8630944.31442  22195935.745    22195932.574
 04  3 26  4 10  0.0000000  0  5G14G 1G25G11G20
  23481552.534     -732854.61743   -482621.80942  23481554.566    23481551.838
  22991957.797    -8138303.23543  -6012418.17142  22991959.809    22991958.270
  20812425.351   -15736978.65044 -12202606.52242  20812427.299    20812423.255
  21518780.030   -13449514.24843 -10419644.92942  21518782.100    21518778.539
  22180873.942   -11959793.15643  -8692612.96942  22180875.700    22180872.426
 04  3 26  4 10 30.0000000  0  5G14G 1G25G11G20
  23496066.104     -656584.92343   -423190.88342  23496068.126    23496065.591
  22980042.655    -8200918.00043  -6061208.76842  22980044.606    22980042.974
  20818251.441   -15706362.13044 -12178749.48642  20818253.395    20818249.390
  21524771.824   -13418027.22443 -10395109.58542  21524773.864    21524770.281
  22165841.726   -12038787.44743  -8754166.90842  22165843.492    22165840.254
 04  3 26  4 11  0.0000000  0  5G14G 1G25G11G20
  23510582.534     -580301.31943   -363749.11142  23510584.473    23510581.819
  22968159.231    -8263364.86143  -6109868.56342  22968161.233    22968159.582
  20824167.364   -15675273.70044 -12154524.72242  20824169.336    20824165.326
  21530859.111   -13386038.51844 -10370183.31642  21530861.132    21530857.528
  22150837.745   -12117633.33443  -8815605.21342  22150839.464    22150836.306
 04  3 26  4 11 30.0000000  0  5G14G 1G25G11G20
  23525101.399     -504003.58143   -304296.32142  23525103.393    23525100.725
  22956308.062    -8325643.51443  -6158397.28942  22956310.050    22956308.180
  20830172.938   -15643714.33644 -12129932.99642  20830174.890    20830170.892
  21537041.697   -13353549.22644 -10344866.98042  21537043.688    21537040.038
  22135862.421   -12196328.66643  -8876926.20042  22135864.085    22135861.023
 04  3 26  4 12  0.0000000  0  5G14G 1G25G11G20
  23539623.197     -427691.35543   -244832.24542  23539625.191    23539622.334
  22944489.019    -8387752.89843  -6206794.11042  22944491.107    22944488.975
  20836268.005   -15611684.38644 -12104974.58142  20836270.009    20836265.987
  21543319.401   -13320559.68544 -10319160.83842  21543321.401    21543317.726
  22120916.401   -12274870.36543  -8938127.46642  22120918.049    22120915.006
 04  3 26  4 12 30.0000000  0  5G14G 1G25G11G20
  23554148.213     -351362.36743   -185355.10142  23554150.256    23554147.307
  22932702.470    -8449690.75643  -6255057.27842  22932704.633    22932702.336
  20842452.799   -15579183.18544 -12079648.95742  20842454.798    20842450.800
  21549692.518   -13287068.73944 -10293063.99442  21549694.513    21549690.859
  22106000.653   -12353253.90243  -8999205.49542  22106002.226    22105999.087
 04  3 26  4 13  0.0000000  0  5G14G 1G25G11G20
  23568674.602     -275025.91343   -125872.15442  23568676.702    23568673.647
  22920947.103    -8511465.78743  -6303193.58342  22920949.180    22920946.739
  20848725.456   -15546220.25244 -12053963.54542  20848727.450    20848723.431
  21556159.162   -13253086.47944 -10266584.30942  21556161.137    21556157.470
  22091113.539   -12431485.98243  -9060165.50442  22091115.234    22091111.995
 04  3 26  4 13 30.0000000  0  5G14G 1G25G11G20
  23583204.836     -198669.26543    -66373.46342  23583206.853    23583203.703
  22909225.019    -8573065.22643  -6351193.06142  22909227.165    22909224.598
  20855088.021   -15512784.66744 -12027909.82742  20855090.042    20855086.029
  21562721.449   -13218601.36844 -10239712.78342  21562723.464    21562719.788
  22076258.021   -12509551.93443  -9120996.06042  22076259.743    22076256.516
 04  3 26  4 14  0.0000000  0  5G14G 1G25G11G20
  23597736.505     -122306.10843     -6869.70542  23597738.470    23597735.154
  22897533.888    -8634502.16943  -6399065.91142  22897536.049    22897533.512
  20861537.791   -15478891.02144 -12001499.18042  20861539.754    20861535.755
  21569376.743   -13183628.05044 -10212460.84742  21569378.737    21569374.964
  22061431.944   -12587462.74643  -9181705.73342  22061433.669    22061430.519
